[[{"header":{"parameterUnit":"m.s-1","parameterCategory":1,"la1":30.6,"la2":29.2853,"lo1":-89.7004,"lo2":-87.6739,"dy":0.0162,"dx":0.0183,"nx":112,"ny":82,"refTime":"2023-11-04T18:00:00:Z","depth":0,"parameterNumber":2,"parameterNumberName":"U-component_of_WINDS"},"data":[0.0,0.0,0.0,0.0,0.0,0.0,0.0,0.0,0.0,0.0,0.0,0.0,0.0,0.0,0.0,0.0,0.0,0.0,0.0,0.0,0.0,0.0,0.0,0.0,0.0,0.0,0.0,0.0,0.0,0.0,0.0,0.0,0.0,0.0,0.0,0.0,0.0,0.0,0.0,0.0,0.0,0.0,0.0,0.0,0.0,0.0,0.0,0.0,0.0,0.0,0.0,0.0,0.0,0.0,0.0,0.0,0.0,0.0,0.0,0.0,0.0,0.0,0.0,0.0,0.0,0.0,0.0,0.0,0.0,0.0,0.0,0.0,0.0,0.0,0.0,0.0,0.0,0.0,0.0,0.0,0.0,0.0,0.0,0.0,0.0,0.0,0.0,0.0,0.0,0.0,-3.55,-3.55,-3.55,-3.55,-3.55,-3.55,-3.55,-3.55,0.0,0.0,0.0,0.0,0.0,0.0,0.0,0.0,0.0,0.0,0.0,0.0,0.0,0.0,0.0,0.0,0.0,0.0,0.0,0.0,0.0,0.0,0.0,0.0,0.0,0.0,0.0,0.0,0.0,0.0,0.0,0.0,0.0,0.0,0.0,0.0,0.0,0.0,0.0,0.0,0.0,0.0,0.0,0.0,0.0,0.0,0.0,0.0,0.0,0.0,0.0,0.0,0.0,0.0,0.0,0.0,0.0,0.0,0.0,0.0,0.0,0.0,0.0,0.0,0.0,0.0,0.0,0.0,0.0,0.0,0.0,0.0,0.0,0.0,0.0,0.0,0.0,0.0,0.0,0.0,0.0,0.0,0.0,0.0,0.0,0.0,0.0,0.0,0.0,0.0,0.0,0.0,0.0,0.0,0.0,0.0,0.0,0.0,0.0,0.0,0.0,0.0,0.0,0.0,-3.55,-3.55,-3.55,-3.55,-3.55,-3.55,-3.55,-3.55,0.0,0.0,0.0,0.0,0.0,0.0,0.0,0.0,0.0,0.0,0.0,0.0,0.0,0.0,0.0,0.0,0.0,0.0,0.0,0.0,0.0,0.0,0.0,0.0,0.0,0.0,0.0,0.0,0.0,0.0,0.0,0.0,0.0,0.0,0.0,0.0,0.0,0.0,0.0,0.0,0.0,0.0,0.0,0.0,0.0,0.0,0.0,0.0,0.0,0.0,0.0,0.0,0.0,0.0,0.0,0.0,0.0,0.0,0.0,0.0,0.0,0.0,0.0,0.0,0.0,0.0,0.0,0.0,0.0,0.0,0.0,0.0,0.0,0.0,0.0,0.0,0.0,0.0,0.0,0.0,0.0,0.0,0.0,0.0,0.0,0.0,0.0,0.0,0.0,0.0,0.0,0.0,0.0,0.0,0.0,0.0,0.0,0.0,0.0,0.0,0.0,0.0,0.0,-3.5508,-3.55,-3.55,-3.55,-3.55,-3.55,-3.55,-3.55,-3.55,-3.55,0.0,0.0,0.0,0.0,0.0,0.0,0.0,0.0,0.0,0.0,0.0,0.0,0.0,0.0,0.0,0.0,0.0,0.0,0.0,0.0,0.0,0.0,0.0,0.0,0.0,0.0,0.0,0.0,0.0,0.0,0.0,0.0,0.0,0.0,0.0,0.0,0.0,0.0,0.0,0.0,0.0,0.0,0.0,0.0,0.0,0.0,0.0,0.0,0.0,0.0,0.0,0.0,0.0,0.0,0.0,0.0,0.0,0.0,0.0,0.0,0.0,0.0,0.0,0.0,0.0,0.0,0.0,0.0,0.0,0.0,0.0,0.0,0.0,0.0,0.0,0.0,0.0,0.0,0.0,0.0,0.0,0.0,0.0,0.0,0.0,0.0,0.0,0.0,0.0,0.0,0.0,0.0,0.0,0.0,0.0,0.0,0.0,0.0,0.0,0.0,0.0,0.0,-3.5501,-3.55,-3.55,-3.55,-3.55,-3.55,-3.55,-3.55,-3.55,-3.55,0.0,0.0,0.0,0.0,0.0,0.0,0.0,0.0,0.0,0.0,0.0,0.0,0.0,0.0,0.0,0.0,0.0,0.0,0.0,0.0,0.0,0.0,0.0,0.0,0.0,0.0,0.0,0.0,0.0,0.0,0.0,0.0,0.0,0.0,0.0,0.0,0.0,0.0,0.0,0.0,0.0,0.0,0.0,0.0,0.0,0.0,0.0,0.0,0.0,0.0,0.0,0.0,0.0,0.0,0.0,0.0,0.0,0.0,0.0,0.0,0.0,0.0,0.0,0.0,0.0,0.0,0.0,0.0,0.0,0.0,0.0,0.0,0.0,0.0,0.0,0.0,0.0,0.0,0.0,0.0,0.0,0.0,0.0,0.0,0.0,0.0,0.0,0.0,0.0,0.0,0.0,0.0,0.0,0.0,0.0,0.0,0.0,0.0,0.0,0.0,0.0,0.0,-3.55,-3.55,-3.55,-3.55,-3.55,-3.55,-3.55,-3.55,-3.55,-3.55,0.0,0.0,0.0,0.0,0.0,0.0,0.0,0.0,0.0,0.0,0.0,0.0,0.0,0.0,0.0,0.0,0.0,0.0,0.0,0.0,0.0,0.0,0.0,0.0,0.0,0.0,0.0,0.0,0.0,0.0,0.0,0.0,0.0,0.0,0.0,0.0,0.0,0.0,0.0,0.0,0.0,0.0,0.0,0.0,0.0,0.0,0.0,0.0,0.0,0.0,0.0,0.0,0.0,0.0,0.0,0.0,0.0,0.0,0.0,0.0,0.0,0.0,0.0,0.0,0.0,0.0,0.0,0.0,0.0,0.0,0.0,0.0,0.0,0.0,0.0,0.0,0.0,0.0,0.0,0.0,0.0,0.0,0.0,0.0,0.0,0.0,0.0,0.0,0.0,0.0,0.0,0.0,0.0,0.0,0.0,0.0,0.0,0.0,0.0,0.0,0.0,0.0,-3.5501,-3.55,-3.55,-3.55,-3.55,-3.55,-3.55,-3.55,-3.55,0.0,0.0,0.0,0.0,0.0,0.0,0.0,0.0,0.0,0.0,0.0,0.0,0.0,0.0,0.0,0.0,0.0,0.0,0.0,0.0,0.0,0.0,0.0,0.0,0.0,0.0,0.0,0.0,0.0,0.0,0.0,0.0,0.0,0.0,0.0,0.0,0.0,0.0,0.0,0.0,0.0,0.0,0.0,0.0,0.0,0.0,0.0,0.0,0.0,0.0,0.0,0.0,0.0,0.0,0.0,0.0,0.0,0.0,0.0,0.0,0.0,0.0,0.0,0.0,0.0,0.0,0.0,0.0,0.0,0.0,0.0,0.0,0.0,0.0,0.0,0.0,0.0,0.0,0.0,0.0,0.0,0.0,0.0,0.0,0.0,0.0,0.0,0.0,0.0,0.0,0.0,0.0,0.0,0.0,0.0,0.0,0.0,0.0,0.0,0.0,0.0,0.0,-3.5509,-3.5501,-3.55,-3.55,-3.55,-3.55,-3.55,-3.55,-3.55,-3.55,0.0,0.0,0.0,0.0,0.0,0.0,0.0,0.0,0.0,0.0,0.0,0.0,0.0,0.0,0.0,0.0,0.0,0.0,0.0,0.0,0.0,0.0,0.0,0.0,0.0,0.0,0.0,0.0,0.0,0.0,0.0,0.0,0.0,0.0,0.0,0.0,0.0,0.0,0.0,0.0,0.0,0.0,0.0,0.0,0.0,0.0,0.0,0.0,0.0,0.0,0.0,0.0,0.0,0.0,0.0,0.0,0.0,0.0,0.0,0.0,0.0,0.0,0.0,0.0,0.0,0.0,0.0,0.0,0.0,0.0,0.0,0.0,0.0,0.0,0.0,0.0,0.0,0.0,0.0,0.0,0.0,0.0,0.0,0.0,0.0,0.0,0.0,0.0,0.0,0.0,0.0,0.0,0.0,0.0,0.0,0.0,0.0,0.0,0.0,0.0,0.0,0.0,-3.5507,-3.55,-3.55,-3.55,-3.55,-3.55,-3.55,-3.55,-3.55,0.0,0.0,0.0,0.0,0.0,0.0,0.0,0.0,0.0,0.0,0.0,0.0,0.0,0.0,0.0,0.0,0.0,0.0,0.0,0.0,0.0,0.0,0.0,0.0,0.0,0.0,0.0,0.0,0.0,0.0,0.0,0.0,0.0,0.0,0.0,0.0,0.0,0.0,0.0,0.0,0.0,0.0,0.0,0.0,0.0,0.0,0.0,0.0,0.0,0.0,0.0,0.0,0.0,0.0,0.0,0.0,0.0,0.0,0.0,0.0,0.0,0.0,0.0,0.0,0.0,0.0,0.0,0.0,0.0,0.0,0.0,0.0,0.0,0.0,0.0,0.0,0.0,0.0,0.0,0.0,0.0,0.0,0.0,0.0,0.0,0.0,0.0,0.0,0.0,0.0,0.0,0.0,0.0,0.0,0.0,0.0,0.0,0.0,0.0,0.0,0.0,0.0,0.0,-3.55,-3.55,-3.55,-3.55,-3.55,-3.55,-3.55,-3.55,-3.55,-3.55,0.0,0.0,0.0,0.0,0.0,0.0,0.0,0.0,0.0,0.0,0.0,0.0,0.0,0.0,0.0,0.0,0.0,0.0,0.0,0.0,0.0,0.0,0.0,0.0,0.0,0.0,0.0,0.0,0.0,0.0,0.0,0.0,0.0,0.0,0.0,0.0,0.0,0.0,0.0,0.0,0.0,0.0,0.0,0.0,0.0,0.0,0.0,0.0,0.0,0.0,0.0,0.0,0.0,0.0,0.0,0.0,0.0,0.0,0.0,0.0,0.0,0.0,0.0,0.0,0.0,0.0,0.0,0.0,0.0,0.0,0.0,0.0,0.0,0.0,0.0,0.0,0.0,0.0,0.0,0.0,0.0,0.0,0.0,0.0,0.0,0.0,0.0,0.0,0.0,0.0,0.0,0.0,0.0,0.0,0.0,0.0,0.0,0.0,0.0,0.0,0.0,0.0,-3.55,-3.55,-3.55,-3.55,-3.55,-3.55,-3.55,-3.55,-3.55,-3.55,0.0,0.0,0.0,0.0,0.0,0.0,0.0,0.0,0.0,0.0,0.0,0.0,0.0,0.0,0.0,0.0,0.0,0.0,0.0,0.0,0.0,0.0,0.0,0.0,0.0,0.0,0.0,0.0,0.0,0.0,0.0,0.0,0.0,0.0,0.0,0.0,0.0,0.0,0.0,0.0,0.0,0.0,0.0,0.0,0.0,0.0,0.0,0.0,0.0,0.0,0.0,0.0,0.0,0.0,0.0,0.0,0.0,0.0,0.0,0.0,0.0,0.0,0.0,0.0,0.0,0.0,0.0,0.0,0.0,0.0,0.0,0.0,0.0,0.0,0.0,0.0,0.0,0.0,0.0,0.0,0.0,0.0,0.0,0.0,0.0,0.0,0.0,0.0,0.0,0.0,0.0,0.0,0.0,0.0,0.0,0.0,0.0,0.0,0.0,0.0,0.0,0.0,-3.55,-3.55,-3.55,-3.55,-3.55,-3.55,-3.55,-3.55,-3.55,-3.55,0.0,0.0,0.0,0.0,0.0,0.0,0.0,0.0,0.0,0.0,0.0,0.0,0.0,0.0,0.0,0.0,0.0,0.0,0.0,0.0,0.0,0.0,0.0,0.0,0.0,0.0,0.0,0.0,0.0,0.0,0.0,0.0,0.0,0.0,0.0,0.0,0.0,0.0,0.0,0.0,0.0,0.0,0.0,0.0,0.0,0.0,0.0,0.0,0.0,0.0,0.0,0.0,0.0,0.0,0.0,0.0,0.0,0.0,0.0,0.0,-4.3017,-4.2244,0.0,0.0,0.0,0.0,0.0,0.0,0.0,0.0,0.0,0.0,0.0,0.0,0.0,0.0,0.0,0.0,0.0,0.0,0.0,0.0,0.0,0.0,0.0,0.0,0.0,0.0,0.0,0.0,0.0,0.0,0.0,0.0,0.0,0.0,0.0,0.0,0.0,0.0,0.0,0.0,-3.55,-3.55,-3.55,-3.55,-3.55,-3.55,-3.55,-3.55,-3.55,-3.55,-3.55,0.0,0.0,0.0,0.0,0.0,0.0,0.0,0.0,0.0,0.0,0.0,0.0,0.0,0.0,0.0,0.0,0.0,0.0,0.0,0.0,0.0,0.0,0.0,0.0,0.0,0.0,0.0,0.0,0.0,0.0,0.0,0.0,0.0,0.0,0.0,0.0,0.0,0.0,0.0,0.0,0.0,0.0,0.0,0.0,0.0,0.0,0.0,0.0,0.0,0.0,0.0,0.0,0.0,0.0,0.0,0.0,0.0,0.0,0.0,-4.3559,-4.2999,0.0,0.0,0.0,0.0,0.0,0.0,0.0,0.0,0.0,0.0,0.0,0.0,0.0,0.0,0.0,0.0,0.0,0.0,0.0,0.0,0.0,0.0,0.0,0.0,0.0,0.0,0.0,0.0,0.0,0.0,0.0,0.0,0.0,0.0,0.0,0.0,0.0,0.0,0.0,0.0,-3.6038,-3.6077,-3.6231,-3.6654,-3.6692,-3.6519,-3.6115,-3.6077,-3.5904,-3.5519,-3.55,0.0,0.0,0.0,0.0,0.0,0.0,0.0,0.0,0.0,0.0,0.0,0.0,0.0,0.0,0.0,0.0,0.0,0.0,0.0,0.0,0.0,0.0,0.0,0.0,0.0,0.0,0.0,0.0,0.0,0.0,0.0,0.0,0.0,0.0,0.0,0.0,0.0,0.0,0.0,0.0,0.0,0.0,0.0,0.0,0.0,0.0,0.0,0.0,0.0,0.0,0.0,0.0,0.0,-4.4005,-4.4005,-4.4005,-4.4005,-4.4005,-4.4005,-4.4005,-4.3752,-4.3348,-4.3348,0.0,0.0,0.0,0.0,0.0,0.0,0.0,0.0,0.0,0.0,0.0,0.0,0.0,0.0,0.0,0.0,0.0,0.0,0.0,0.0,0.0,0.0,-3.7901,-3.7943,-3.7413,-3.6702,-3.607,0.0,0.0,0.0,0.0,0.0,0.0,0.0,0.0,0.0,0.0,0.0,-3.6808,-3.6923,-3.7199,-3.7911,-3.8007,-3.7719,-3.6981,-3.6788,-3.6423,-3.575,-3.5577,-3.55,0.0,0.0,0.0,0.0,0.0,0.0,0.0,0.0,0.0,0.0,0.0,0.0,0.0,0.0,0.0,0.0,0.0,0.0,0.0,0.0,0.0,0.0,0.0,0.0,0.0,0.0,0.0,0.0,0.0,0.0,0.0,0.0,-4.3726,-4.3838,0.0,0.0,0.0,0.0,0.0,0.0,0.0,0.0,0.0,0.0,0.0,0.0,0.0,-4.4005,-4.4005,-4.4005,-4.4005,-4.4005,-4.4005,-4.4005,-4.4005,-4.4005,-4.4005,-4.4005,-4.4005,0.0,-4.3899,-4.3899,0.0,0.0,0.0,0.0,0.0,0.0,0.0,0.0,0.0,0.0,0.0,0.0,0.0,0.0,0.0,0.0,0.0,0.0,0.0,0.0,0.0,0.0,-3.7519,-3.7691,-3.7649,-3.7595,-3.7651,-3.6519,-3.55,-3.55,-3.55,-3.55,0.0,0.0,0.0,0.0,0.0,0.0,-3.7719,-3.7834,-3.7873,-3.7988,-3.8007,-3.795,-3.7834,-3.7142,-3.6654,-3.6538,-3.5885,-3.55,-3.55,-3.546,0.0,0.0,0.0,0.0,0.0,0.0,0.0,0.0,0.0,0.0,0.0,0.0,0.0,0.0,0.0,0.0,0.0,0.0,0.0,0.0,0.0,0.0,0.0,0.0,0.0,0.0,0.0,0.0,0.0,-4.4005,-4.4005,-4.4005,-4.4005,-4.4005,0.0,0.0,0.0,0.0,0.0,0.0,0.0,0.0,0.0,-4.4005,-4.4005,-4.4246,-4.4729,-4.4729,-4.4952,-4.5417,-4.5417,-4.5417,-4.5417,-4.5417,-4.5157,-4.4729,-4.4729,-4.4451,-4.4005,-4.4005,-4.3782,-4.3466,0.0,0.0,0.0,0.0,-4.1591,-4.1171,-4.09,-4.0808,-4.0834,-4.0948,0.0,0.0,0.0,0.0,0.0,0.0,0.0,-3.9583,-3.9201,-3.9132,-3.9157,-3.9243,-3.8933,-3.8623,-3.8712,-3.7777,-3.6911,-3.6911,-3.6911,-3.6911,-3.6911,-3.6911,0.0,0.0,0.0,-3.7757,-3.8623,-3.8719,-3.8892,-3.9361,-3.9419,-3.9219,-3.8757,-3.8373,-3.7886,-3.7247,-3.6442,-3.6002,-3.6005,-3.558,-3.5376,0.0,0.0,0.0,0.0,0.0,0.0,0.0,0.0,0.0,0.0,0.0,0.0,0.0,0.0,0.0,0.0,0.0,0.0,0.0,0.0,0.0,0.0,0.0,0.0,0.0,0.0,0.0,0.0,-4.4005,-4.4005,-4.4005,-4.4005,-4.4005,0.0,0.0,0.0,0.0,0.0,0.0,-4.4321,-4.4321,-4.4432,-4.4636,-4.4636,-4.4952,-4.5602,-4.5602,-4.59,-4.6494,-4.6494,-4.6494,-4.6494,-4.6494,-4.616,-4.5602,-4.5602,-4.5231,-4.4599,-4.4191,-4.4005,-4.4005,-4.4005,-4.3633,-4.3076,-4.2872,-4.2407,-4.1869,-4.1664,-4.159,-4.1615,-4.1773,-4.1897,-4.1939,-4.1529,0.0,0.0,0.0,0.0,-4.0928,-4.0928,-4.1053,-4.117,-4.117,-4.0708,-4.0258,-4.0258,-3.9758,-3.9046,-3.8161,-3.8007,-3.8007,-3.8007,-3.8007,0.0,-3.8296,-3.8334,-3.8642,-3.9496,-3.9611,-3.9842,-4.0439,-4.0496,-4.0265,-3.9669,-3.9419,-3.8935,-3.8087,-3.7264,-3.6692,-3.6415,-3.5832,-3.5476,-3.5424,0.0,0.0,0.0,0.0,0.0,0.0,0.0,0.0,0.0,0.0,0.0,0.0,0.0,0.0,0.0,0.0,0.0,0.0,0.0,0.0,0.0,0.0,0.0,0.0,0.0,0.0,0.0,0.0,0.0,-4.4005,-4.4005,0.0,0.0,0.0,0.0,-4.4005,-4.4005,-4.4358,-4.5194,-4.5231,-4.5584,-4.6345,-4.6364,-4.6401,-4.6438,-4.6438,-4.6457,-4.6494,-4.6494,-4.6494,-4.6494,-4.6494,-4.6475,-4.6438,-4.6438,-4.6401,-4.6252,-4.4655,-4.4005,-4.4005,-4.4005,-4.3986,-4.3856,-4.3076,-4.276,-4.263,-4.1869,-4.159,-4.1605,-4.1619,-4.1922,-4.2276,-4.2249,-4.2563,0.0,0.0,-4.2934,-4.2962,-4.2962,-4.2962,-4.297,-4.297,-4.2931,-4.2912,-4.2912,-4.2874,-4.1873,-3.8623,-3.8007,-3.8007,-3.8007,0.0,-3.8277,-3.9111,-3.9227,-3.9534,-4.0342,-4.0439,-4.0458,-4.0496,-4.0496,-4.0477,-4.0439,-3.9746,-3.9277,-3.9212,-3.8404,-3.7471,-3.6449,-3.6364,-3.5982,-3.5237,-3.5218,0.0,0.0,0.0,0.0,0.0,0.0,0.0,0.0,0.0,0.0,0.0,0.0,0.0,0.0,0.0,0.0,0.0,0.0,0.0,0.0,0.0,0.0,0.0,0.0,0.0,0.0,0.0,0.0,-4.4005,-4.4506,0.0,-4.4841,-4.5305,-4.5602,-4.5602,-4.5602,-4.5732,-4.6048,-4.6067,-4.6197,-4.6494,-4.6494,-4.6754,-4.7274,-4.7274,-4.7534,-4.8036,-4.8036,-4.8036,-4.8036,-4.8036,-4.7757,-4.7274,-4.7274,-4.6977,-4.6457,-4.5862,-4.5305,-4.4785,-4.4228,-4.4005,-4.3968,-4.367,-4.3578,-4.3522,-4.3243,-4.3132,-4.3132,-4.3132,-4.3016,-4.2888,-4.2888,-4.2765,-4.2647,-4.2647,-4.2737,-4.2833,-4.2833,-4.2961,-4.3104,-4.3104,-4.3104,-4.3104,-4.3104,-4.3104,-4.2739,-4.1527,-4.0835,-4.045,-4.045,-3.9969,-3.9892,-4.0777,-4.0912,-4.1219,-4.2066,-4.1681,-4.1335,-4.1335,-4.0835,-4.0496,-4.0496,-4.0246,-4.0026,-3.9891,-3.9106,-3.8448,-3.8037,-3.7347,-3.6652,-3.5993,-3.5976,-3.5761,0.0,0.0,0.0,0.0,0.0,0.0,0.0,0.0,0.0,0.0,0.0,0.0,0.0,0.0,0.0,0.0,0.0,0.0,0.0,0.0,0.0,0.0,0.0,0.0,0.0,-4.4246,-4.4432,-4.4432,-4.5194,-4.5695,-4.5695,-4.6197,-4.6605,-4.6884,-4.6903,-4.7144,-4.7683,-4.7701,-4.785,-4.8147,-4.8147,-4.8407,-4.8946,-4.8946,-4.9224,-4.9745,-4.9447,-4.9317,-4.9336,-4.9039,-4.8612,-4.8091,-4.8091,-4.7794,-4.7293,-4.7014,-4.6587,-4.603,-4.5175,-4.4841,-4.4841,-4.4841,-4.4674,-4.4395,-4.4098,-4.4005,-4.4005,-4.4005,-4.3822,-4.3589,-4.3589,-4.3485,-4.3349,-4.3349,-4.3508,-4.3685,-4.3685,-4.3806,-4.3932,-4.3932,-4.3932,-4.3932,-4.3932,-4.3932,-4.3932,-4.3932,-4.3028,-4.2239,-4.2239,-4.1758,-4.1566,-4.2162,-4.2239,-4.245,-4.3028,-4.2604,-4.2239,-4.2239,-4.172,-4.1266,-4.095,-4.0931,-4.0756,-4.0332,-3.9795,-3.9329,-3.8944,-3.8252,-3.7557,-3.6842,-3.6557,-3.597,-3.5098,0.0,0.0,0.0,0.0,0.0,0.0,0.0,0.0,0.0,0.0,0.0,0.0,0.0,0.0,0.0,0.0,0.0,0.0,0.0,0.0,0.0,0.0,0.0,-4.4153,-4.4785,-4.5342,-4.5361,-4.6085,-4.6587,-4.6605,-4.6643,-4.6977,-4.7757,-4.7813,-4.85,-5.006,-5.0153,-5.0525,-5.1361,-5.1398,-5.1398,-5.1398,-5.1398,-5.1398,-5.1398,-5.0543,-5.0172,-5.0209,-4.9336,-4.8946,-4.8946,-4.8909,-4.8909,-4.8834,-4.8054,-4.7738,-4.7664,-4.6828,-4.6494,-4.6494,-4.6494,-4.6011,-4.5212,-4.4373,-4.4076,-4.4058,-4.4058,-4.4229,-4.4397,-4.4397,-4.4776,-4.5191,-4.5201,-4.539,-4.5586,-4.5594,-4.5594,-4.5594,-4.5594,-4.5594,-4.5594,-4.5594,-4.5594,-4.5594,-4.5594,-4.4278,-4.3162,-4.3143,-4.3124,-4.3104,-4.3124,-4.3143,0.0,-4.3162,-4.3143,-4.3143,-4.3143,-4.3104,-4.2758,-4.1904,-4.1846,-4.147,-4.0593,-4.0535,-4.0087,-3.9084,-3.9037,-3.8618,-3.7749,-3.6871,-3.5945,-3.4984,0.0,0.0,0.0,0.0,0.0,0.0,0.0,0.0,0.0,0.0,0.0,0.0,0.0,0.0,0.0,0.0,0.0,0.0,0.0,0.0,0.0,-4.5138,-4.5212,-4.4971,-4.5639,-4.6382,-4.6977,-4.7757,-4.85,-4.9113,-4.9707,-5.0135,-5.0376,-5.0376,-5.058,-5.1026,-5.1045,-5.1156,-5.1398,-5.1398,-5.1398,-5.1398,-5.1398,-5.1398,-5.1398,-5.1156,-5.1045,-5.1045,-5.0172,-4.9782,-4.9745,-4.915,-4.8909,-4.889,-4.8667,-4.8574,-4.8426,-4.7033,-4.6494,-4.6494,-4.6494,-4.6364,-4.6155,-4.6124,-4.5694,-4.5173,-4.5207,-4.4992,-4.465,-4.4452,-4.4637,-4.4962,-4.5159,-4.5243,-4.5352,-4.5559,-4.5594,-4.5594,-4.5594,-4.5594,-4.5594,-4.5594,-4.5594,-4.5594,-4.5594,-4.5229,-4.4701,-4.4085,-4.3489,-4.3297,-4.3874,-4.397,0.0,-4.4825,-4.4355,-4.397,-4.397,-4.3451,-4.3008,-4.2758,-4.2739,-4.2374,-4.1508,-4.145,-4.105,-4.0126,-3.9942,-3.9395,-3.8363,-3.7499,-3.6928,0.0,0.0,0.0,0.0,0.0,0.0,0.0,0.0,0.0,0.0,0.0,0.0,0.0,0.0,0.0,0.0,0.0,0.0,0.0,0.0,0.0,0.0,-4.6364,-4.681,-4.681,-4.7218,-4.7794,-4.8612,-4.9447,-5.0153,-5.0655,-5.1138,-5.1546,-5.1881,-5.1899,-5.2048,-5.2401,-5.2419,-5.2419,-5.2419,-5.2419,-5.2419,-5.2419,-5.2419,-5.2419,-5.2401,-5.2067,-5.1899,-5.1881,-5.1026,-5.045,-5.0079,-4.9615,-4.9206,-4.8909,-4.8909,-4.8909,-4.8816,0.0,0.0,0.0,0.0,-4.6995,-4.6991,-4.681,-4.6476,-4.6148,-4.6181,-4.6051,-4.5754,-4.5247,-4.5294,-4.5476,-4.5265,-4.5273,-4.541,-4.5559,-4.5594,-4.5594,-4.5594,-4.5594,-4.5594,-4.5594,-4.5594,-4.5594,-4.5594,-4.5594,0.0,-4.494,-4.4451,-4.4316,-4.4759,-4.4836,-4.5037,-4.5537,-4.5171,-4.4836,-4.4836,-4.4432,-4.3989,-4.3624,-4.3605,0.0,0.0,0.0,-4.1412,-4.0535,-4.0381,0.0,0.0,0.0,-3.7614,-3.7176,-3.7165,0.0,0.0,-3.5798,-3.5869,0.0,0.0,0.0,0.0,0.0,0.0,0.0,0.0,0.0,0.0,0.0,0.0,0.0,0.0,0.0,0.0,-4.798,-4.9002,-4.928,-4.9317,-4.9577,-5.0302,-5.1063,-5.1565,-5.1658,-5.1676,-5.1974,-5.2679,-5.2735,-5.3051,-5.3775,-5.3813,0.0,0.0,0.0,-5.3813,-5.3813,-5.3813,-5.3813,-5.3794,-5.3088,-5.2735,-5.2717,-5.1899,-5.1119,-5.0395,-5.0302,-4.98,-4.9039,-4.9039,-4.8983,-4.8909,-4.8909,-4.8909,-4.8816,-4.8091,-4.785,-4.7738,-4.7064,0.0,0.0,-4.7089,-4.7192,-4.7169,-4.6455,-4.6404,-4.644,-4.5698,-4.5592,-4.5722,-4.574,-4.5671,-4.5594,-4.5594,-4.5594,-4.5594,-4.5594,-4.5594,-4.5594,-4.5594,-4.5594,-4.5594,-4.5594,-4.5594,-4.5594,-4.5594,-4.5594,-4.5594,-4.5594,-4.5594,-4.5594,-4.5594,0.0,0.0,-4.4509,-4.4451,-4.4105,-4.3297,-4.2431,-4.1566,-4.0689,-4.065,-4.0175,-3.9162,-3.8899,-3.8296,-3.7318,-3.7321,-3.7328,-3.7321,-3.7292,-3.7301,0.0,0.0,0.0,0.0,0.0,0.0,0.0,0.0,0.0,0.0,0.0,0.0,0.0,0.0,0.0,-4.8203,-4.8704,-4.9596,-5.1602,-5.1881,-5.1936,-5.2104,-5.2271,-5.2624,-5.3274,-5.3348,-5.3404,-5.3571,-5.3571,-5.3645,-5.3794,-5.3813,-5.3813,-5.3813,-5.3813,-5.3813,-5.3813,-5.3813,-5.3813,-5.3813,-5.3645,0.0,-5.3553,-5.2735,-5.2289,-5.2085,-5.1435,-5.0655,-4.9875,-4.9875,-4.9503,-4.8909,-4.8909,-4.8909,-4.889,-4.8723,-4.8667,-4.8683,-4.8814,-4.8415,-4.7905,-4.8191,-4.7825,-4.7277,-4.7132,-4.7093,0.0,-4.7201,-4.6791,-4.6386,-4.6579,-4.6124,-4.5594,-4.5594,-4.5594,-4.5594,-4.5594,-4.5594,-4.5594,-4.5594,-4.5594,-4.5594,-4.5594,-4.5594,-4.5594,-4.5594,-4.5594,-4.5594,-4.5594,-4.5594,-4.5594,-4.5594,-4.5594,-4.5537,-4.5364,-4.5344,-4.4979,-4.4124,-4.3297,-4.247,-4.1585,-4.1546,-4.1042,-3.9985,-3.9919,-3.9689,-3.9269,-3.9258,-3.9258,-3.9221,-3.7907,-3.7301,0.0,0.0,0.0,0.0,0.0,0.0,0.0,0.0,0.0,0.0,0.0,-4.6141,-4.694,0.0,-4.824,-4.9875,-5.0488,-5.1175,-5.2438,-5.2958,-5.32,-5.32,-5.32,-5.3367,-5.3775,-5.3813,-5.3813,-5.3813,-5.3813,-5.3813,-5.3813,-5.3813,-5.3813,-5.3813,-5.3813,-5.3813,-5.3813,-5.3813,-5.3813,-5.3813,-5.3813,-5.3813,-5.3794,-5.3385,-5.2977,-5.2587,-5.2178,-5.1528,-5.0729,-5.0283,-4.9633,-4.8909,-4.8909,-4.8909,-4.8926,-4.9094,-4.9044,-4.896,-4.9289,-4.9099,-4.8792,-4.8951,-4.8899,-4.868,-4.8274,-4.8235,-4.8283,-4.7987,-4.7615,-4.7328,-4.7462,-4.6874,-4.624,-4.624,-4.5913,-4.5594,-4.5594,-4.5594,-4.5594,-4.5594,-4.5594,-4.5594,-4.5594,-4.5594,-4.5594,-4.5594,-4.5594,-4.5594,-4.5594,-4.5594,-4.5594,-4.5594,-4.5594,-4.5594,-4.5594,-4.5594,-4.5229,-4.4355,-4.3806,-4.3129,-4.2295,-4.2257,-4.1934,-4.1267,-4.1248,-4.1176,-4.1048,-4.0953,-4.0964,-4.1089,-4.0233,-3.9388,0.0,0.0,0.0,0.0,0.0,0.0,0.0,-4.4915,-4.5528,-4.5528,-4.629,-4.7367,-4.8667,-4.9169,-4.9875,-5.1398,-5.2178,-5.2661,-5.281,-5.3385,-5.3813,-5.3813,-5.3813,-5.3813,-5.3813,-5.3813,-5.3813,-5.3813,-5.3813,-5.3813,-5.3813,-5.3813,-5.3813,-5.3813,-5.3813,-5.3813,-5.3813,-5.3813,-5.3813,-5.3813,-5.3813,-5.3813,-5.3813,-5.3813,-5.346,-5.2828,-5.2679,-5.2234,-5.1546,-5.0525,-4.9726,-4.9132,-4.8964,-4.8909,-4.8925,-4.9209,-4.9176,-4.9027,-4.9305,-4.9399,-4.943,-4.9514,-4.9817,-5.0014,-4.9495,-4.9486,-4.951,-4.8798,-4.849,-4.8355,-4.8355,-4.7759,-4.7077,-4.6942,-4.6355,-4.5806,-4.5633,-4.5594,-4.5594,-4.5594,-4.5594,-4.5594,-4.5594,-4.5594,-4.5594,-4.5594,-4.5594,-4.5594,-4.5594,-4.5594,-4.5594,-4.5594,-4.5594,-4.5594,-4.5594,-4.5594,-4.5306,-4.4605,-4.4355,-4.3857,-4.3043,-4.3005,-4.283,-4.2449,-4.246,-4.2471,-4.2452,-4.2243,-4.2267,-4.2523,-4.2479,-4.1684,-4.3853,-4.3867,-4.3913,-4.3913,-4.4552,-4.5138,0.0,-4.5769,-4.6364,-4.6364,-4.7571,-4.8686,-4.8872,-5.0116,-5.1416,-5.2327,-5.2549,-5.2847,-5.3571,-5.3738,-5.3813,-5.3813,-5.3813,-5.3813,-5.3813,-5.3813,-5.3813,-5.3813,-5.3813,-5.3813,-5.3813,-5.3813,-5.3813,-5.3813,-5.3813,-5.3813,-5.3813,-5.3813,-5.3813,-5.3813,-5.3813,-5.3813,-5.3813,-5.3813,-5.3757,-5.3627,-5.2921,-5.2549,-5.2345,-5.0748,-5.0079,-4.9986,-4.9206,-4.8909,-4.889,-4.8925,-4.9127,-4.9352,-4.9399,-4.9399,-4.9488,-4.9962,-4.9981,-4.993,-5.0357,-5.0538,-5.0539,-5.0442,-4.9856,-4.924,-4.924,-4.8606,-4.7798,-4.7058,-4.6836,-4.6547,-4.5768,-4.5594,-4.5594,-4.5594,-4.5594,-4.5594,-4.5594,-4.5594,-4.5594,-4.5594,-4.5594,-4.5594,-4.5594,-4.5594,-4.5594,-4.5594,-4.5594,-4.5594,-4.5594,-4.5594,-4.5556,-4.546,-4.5433,-4.5021,-4.4147,-4.4109,-4.3773,-4.3026,-4.3007,-4.3007,-4.3007,-4.2756,-4.2766,-4.3026,-4.2776,-4.246,-4.3851,-4.4216,-4.4636,-4.4703,-4.5363,-4.5992,-4.5992,-4.6624,-4.72,-4.72,-4.8481,-4.9763,-5.0265,-5.1305,-5.2364,-5.3181,-5.3311,-5.3423,-5.3757,-5.3813,-5.3813,-5.3813,-5.3813,-5.3813,-5.3813,-5.3813,-5.3813,-5.3813,-5.3813,-5.3813,-5.3813,-5.3813,-5.3813,-5.3813,-5.3813,-5.3813,-5.3813,-5.3813,-5.3813,-5.3813,-5.3813,-5.3813,-5.3813,-5.3813,-5.3813,-5.3775,-5.3441,-5.3032,-5.2549,-5.1844,-5.1008,-5.0116,-4.9745,-4.9317,-4.8907,-4.9127,-4.9289,-4.9411,-4.9588,-4.9529,-4.9472,-4.9844,-5.0233,-5.0637,-5.1048,-5.1273,-5.1395,-5.1395,-5.0798,-5.0173,-5.0173,-4.951,-4.8779,-4.8432,-4.7971,-4.7375,-4.6547,-4.6355,-4.6201,-4.571,-4.5594,-4.5594,-4.5594,-4.5594,-4.5594,-4.5594,-4.5594,-4.5594,-4.5594,-4.5594,-4.5594,-4.5594,-4.5594,-4.5594,-4.5594,-4.5594,-4.5522,-4.539,-4.5222,-4.4892,-4.4383,-4.4364,-4.4142,-4.363,-4.3789,-4.3859,-4.3859,-4.3734,-4.3824,-4.4077,-4.398,-4.3889,-4.4096,-4.4609,-4.5158,-4.5498,-4.6217,-4.6828,-4.6828,-4.746,-4.8036,-4.8036,-4.9336,-5.0655,-5.1286,-5.2234,-5.3125,-5.372,-5.3813,-5.3813,-5.3813,-5.3813,-5.3813,-5.3813,-5.3813,-5.3813,-5.3813,-5.3813,-5.3813,-5.3813,-5.3813,-5.3813,-5.3813,-5.3813,-5.3813,-5.3813,-5.3813,-5.3813,-5.3813,-5.3813,-5.3813,-5.3813,-5.3813,-5.3813,-5.3813,-5.3813,-5.3813,-5.3813,-5.3813,-5.3478,-5.2921,-5.2698,-5.1751,-5.0432,-5.019,-4.9615,-4.8943,-4.9176,-4.9321,-4.9442,-4.9707,-4.9665,-4.9573,-4.9923,-5.0406,-5.09,-5.1197,-5.1406,-5.1568,-5.1568,-5.1144,-5.0712,-5.0712,-5.0231,-4.9702,-4.9452,-4.8913,-4.824,-4.7413,-4.7058,-4.6721,-4.6086,-4.5768,-4.5594,-4.5594,-4.5594,-4.5594,-4.5594,-4.5594,-4.5594,-4.5594,-4.5594,-4.5594,-4.5594,-4.5594,-4.5594,-4.5594,-4.5594,-4.5513,-4.5322,-4.5118,-4.4896,-4.4637,-4.4624,-4.4493,-4.424,-4.4416,-4.4506,-4.4506,-4.4425,-4.4533,-4.4788,-4.4726,-4.4726,-4.4611,-4.4918,-4.5206,-4.6066,-4.6965,-4.7664,-4.7664,-4.8296,-4.8872,-4.8872,-5.019,-5.1361,-5.1398,-5.2698,-5.3775,-5.3813,-5.3813,-5.3813,-5.3813,-5.3813,-5.3813,-5.3813,-5.3813,-5.3813,-5.3813,-5.3813,-5.3813,-5.3813,-5.3813,-5.3813,-5.3813,-5.3813,-5.3813,-5.3813,-5.3813,-5.3813,-5.3813,-5.3813,-5.3813,-5.3813,-5.3813,-5.3813,-5.3813,-5.3813,-5.3813,-5.3813,-5.3813,-5.3794,-5.3701,-5.2921,-5.2104,-5.1286,-5.0432,-4.9615,-4.8909,-4.8926,-4.9127,-4.9442,-4.9707,-4.9784,-4.9884,-5.0472,-5.0462,-5.0298,-5.0613,-5.0721,-5.075,-5.075,-5.0731,-5.0712,-5.0712,-5.0673,-5.0462,-4.9606,-4.9375,-4.9125,-4.8259,-4.7451,-4.6885,-4.6865,-4.6182,-4.5594,-4.5594,-4.5594,-4.5594,-4.5594,-4.5594,-4.5594,-4.5594,-4.5594,-4.5594,-4.5594,-4.5594,-4.5594,-4.5594,-4.5594,-4.5614,-4.5586,-4.5577,-4.5467,-4.5191,-4.518,-4.5052,-4.4776,-4.4776,-4.4776,-4.4776,-4.4519,-4.4533,-4.4788,-4.4533,-4.4546,-4.4741,-4.5658,-4.6632,-4.7048,-4.7803,-4.8449,-4.8483,-4.8723,-4.8909,-4.8909,-4.9782,-5.0543,-5.0543,-5.1454,-5.2382,-5.2921,-5.2995,-5.32,-5.372,-5.3813,-5.3813,-5.3813,-5.3813,-5.3813,-5.3813,-5.3813,-5.3813,-5.3813,-5.3813,-5.3813,-5.3813,-5.3813,-5.3813,-5.3813,-5.3754,-5.3716,-5.3716,-5.3657,-5.3599,-5.3599,-5.3696,-5.3754,-5.3813,-5.3813,-5.3813,-5.3813,-5.3813,-5.3813,-5.3775,-5.3515,-5.2605,-5.1361,-5.1082,-5.0116,-4.8909,-4.8909,-4.8959,-4.9141,-4.9637,-4.9803,-4.9897,-5.0513,-5.0867,-5.1113,-5.1401,-5.151,-5.151,-5.151,-5.1106,-5.0712,-5.0712,-5.0712,-5.0635,-5.0327,-5.0269,-5.001,-4.9144,-4.8298,-4.7548,-4.7,-4.6201,-4.5594,-4.5594,-4.5594,-4.5594,-4.5594,-4.5594,-4.5594,-4.5594,-4.5594,-4.5594,-4.5594,-4.5594,-4.5594,-4.5594,-4.5594,-4.5522,-4.5342,-4.5332,-4.5211,-4.495,-4.4763,-4.4624,-4.4533,-4.436,-4.4265,-4.4265,-4.4181,-4.4181,-4.4265,-4.4181,-4.4177,-4.5513,-4.6469,-4.7408,-4.7864,-4.8362,-4.875,-4.8839,-4.8839,-4.8803,-4.8891,-4.9505,-5.008,-5.0098,-5.0822,-5.1565,-5.2085,-5.2419,-5.2791,-5.3311,-5.3627,-5.3813,-5.3813,-5.3813,-5.3813,-5.3813,-5.3774,-5.3774,-5.3813,-5.3813,-5.3793,-5.3774,-5.3774,-5.3736,-5.3678,-5.3657,-5.3636,-5.3636,-5.3598,-5.3579,-5.3619,-5.3696,-5.3754,-5.3813,-5.3813,-5.3813,-5.3813,-5.3813,-5.3813,-5.3813,-5.3813,-5.3032,-5.1806,-5.1509,-5.0543,-4.9299,-4.902,-4.8909,-4.8976,-4.948,-4.9721,-4.9884,-5.0347,-5.0837,-5.1245,-5.1431,-5.1471,-5.1471,-5.1471,-5.1106,-5.0712,-5.0712,-5.0712,-5.0712,-5.0712,-5.0712,-5.0558,-4.999,-4.9183,-4.8317,-4.749,-4.6644,-4.597,-4.5652,-4.5594,-4.5594,-4.5594,-4.5594,-4.5594,-4.5594,-4.5594,-4.5594,-4.5594,-4.5594,-4.5594,-4.5594,-4.5594,-4.5522,-4.5352,-4.5342,-4.5222,-4.4943,-4.4776,-4.4599,-4.4397,-4.4236,-4.4109,-4.4005,-4.4005,-4.4005,-4.4005,-4.4005,-4.4005,-4.6838,-4.7316,-4.7555,-4.8384,-4.8587,-4.8642,-4.8769,-4.866,-4.8586,-4.8838,-4.9396,-4.9916,0.0,-5.0693,-5.1268,-5.1323,-5.1955,-5.2494,-5.2568,-5.3236,-5.3738,-5.3775,-5.3793,-5.3793,-5.3793,-5.3716,-5.3715,-5.3793,-5.3775,-5.3774,-5.3675,-5.3694,-5.3636,-5.3499,-5.3499,-5.3499,-5.3499,-5.3616,-5.3696,-5.3775,-5.3775,-5.3793,-5.3793,-5.3793,-5.3793,-5.3793,-5.3813,-5.3813,-5.3813,-5.3813,-5.333,-5.2512,-5.1769,-5.0896,-5.0023,-4.9243,-4.8946,-4.896,-4.9255,-4.9539,-4.9811,-5.008,-5.041,-5.0673,-5.0673,-5.0683,-5.0712,-5.0712,-5.0712,-5.0712,-5.0712,-5.0712,-5.0712,-5.0712,-5.0712,-5.0712,-5.0712,-5.001,-4.9163,-4.8336,-4.749,-4.6624,-4.5748,-4.5594,-4.5594,-4.5594,-4.5594,-4.5594,-4.5594,-4.5594,-4.5594,-4.5594,-4.5594,-4.5594,-4.5594,-4.5594,-4.5594,-4.5594,-4.5594,-4.5485,-4.5232,-4.5211,-4.4954,-4.4425,-4.4416,-4.4279,-4.4005,-4.4005,-4.4005,-4.4005,-4.4005,-4.4005,-4.7022,-4.7591,-4.8106,-4.8458,-4.8532,-4.855,-4.8624,-4.8143,-4.7885,-4.8549,-4.8346,-4.8271,-4.899,-4.9232,-4.9547,-5.0249,-5.0491,-5.1009,-5.2288,-5.2678,-5.3048,-5.366,-5.3734,-5.3676,-5.3599,-5.3559,-5.3559,-5.3579,-5.3579,-5.3579,-5.3539,-5.3539,-5.3539,-5.3499,-5.34,-5.3359,-5.3359,-5.338,-5.3461,-5.3579,-5.3579,-5.3637,-5.3734,-5.3734,-5.3734,-5.3734,-5.3774,-5.3813,-5.3813,-5.3813,-5.333,-5.2587,-5.2364,-5.1398,-5.0079,-4.993,-4.9466,-4.8926,-4.8993,-4.9239,-4.9544,-4.9798,-5.0099,-5.0336,-5.0336,-5.0504,-5.0712,-5.0712,-5.0712,-5.0712,-5.0712,-5.0712,-5.0712,-5.0712,-5.0712,-5.0712,-5.0712,-5.001,-4.9336,-4.9106,-4.7894,-4.6624,-4.5748,-4.5594,-4.5594,-4.5594,-4.5594,-4.5594,-4.5594,-4.5594,-4.5594,-4.5594,-4.5594,-4.5594,-4.5594,-4.5594,-4.5594,-4.5594,-4.5594,-4.5568,-4.5504,-4.5312,-4.5041,-4.4701,-4.4493,-4.4279,-4.4005,-4.4005,-4.4005,-4.4005,-4.4005,-4.4005,-4.7516,-4.7957,-4.8306,-4.8382,-4.8401,-4.8365,-4.8089,-4.7629,-4.7316,-4.7498,-4.746,-4.757,-4.8158,-4.8492,-4.8863,0.0,0.0,0.0,-5.1656,-5.2174,-5.2711,-5.3505,-5.3598,-5.3578,-5.3519,-5.344,-5.34,-5.34,-5.3479,-5.3461,-5.342,-5.34,-5.3398,-5.3375,-5.3314,-5.3274,-5.33,-5.33,-5.338,-5.3499,-5.3499,-5.3539,-5.3598,-5.3598,-5.3598,-5.3598,-5.3658,-5.3678,-5.3678,-5.3735,-5.3495,-5.3049,-5.2735,-5.2029,-5.1156,-5.0841,-5.019,-4.9429,-4.9429,-4.9325,-4.9222,-4.9525,-4.9897,-5.0195,-5.0195,-5.0432,-5.0712,-5.0712,-5.0712,-5.0712,-5.0712,-5.0712,-5.0712,-5.0712,-5.0712,-5.0712,-5.0712,-5.0327,-4.9856,-4.9471,-4.8048,-4.674,-4.624,-4.5845,-4.5568,-4.5438,-4.5522,-4.5513,-4.5292,-4.5352,-4.5476,-4.5586,-4.5495,-4.5419,-4.5419,-4.5522,-4.5559,-4.5429,-4.5522,-4.5559,-4.5429,-4.5292,-4.503,-4.4624,-4.4479,-4.4279,-4.4005,-4.4005,-4.4005,-4.4005,-4.4005,-4.4005,-4.8122,-4.8306,-4.8306,-4.8306,-4.8233,-4.7995,-4.7408,-4.7022,-4.6673,-4.6246,-4.6741,-4.7294,-4.7529,-4.8232,-4.8769,-4.8769,0.0,-4.9972,-5.0802,-5.1615,-5.2408,-5.3221,-5.3405,-5.3479,-5.3459,-5.3339,-5.3277,-5.3277,-5.338,-5.3418,-5.3297,-5.3277,-5.3254,-5.3206,-5.3185,-5.323,-5.3277,-5.3297,-5.3359,-5.3461,-5.3461,-5.3461,-5.3461,-5.3461,-5.3461,-5.3461,-5.3499,-5.3499,-5.3519,-5.3636,-5.3675,-5.3601,-5.2994,-5.2679,-5.2494,-5.1825,-5.1008,-5.0265,-5.0153,-4.9652,-4.9091,-4.926,-4.9684,-5.0111,-5.0147,-5.0369,-5.0634,-5.0683,-5.0712,-5.0712,-5.0712,-5.0712,-5.0712,-5.0712,-5.0712,-5.0712,-5.0712,-5.0712,-5.0442,-4.9567,-4.824,-4.7163,-4.6942,-4.6278,-4.5647,-4.5311,-4.5448,-4.5419,-4.4927,-4.5085,-4.5332,-4.5541,-4.5332,-4.5201,-4.5201,-4.539,-4.5381,-4.5169,-4.5381,-4.54,-4.5169,-4.5159,-4.4908,-4.4397,-4.4397,-4.4279,-4.4005,-4.4005,-4.4005,-4.4005,-4.4005,-4.4005,-4.8269,-4.8306,-4.8306,-4.8306,-4.7791,-4.7278,-4.715,-4.6085,0.0,-4.5828,-4.6157,-4.6541,-4.7312,-4.8052,-4.8569,-4.8624,-4.8587,-4.8897,-4.9821,-5.0651,-5.1443,0.0,-5.2935,-5.3297,-5.3269,-5.3227,-5.3227,-5.3227,-5.3248,-5.3248,-5.3227,-5.3227,-5.3206,-5.3185,-5.3185,-5.3206,-5.3227,-5.3256,-5.33,-5.332,-5.332,-5.332,-5.332,-5.332,-5.332,-5.3339,-5.344,0.0,-5.3499,-5.3519,-5.3539,-5.3521,-5.3527,-5.3066,-5.2436,-5.2401,-5.1881,-5.1063,-5.0358,-5.0023,-4.9782,-4.9182,-4.9239,-4.9588,-4.9803,-5.0062,-5.0347,-5.0624,-5.0712,-5.0712,-5.0712,-5.0712,-5.0712,-5.0712,-5.0712,-5.0712,-5.0712,-5.0712,-5.0442,-4.9567,-4.9163,-4.8529,-4.7144,-4.6778,-4.6404,-4.5646,-4.5568,-4.5495,-4.518,-4.5362,-4.5457,-4.5292,-4.5222,-4.5201,-4.5201,-4.5041,-4.4908,-4.4861,-4.4908,-4.4927,-4.4861,-4.4861,-4.4726,-4.4416,-4.4397,-4.4279,-4.4005,-4.4005,-4.4005,-4.4005,-4.4005,-4.4005,-4.8306,-4.8306,-4.8306,-4.8306,-4.77,-4.6984,-4.6562,0.0,0.0,-4.4654,-4.5422,-4.6229,-4.6651,-4.7703,-4.8384,-4.7979,-4.8144,-4.8472,-4.8896,-5.0055,-5.114,-5.1948,-5.2757,-5.323,-5.3206,-5.3185,-5.3185,-5.3185,-5.3185,-5.3185,-5.3185,-5.3185,-5.3185,-5.3185,-5.3185,-5.3185,-5.3185,-5.323,-5.3251,-5.3251,-5.3251,-5.3251,-5.3251,-5.3251,-5.3251,-5.3254,-5.3314,-5.3355,-5.3355,-5.338,-5.34,-5.34,-5.3539,-5.3339,-5.2987,-5.3103,-5.2641,-5.1881,-5.1528,-5.1138,-5.0711,-5.0339,-4.9836,-4.9457,-4.9721,-4.9981,-5.0272,-5.0604,-5.0712,-5.0712,-5.0712,-5.0712,-5.0712,-5.0712,-5.0712,-5.0712,-5.0712,-5.0712,-5.0577,-5.0164,-4.9702,-4.899,-4.774,-4.7173,-4.6569,-4.5544,-4.5504,-4.541,-4.4861,-4.514,-4.5292,-4.5019,-4.4996,-4.495,-4.48,-4.4788,-4.4739,-4.4599,-4.4714,-4.4739,-4.4599,-4.4585,-4.4471,-4.4192,-4.4192,-4.4121,-4.4005,-4.4005,-4.4005,-4.4005,-4.4005,-4.4005,-4.8049,-4.8177,-4.8269,-4.8104,-4.7424,-4.6617,-4.5828,-4.5021,-4.4268,-4.3643,-4.4889,-4.6101,-4.6101,-4.7261,-4.8034,0.0,-4.772,-4.8049,-4.8049,-4.9499,-5.0839,-5.1646,-5.2454,0.0,-5.3167,-5.3185,-5.3185,-5.3185,-5.3185,-5.3185,-5.3185,-5.3185,-5.3185,-5.3185,-5.3185,-5.3185,-5.3185,-5.3185,-5.3185,-5.3185,-5.3185,-5.3185,-5.3185,-5.3185,-5.3185,-5.3185,-5.3185,-5.3185,-5.3206,-5.3254,-5.3277,-5.3277,-5.34,-5.3459,-5.3461,-5.3616,-5.323,-5.2676,-5.2586,-5.2159,-5.1639,-5.1454,-5.0699,-4.9877,-5.0155,-5.0388,-5.0621,-5.1009,-5.1132,-5.1142,-5.1212,-5.1087,-5.0914,-5.075,-5.0712,-5.0712,-5.0712,-5.0712,-5.0712,-5.0712,-5.0144,-4.9394,-4.8529,-4.7702,-4.6781,-4.5724,-4.5534,-4.5263,-4.4572,-4.4849,-4.4996,-4.4663,-4.4676,-4.4624,-4.4411,-4.4533,-4.4533,-4.4332,-4.4506,-4.4519,-4.4318,-4.4318,-4.4221,-4.3986,-4.4005,-4.4005,-4.4005,-4.4005,-4.4005,-4.4005,-4.4005,-4.4005,-4.7204,-4.7736,-4.8122,-4.7388,-4.6617,-4.5792,-4.5002,0.0,-4.3589,-4.3533,-4.4889,-4.6101,-4.6101,-4.6819,-4.739,-4.7316,0.0,-4.7204,-4.7204,-4.8655,-5.0014,-5.082,0.0,0.0,-5.3133,-5.3185,-5.3185,-5.3185,-5.3185,-5.3185,-5.3185,-5.3185,-5.3185,-5.3185,-5.3185,-5.3185,-5.3185,-5.3185,-5.3185,-5.3185,-5.3185,-5.3185,-5.3185,-5.3185,-5.3185,-5.3185,-5.3185,-5.3185,0.0,-5.3206,-5.3206,-5.3227,-5.3277,-5.3318,-5.332,-5.3479,-5.3542,-5.3473,-5.2695,-5.2437,-5.2364,-5.1639,-5.1323,-5.1264,-5.153,-5.1625,-5.1763,-5.2355,-5.2511,-5.259,-5.289,-5.2375,-5.1606,-5.0856,-5.0712,-5.0712,-5.0712,-5.0712,-5.0712,-5.0712,-5.0635,-5.0308,-4.9433,-4.8567,-4.7712,-4.6866,-4.5879,-4.5118,-4.48,-4.48,-4.4637,-4.4121,-4.4289,-4.4443,-4.4397,-4.4192,-4.4064,-4.4033,-4.4064,-4.4064,-4.4033,-4.4033,-4.4036,-4.4005,-4.4005,-4.4005,-4.4005,-4.4005,-4.4005,-4.4005,-4.4005,-4.4005,-4.6379,-4.6617,-4.6783,-4.6471,-4.5773,-4.5094,-4.4782,0.0,-4.3515,-4.3515,-4.445,-4.5258,-4.5258,-4.5901,-4.6305,-4.5809,0.0,0.0,-4.6379,-4.7792,-4.9315,-5.0637,-5.1499,-5.2307,-5.3112,-5.3185,-5.3185,-5.3185,-5.3185,-5.3185,-5.3185,-5.3185,-5.3185,-5.3185,-5.3185,-5.3185,-5.3185,-5.3185,-5.3185,-5.3185,-5.3185,-5.3185,-5.3185,-5.3185,-5.3185,-5.3185,-5.3185,-5.3185,0.0,-5.3185,-5.3185,-5.3206,-5.323,-5.3251,-5.3251,-5.3339,-5.34,-5.3424,-5.3247,-5.3214,-5.3216,-5.2939,-5.2847,-5.2698,-5.2006,-5.1804,-5.193,-5.2532,-5.2704,-5.2784,-5.3102,-5.2538,-5.1808,-5.151,-5.0889,-5.0442,-5.0663,-5.0544,-5.0472,-5.0663,-5.0712,-5.0423,-4.9548,-4.8548,-4.7634,-4.701,-4.5787,-4.4908,-4.48,-4.4663,-4.4416,-4.4033,-4.425,-4.4332,-4.4162,-4.4064,-4.4005,-4.4005,-4.4005,-4.4005,-4.4005,-4.4005,-4.4005,-4.4005,-4.4005,-4.4005,-4.4005,-4.4005,-4.4005,-4.4005,-4.4005,-4.4005,-4.5553,-4.5718,-4.5847,-4.5608,-4.5131,-4.4654,0.0,0.0,-4.3515,-4.3515,-4.414,-4.4691,-4.4691,-4.5168,-4.5369,0.0,0.0,-4.5626,-4.5865,-4.7076,-4.8581,-5.0251,-5.1151,-5.1958,-5.2766,-5.3078,-5.3185,-5.3185,-5.3185,-5.3185,-5.3185,-5.3185,-5.3185,-5.3185,-5.3185,-5.3185,-5.3185,-5.3185,-5.3185,-5.3185,-5.3185,-5.3185,-5.3185,-5.3185,-5.3185,-5.3185,-5.3185,-5.3185,0.0,-5.3185,-5.3185,-5.3185,-5.3185,-5.3185,-5.3206,-5.3254,-5.3277,-5.3339,-5.3518,-5.3636,-5.3714,-5.3754,-5.3774,-5.3609,-5.2671,-5.2386,-5.2503,-5.3039,-5.3248,-5.3328,-5.3283,-5.2832,-5.2257,-5.174,-5.1021,-5.0441,-5.0435,-5.0237,-5.0147,-5.0388,-5.044,-5.0248,-4.9625,-4.8651,-4.7724,-4.7103,-4.5898,-4.4959,-4.4714,-4.4457,-4.4206,-4.4036,-4.4181,-4.4206,-4.402,-4.4005,-4.4005,-4.4005,-4.4005,-4.4005,-4.4005,-4.4005,-4.4005,-4.4005,-4.4005,-4.4005,-4.4005,-4.4005,-4.4135,-4.4376,-4.4376,-4.4506,-4.4727,-4.5296,-4.5718,-4.4911,-4.4727,-4.4488,-4.3681,-4.3515,-4.3515,-4.3515,-4.414,-4.4691,-4.4691,-4.4727,-4.4727,-4.4691,0.0,0.0,-4.5792,-4.6599,-4.7737,0.0,-5.0306,-5.1132,-5.1922,-5.2729,-5.3185,-5.3185,-5.3185,-5.3185,-5.3185,-5.3185,-5.3185,-5.3185,-5.3185,-5.3185,-5.3185,-5.3185,-5.3185,-5.3185,-5.3185,-5.3185,-5.3185,-5.3185,-5.3185,-5.3185,-5.3185,-5.3185,0.0,-5.3185,-5.3185,-5.3185,-5.3185,-5.3185,-5.3185,-5.3185,-5.3233,-5.33,-5.33,-5.3479,-5.3714,-5.3714,-5.3735,-5.3813,-5.3775,-5.3775,-5.3851,-5.4193,-5.4506,-5.4579,-5.3726,-5.3499,-5.3082,-5.14,-5.1002,-5.0775,-4.9987,-4.9817,-4.9817,-4.9817,-4.9817,-4.9817,-4.9798,-4.9083,-4.8217,-4.7416,-4.6326,-4.5303,-4.451,-4.4181,-4.4005,-4.4005,-4.4005,-4.4005,-4.4005,-4.4005,-4.4005,-4.4005,-4.4005,-4.4005,-4.4005,-4.4005,-4.4005,-4.4005,-4.4005,-4.4005,-4.4005,-4.4005,-4.4432,-4.5287,-4.5287,-4.5714,-4.3883,-4.4066,-4.4212,-4.3938,-4.3883,-4.3809,-4.357,-4.3515,-4.3515,-4.3515,-4.3699,-4.3883,-4.3883,-4.3883,-4.3883,-4.3883,-4.3883,0.0,0.0,0.0,0.0,-4.9335,-5.0784,-5.194,-5.2747,-5.3059,-5.3185,-5.3185,-5.3185,-5.3185,-5.3185,-5.3185,-5.3185,-5.3185,-5.3185,-5.3185,-5.3185,-5.3185,-5.3185,-5.3185,-5.3185,-5.3185,-5.3185,-5.3185,-5.3185,-5.3185,-5.3185,-5.3185,-5.3185,-5.3185,-5.3185,-5.3185,-5.3185,-5.3185,-5.3185,-5.3185,-5.3227,-5.3251,-5.3277,-5.342,-5.3578,-5.3656,-5.3735,-5.3813,-5.3813,-5.3813,-5.387,-5.4212,-5.4544,-5.4735,-5.445,-5.3939,-5.3371,-5.284,-5.1695,-5.0723,-5.0638,-5.0033,-4.9569,-4.9762,-4.9803,-4.9803,-4.9803,-4.8938,-4.8192,-4.8121,-4.7026,-4.5969,-4.5312,-4.5509,-4.5491,-4.4952,-4.5379,-4.5231,-4.4098,-4.4544,-4.4878,-4.4878,-4.4878,-4.4878,-4.4878,-4.4321,-4.4283,-4.4878,-4.4878,-4.5157,-4.5714,-4.5714,-4.5844,-4.6122,-4.6122,-4.6252,-4.3515,-4.3515,-4.3515,-4.3515,-4.3515,0.0,-4.3515,-4.3515,-4.3515,-4.3515,-4.3515,-4.3515,-4.3515,-4.3515,-4.3515,-4.3515,-4.3754,-4.4415,-4.5718,-4.6159,-4.7278,-4.9756,-5.1206,-5.2307,-5.3112,-5.3185,-5.3185,-5.3185,-5.3185,-5.3185,-5.3185,-5.3185,-5.3185,-5.3185,-5.3185,-5.3185,-5.3185,-5.3185,-5.3185,-5.3185,-5.3185,-5.3185,-5.3185,-5.3185,-5.3185,-5.3185,-5.3185,-5.3185,0.0,-5.3185,-5.3185,-5.3185,-5.3185,-5.3185,-5.3185,-5.3185,-5.3185,-5.3206,-5.3251,-5.3318,-5.3459,-5.3578,-5.3716,-5.3793,-5.3774,-5.3774,-5.3851,-5.4054,-5.4264,-5.4413,-5.4413,-5.4018,-5.3548,-5.3228,-5.1994,-5.0848,-5.0698,-4.9912,-4.927,-4.9435,-4.9461,-4.9461,-4.9461,-4.888,-4.8353,-4.8231,-4.7495,-4.6706,-4.6034,-4.627,-4.6308,-4.5807,-4.6197,-4.6085,-4.5026,-4.5435,-4.5751,-4.5751,-4.5751,-4.5751,-4.5751,-4.5231,-4.5194,-4.5732,-4.5751,-4.5992,-4.6494,-4.6791,-4.694,-4.6958,-4.7256,-4.7404,0.0,-4.3515,-4.3515,-4.3515,-4.3515,-4.3515,-4.3515,-4.3515,0.0,-4.3515,-4.3515,-4.3515,-4.3515,-4.3515,-4.3515,-4.3515,-4.4176,-4.4984,-4.5792,-4.6709,-4.814,-5.0527,-5.1499,-5.2307,-5.3112,-5.3185,-5.3185,-5.3185,-5.3185,-5.3185,-5.3185,-5.3185,-5.3185,-5.3185,-5.3185,-5.3185,-5.3185,-5.3185,-5.3185,-5.3185,-5.3185,-5.3185,-5.3185,-5.3185,-5.3185,-5.3185,-5.3185,-5.3185,-5.3185,-5.3185,-5.3185,-5.3185,-5.3185,-5.3185,-5.3185,-5.3185,-5.3185,-5.3185,-5.3185,-5.3233,-5.332,-5.3479,-5.3638,-5.3774,-5.3715,-5.3754,-5.3813,-5.3775,-5.3793,-5.3813,-5.3793,-5.3793,-5.3608,-5.2865,-5.2029,-5.1175,-5.0376,-4.9522,-4.8909,-4.8909,-4.8909,-4.8909,-4.8909,-4.8909,-4.8649,-4.7906,-4.7794,-4.7497,-4.668,-4.6643,-4.6643,-4.6587,-4.6643,-4.6661,-4.6661,-4.6624,-4.6587,-4.6587,-4.6587,-4.6587,-4.6587,-4.6531,-4.6531,-4.6587,-4.6643,-4.6661,-4.6661,-4.7423,-4.7794,-4.7794,-4.8556,-4.8909,-4.3515,0.0,-4.3515,-4.3515,-4.3515,-4.3515,0.0,-4.3515,-4.3515,-4.3515,-4.3515,-4.3515,-4.3515,-4.3515,-4.3515,-4.3515,-4.4176,-4.4984,-4.5792,-4.77,-4.9444,-5.0655,-5.1499,-5.2307,-5.3112,-5.3185,-5.3185,-5.3185,-5.3185,-5.3185,-5.3185,-5.3185,-5.3185,-5.3185,-5.3185,-5.3185,-5.3185,-5.3185,-5.3185,-5.3185,-5.3185,-5.3185,-5.3185,-5.3185,-5.3185,-5.3185,-5.3185,-5.3185,-5.3185,-5.3185,-5.3185,-5.3185,-5.3185,-5.3185,-5.3185,-5.3185,-5.3185,-5.3185,-5.3185,-5.3233,-5.3339,-5.3578,-5.3675,-5.3734,-5.3774,-5.3793,-5.3774,-5.36,-5.3697,-5.3793,-5.3734,-5.3774,-5.3757,-5.3571,-5.2438,-5.1342,-5.1138,-4.9949,-4.8909,-4.8909,-4.8909,-4.8909,-4.8909,-4.8909,-4.8834,-4.8649,-4.863,-4.8333,-4.7516,-4.7961,-4.8091,-4.7478,-4.798,-4.8333,-4.8333,-4.7776,-4.7423,-4.7423,-4.7423,-4.7423,-4.7423,-4.6828,-4.6791,-4.7404,-4.8017,-4.8333,-4.8333,-4.8537,-4.863,-4.863,-4.8816,-4.8909,-4.3444,-4.3515,-4.3515,-4.3515,-4.3515,-4.3515,-4.3515,-4.3515,-4.3515,-4.3515,-4.3515,-4.3515,-4.3515,-4.3515,-4.3608,-4.3993,-4.4727,-4.5792,-4.737,-4.9058,-5.0435,-5.1242,-5.2068,-5.2729,-5.317,-5.3185,-5.3185,-5.3185,-5.3185,-5.3185,-5.3185,-5.3185,-5.3185,-5.3185,-5.3185,-5.3185,-5.3185,-5.3185,-5.3185,-5.3185,-5.3185,-5.3185,-5.3185,-5.3185,-5.3185,-5.3185,-5.3185,-5.3185,-5.3185,-5.3185,-5.3185,-5.3185,-5.3185,-5.3185,-5.3185,-5.3185,-5.3185,-5.3185,-5.3185,-5.3233,-5.3339,-5.3538,-5.3656,-5.3714,-5.3658,-5.3716,-5.3735,-5.3617,-5.3637,-5.3658,-5.3617,-5.3637,-5.3678,-5.3735,-5.2474,-5.1287,-5.138,-5.0062,-4.8856,-4.8891,-4.8909,-4.8909,-4.8909,-4.8909,-4.8909,-4.8909,-4.8909,-4.8742,-4.8314,-4.863,-4.8723,-4.8296,-4.8649,-4.8909,-4.8909,-4.85,-4.8259,-4.8259,-4.8259,-4.8259,-4.8259,-4.7831,-4.7813,-4.824,-4.8686,-4.8909,-4.8909,-4.8909,-4.8909,-4.8909,-4.8909,-4.8909,-4.3214,-4.3303,-4.3321,-4.348,-4.3515,-4.3515,-4.3515,0.0,0.0,-4.3515,-4.3515,-4.3515,-4.3515,-4.3515,-4.3754,-4.4563,-4.548,-4.6911,-4.928,-5.0288,-5.1096,-5.1885,-5.2711,-5.3185,-5.3185,-5.3185,-5.3185,-5.3185,-5.3185,-5.3185,-5.3185,-5.3185,-5.3185,-5.3185,-5.3185,-5.3185,-5.3185,-5.3185,-5.3185,-5.3185,-5.3185,-5.3185,-5.3185,-5.3185,-5.3185,-5.3185,-5.3185,0.0,-5.3185,-5.3185,-5.3185,-5.3185,-5.3185,-5.3185,-5.3185,-5.3185,-5.3185,-5.3185,-5.3185,-5.3251,-5.3297,-5.342,-5.3558,-5.3656,-5.3539,-5.3578,-5.3656,-5.3636,-5.3578,-5.3499,-5.3461,-5.3481,-5.3519,-5.3636,-5.2339,-5.1137,-5.1324,-4.999,-4.8786,-4.8874,-4.8891,-4.8891,-4.8909,-4.8909,-4.8909,-4.8909,-4.8909,-4.8909,-4.8909,-4.8909,-4.8909,-4.8909,-4.8909,-4.8909,-4.8909,-4.8909,-4.8909,-4.8909,-4.8909,-4.8909,-4.8909,-4.8909,-4.8909,-4.8909,-4.8909,-4.8909,-4.8909,-4.8909,-4.8909,-4.8909,-4.8909,-4.8909,-4.236,-4.24,-4.2578,-4.3322,-4.3515,-4.3515,-4.3515,0.0,0.0,0.0,-4.3515,-4.3515,-4.3515,-4.3515,-4.3754,-4.4563,-4.5938,-4.7553,-4.9353,-5.0288,-5.1096,-5.1885,-5.2711,-5.3185,-5.3185,-5.3185,-5.3185,-5.3185,-5.3185,-5.3185,-5.3185,-5.3185,-5.3185,-5.3185,-5.3185,-5.3185,-5.3185,-5.3185,-5.3185,-5.3185,-5.3185,-5.3185,-5.3185,-5.3185,-5.3185,-5.3185,0.0,-5.3185,-5.3185,-5.3185,-5.3185,-5.3185,-5.3185,-5.3185,-5.3185,-5.3185,-5.3185,-5.3185,-5.3185,-5.3206,-5.323,-5.3297,-5.342,-5.3519,-5.3519,-5.3519,-5.3499,-5.338,-5.342,-5.3461,-5.3359,-5.342,-5.3519,-5.3519,-5.23,-5.1099,-5.1137,-4.9825,-4.866,-4.8804,-4.8822,-4.884,-4.8891,-4.8909,-4.8909,-4.8909,-4.8909,-4.8909,-4.8909,-4.8909,-4.8909,-4.8909,-4.8909,-4.8909,-4.8909,-4.8909,-4.8909,-4.8909,-4.8909,-4.8909,-4.8909,-4.8909,-4.8909,-4.8909,-4.8909,-4.8909,-4.8909,-4.8909,-4.8909,-4.8909,-4.8909,-4.8909,-4.1976,-4.2098,-4.2221,-4.2675,-4.2995,-4.3178,-4.3178,-4.3339,-4.3515,0.0,-4.3515,-4.3515,-4.3515,-4.3864,-4.4562,-4.5792,-4.6966,-4.8343,-5.0013,-5.0323,-5.083,-5.2069,-5.2282,-5.2338,-5.2338,-5.2338,-5.2338,-5.2338,-5.2608,-5.2761,-5.2761,-5.3039,-5.3185,-5.3185,-5.3185,-5.3185,-5.3185,-5.3185,-5.3185,-5.3185,-5.3185,-5.3185,-5.3185,-5.3185,-5.3185,-5.3185,0.0,-5.3185,-5.3185,-5.3185,-5.3185,-5.3185,-5.3185,-5.3185,-5.3185,-5.3185,-5.3185,-5.3185,-5.3185,-5.3185,-5.3206,-5.3277,-5.3339,-5.34,-5.34,-5.34,-5.3359,-5.3274,-5.3293,-5.3314,-5.3254,-5.3293,-5.3244,-5.2827,-5.183,-5.0852,-5.0507,-4.9455,-4.8569,-4.8678,-4.875,-4.8804,-4.884,-4.8874,-4.8909,-4.8909,-4.8909,-4.8909,-4.8909,-4.8909,-4.8909,-4.8909,-4.8909,-4.8909,-4.8909,-4.8909,-4.8909,-4.8909,-4.8909,-4.8909,-4.8909,-4.8909,-4.8909,-4.8909,-4.8909,-4.8909,-4.8909,-4.8909,-4.8909,-4.8909,-4.8909,-4.8909,-4.1547,-4.17,-4.1739,-4.1864,-4.2318,-4.2749,-4.2749,-4.2976,-4.3214,-4.3214,-4.3324,-4.3488,-4.3614,-4.4545,-4.5645,-4.6742,-4.7602,-4.868,-5.0222,-5.0061,-5.0416,-5.2022,-5.1866,-5.1601,-5.1601,-5.1601,-5.1601,-5.1601,-5.1988,-5.2203,-5.2203,-5.2608,-5.289,-5.3017,-5.3017,-5.306,-5.3185,-5.3185,-5.3185,-5.3185,-5.3185,-5.3185,-5.3185,-5.3185,-5.3185,-5.3185,-5.3185,-5.3185,-5.3185,-5.3185,-5.3185,-5.3185,-5.3185,-5.3185,-5.3185,-5.3185,-5.3185,-5.3185,-5.3185,-5.3185,-5.3206,-5.3254,-5.3297,-5.3297,-5.3277,-5.3297,-5.3277,-5.3227,-5.3185,-5.3185,-5.3185,-5.3185,-5.3062,-5.2484,-5.1561,-5.0659,-5.0209,-4.9231,-4.8476,-4.855,-4.866,-4.8733,-4.8751,-4.8804,-4.8838,-4.8874,-4.8874,-4.8891,-4.8909,-4.8909,-4.8909,-4.8909,-4.8909,-4.8909,-4.8909,-4.8909,-4.8909,-4.8909,-4.8909,-4.8909,-4.8909,-4.8909,-4.8909,-4.8909,-4.8909,-4.8909,-4.8909,-4.8909,-4.8909,-4.8909,-4.8909,-4.8909,-4.0704,-4.0799,-4.0823,-4.0965,-4.1622,-4.2239,-4.2239,-4.2259,-4.23,-4.23,-4.2831,-4.3473,-4.3985,-4.5642,-4.6815,-4.6515,-4.7125,-4.8027,-4.9143,-4.9281,-4.9847,-5.1472,-5.1601,-5.1601,-5.1601,-5.1601,-5.1601,-5.1601,-5.1644,-5.1669,-5.1669,-5.1676,-5.1939,-5.2431,-5.2454,-5.2694,-5.3185,-5.3185,-5.3185,-5.3185,-5.3185,-5.3185,-5.3185,-5.3185,-5.3185,-5.3185,-5.3185,-5.3185,-5.3185,-5.3185,-5.3185,-5.3185,-5.3185,-5.3185,-5.3185,-5.3185,-5.3185,-5.3185,-5.3185,-5.3185,-5.3185,-5.3206,-5.3254,-5.3297,-5.323,-5.3254,-5.3277,-5.3227,-5.3185,-5.3185,-5.3185,-5.3185,-5.3206,-5.3133,-5.1922,-5.0784,-5.0749,-4.9463,-4.8363,-4.8476,-4.8494,-4.855,-4.8587,-4.8605,-4.866,-4.8787,-4.8804,-4.884,-4.8891,-4.8909,-4.8909,-4.8909,-4.8909,-4.8909,-4.8909,-4.8909,-4.8909,-4.8909,-4.8909,-4.8909,-4.8909,-4.8909,-4.8909,-4.8909,-4.8909,-4.8909,-4.8909,-4.8909,-4.8909,-4.8909,-4.8909,-4.8909,-4.0404,-4.0453,-4.0461,-4.0607,-4.0954,-4.1351,-4.1692,-4.199,-4.2422,-4.3224,-4.3327,-4.3766,-4.5265,-4.5913,-4.6431,-4.7045,-4.7158,-4.7492,-4.8383,-4.8617,-4.9101,-5.0222,-5.0504,-5.062,-5.062,-5.062,-5.062,-5.062,-5.0435,-5.0363,-5.0363,-5.0677,-5.095,-5.1144,-5.1974,-5.2495,-5.2717,-5.3039,-5.3185,-5.3185,-5.3185,-5.3185,-5.3185,-5.3185,-5.3185,-5.3185,-5.3185,-5.3185,-5.3185,-5.3185,-5.3185,-5.3185,-5.3185,-5.3185,-5.3185,-5.3185,-5.3185,-5.3185,-5.3185,-5.3185,-5.3185,-5.3185,-5.3227,-5.323,-5.3206,-5.3227,-5.323,-5.3206,-5.3185,-5.3185,-5.3185,-5.3185,-5.3057,-5.2564,-5.161,-5.0655,-5.016,-4.9132,-4.8306,-4.8363,-4.8438,-4.8513,-4.8532,-4.8569,-4.8624,-4.866,-4.8751,-4.8804,-4.8821,-4.8874,-4.8909,-4.8909,-4.8909,-4.8909,-4.8909,-4.8909,-4.8909,-4.8909,-4.8909,-4.8909,-4.8909,-4.8909,-4.8909,-4.8909,-4.8909,-4.8909,-4.8909,-4.8909,-4.8909,-4.8909,-4.8909,-4.8909,-4.0263,-4.0305,-4.033,-4.0461,-4.0558,-4.082,-4.1441,-4.1863,-4.2465,-4.3586,-4.3839,-4.4347,-4.6032,-4.6217,-4.6311,-4.7048,-4.689,-4.6915,-4.755,-4.774,-4.8111,-4.8923,-4.9177,-4.9286,-4.9286,-4.9286,-4.9286,-4.9286,-4.9097,-4.901,-4.901,-4.9345,-4.9634,-4.9785,-5.0938,-5.1593,-5.1777,-5.2372,-5.2783,-5.2934,-5.2934,-5.3039,-5.3185,-5.3185,-5.3185,-5.3185,-5.3185,-5.3185,-5.3185,-5.3185,-5.3185,-5.3185,-5.3185,-5.3185,-5.3185,-5.3185,-5.3185,-5.3185,-5.3185,-5.3185,-5.3185,-5.3185,-5.3185,-5.3185,-5.3185,-5.3185,-5.3185,-5.3185,-5.3185,-5.3185,-5.3185,-5.3185,-5.3078,-5.2509,-5.1573,-5.0655,-5.0086,-4.9095,-4.8306,-4.8306,-4.8382,-4.8438,-4.8438,-4.8458,-4.8532,-4.855,-4.8661,-4.8715,-4.8732,-4.8786,-4.882,-4.8856,-4.8891,-4.8909,-4.8909,-4.8909,-4.8909,-4.8909,-4.8909,-4.8909,-4.8909,-4.8909,-4.8909,-4.8909,-4.8909,-4.8909,-4.8909,-4.8909,-4.8909,-4.8909,-4.8909,-4.8909,-4.0263,-4.0305,-4.033,-4.0461,-4.051,-4.0739,-4.1616,-4.1894,-4.224,-4.3034,-4.4164,-4.5262,-4.6046,-4.6578,-4.6724,-4.6266,-4.6186,-4.6285,-4.6556,-4.6613,-4.6889,-4.7586,-4.7689,-4.7689,-4.7689,-4.7689,-4.7689,-4.7689,-4.7672,-4.77,-4.77,-4.77,-4.7939,-4.8468,-4.9205,-4.9835,-5.0388,-5.1191,-5.1848,-5.2384,-5.2384,-5.2694,-5.3185,-5.3185,-5.3185,-5.3185,-5.3185,-5.3185,-5.3185,-5.3185,-5.3185,-5.3185,-5.3185,-5.3185,-5.3185,-5.3185,-5.3185,-5.3185,-5.3185,-5.3185,-5.3185,-5.3185,-5.3185,-5.3185,-5.3185,-5.3185,-5.3185,-5.3185,-5.3185,-5.3185,-5.3185,-5.3185,-5.3185,-5.3185,-5.1977,-5.0802,-5.0802,-4.9481,-4.8306,-4.8306,-4.8306,-4.8306,-4.8306,-4.8306,-4.8343,-4.8476,-4.8513,-4.8532,-4.8587,-4.8605,-4.866,-4.8787,-4.8856,-4.8909,-4.8909,-4.8909,-4.8909,-4.8909,-4.8909,-4.8909,-4.8909,-4.8909,-4.8909,-4.8909,-4.8909,-4.8909,-4.8909,-4.8909,-4.8909,-4.8909,-4.8909,-4.8909,-4.0163,-4.0163,-4.0163,-4.0196,-4.0679,-4.1333,-4.2117,-4.2073,-4.2272,-4.3682,-4.4965,-4.5929,-4.6175,-4.6013,-4.5912,-4.6161,-4.5879,-4.5676,-4.5734,-4.6224,-4.6682,-4.6906,-4.7362,-4.7689,-4.7689,-4.7689,-4.7689,-4.7689,-4.7234,-4.6941,-4.6941,-4.6941,-4.7005,-4.7149,-4.8251,-4.9169,-4.9827,-5.0464,-5.1104,-5.1842,-5.1842,-5.2315,-5.3185,-5.3185,-5.3185,-5.3185,-5.3185,-5.3185,-5.3185,-5.3185,-5.3185,-5.3185,-5.3185,-5.3185,-5.3185,-5.3185,-5.3185,-5.3185,-5.3185,-5.3185,-5.3185,-5.3185,-5.3185,-5.3185,-5.3185,-5.3185,-5.3185,-5.3185,-5.3185,-5.3185,-5.3185,-5.3185,-5.3185,-5.3185,-5.1977,-5.0802,-5.0802,-4.9481,-4.8306,-4.8306,-4.8306,-4.8306,-4.8306,-4.8306,-4.8306,-4.8363,-4.8438,-4.8532,-4.8587,-4.8605,-4.866,-4.8787,-4.8822,-4.8839,-4.8891,-4.8909,-4.8909,-4.8909,-4.8909,-4.8909,-4.8909,-4.8909,-4.8909,-4.8909,-4.8909,-4.8909,-4.8909,-4.8909,-4.8909,-4.8909,-4.8909,-4.8909,-4.0096,-4.0096,-4.0096,-4.0096,-4.0722,-4.163,-4.2719,-4.3074,-4.346,-4.4518,-4.5337,-4.5879,-4.5879,-4.5615,-4.5502,-4.5829,-4.5615,-4.5397,-4.5397,-4.5811,-4.6104,-4.6104,-4.6517,-4.6776,-4.6776,-4.6776,-4.6776,-4.6776,-4.6362,-4.6104,-4.6104,-4.6104,-4.6104,-4.6104,-4.7186,-4.7963,-4.8389,-4.9311,-5.0108,-5.0809,-5.1128,-5.1725,-5.2563,-5.2783,-5.2995,-5.3185,-5.3185,-5.3185,-5.3185,-5.3185,-5.3185,-5.3185,-5.3185,-5.3185,-5.3185,-5.3185,-5.3185,-5.3185,-5.3185,-5.3185,-5.3185,-5.3185,-5.3185,-5.3185,-5.3185,-5.3185,-5.3185,-5.3185,-5.3185,-5.3185,-5.3185,-5.3185,-5.3185,-5.3185,-5.2215,-5.1187,-5.0875,-4.9756,-4.871,-4.8379,-4.8306,-4.8306,-4.8306,-4.8306,-4.8306,-4.8306,-4.8363,-4.8438,-4.8476,-4.8532,-4.8587,-4.8661,-4.8751,-4.8822,-4.8856,-4.8891,-4.8909,-4.8909,-4.8909,-4.8909,-4.8909,-4.8909,-4.8909,-4.8909,-4.8909,-4.8909,-4.8909,-4.8909,-4.8909,-4.8909,-4.8909,-4.8909,-4.0096,-4.0096,-4.0096,-4.0096,-4.0696,-4.1704,-4.3321,-4.4448,-4.5194,-4.5344,-4.5371,-4.5371,-4.5371,-4.5397,-4.5397,-4.5397,-4.5397,-4.5397,-4.5397,-4.5397,-4.5397,-4.5397,-4.5397,-4.5397,-4.5397,-4.5397,-4.5397,-4.5397,-4.5397,-4.5397,-4.5397,-4.5397,-4.5397,-4.5397,-4.6104,-4.6544,-4.6613,-4.7913,-4.89,-4.9547,-5.0266,-5.0947,-5.1569,-5.2132,-5.2676,-5.3185,-5.3185,-5.3185,-5.3185,-5.3185,-5.3185,-5.3185,-5.3185,-5.3185,-5.3185,-5.3185,-5.3185,-5.3185,-5.3185,-5.3185,-5.3185,-5.3185,-5.3185,-5.3185,-5.3185,-5.3185,-5.3185,-5.3185,-5.3185,-5.3185,-5.3185,-5.3185,-5.3185,-5.3185,-5.2582,-5.1775,-5.0967,-5.016,-4.9353,-4.8471,-4.8306,-4.8306,-4.8306,-4.8306,-4.8306,-4.8306,-4.8306,-4.8306,-4.8306,-4.8419,-4.8494,-4.8513,-4.8661,-4.8769,-4.8787,-4.8875,-4.8891,-4.8909,-4.8909,-4.8909,-4.8891,-4.8909,-4.8909,-4.8909,-4.8909,-4.8909,-4.8909,-4.8909,-4.8909,-4.8909,-4.8909,-4.8909,-4.0096,-4.0096,-4.0096,-4.0096,-4.1094,-4.2356,-4.344,-4.4303,-4.4913,-4.5059,-4.5167,-4.5247,-4.5247,-4.5344,-4.5397,-4.5397,-4.5397,-4.5397,-4.5397,-4.5397,-4.5397,-4.5397,-4.5397,-4.5397,-4.5397,-4.5397,-4.5397,-4.5397,-4.5397,-4.5397,-4.5397,-4.5397,-4.5397,-4.5397,-4.5569,-4.5949,-4.6596,-4.6924,-4.772,-4.8955,-4.9145,-4.9844,-5.0999,-5.1964,-5.2676,-5.3185,-5.3185,-5.3185,-5.3185,-5.3185,-5.3185,-5.3185,-5.3185,-5.3185,-5.3185,-5.3185,-5.3185,-5.3185,-5.3185,-5.3185,-5.3185,-5.3185,-5.3185,-5.3185,-5.3185,-5.3185,-5.3185,-5.3185,-5.3185,-5.3185,-5.3185,-5.3185,-5.3185,-5.3185,-5.2582,-5.1775,-5.0967,-5.016,-4.9353,-4.8471,-4.8306,-4.8306,-4.8306,-4.8306,-4.8306,-4.8306,-4.8306,-4.8306,-4.8306,-4.8343,-4.8382,-4.8494,-4.855,-4.8624,-4.8787,-4.8804,-4.8839,-4.8909,-4.8909,-4.8874,-4.8822,-4.8874,-4.8909,-4.8909,-4.8909,-4.8909,-4.8909,-4.8909,-4.8909,-4.8909,-4.8909,-4.8874,-4.0096,-4.0096,-4.018,-4.0527,-4.1457,-4.2516,-4.3349,-4.4166,-4.472,-4.4776,-4.5005,-4.5203,-4.5203,-4.53,-4.5397,-4.5397,-4.5397,-4.5397,-4.5397,-4.5397,-4.5397,-4.5397,-4.5397,-4.5371,-4.53,-4.53,-4.5291,-4.5211,-4.5264,-4.53,-4.53,-4.5371,-4.5397,-4.5397,-4.5397,-4.5604,-4.6017,-4.6424,-4.6993,-4.7741,-4.8448,-4.951,-5.083,-5.1626,-5.2315,-5.2806,-5.2806,-5.2955,-5.3185,-5.3185,-5.3185,-5.3185,-5.3185,-5.3185,-5.3185,-5.3185,-5.3185,-5.3185,-5.3185,-5.3185,-5.3185,-5.3185,-5.3185,-5.3185,-5.3185,-5.3185,-5.3185,-5.3185,-5.3185,-5.3185,-5.3185,-5.3185,-5.3185,-5.3185,-5.2894,-5.2252,-5.1059,-5.0472,-4.9793,-4.8545,-4.8306,-4.8306,-4.8306,-4.8306,-4.8306,-4.8306,-4.8306,-4.8306,-4.8306,-4.8306,-4.8343,-4.84,-4.8457,-4.8532,-4.8661,-4.8678,-4.8714,-4.875,-4.8767,-4.8732,-4.8715,-4.8732,-4.8767,-4.8767,-4.8767,-4.8767,-4.8767,-4.8767,-4.8767,-4.8767,-4.8767,-4.8935,-4.0096,-4.0096,-4.0248,-4.0849,-4.1559,-4.2303,-4.3047,-4.3826,-4.4418,-4.4581,-4.4886,-4.514,-4.515,-4.5291,-4.5371,-4.5397,-4.5397,-4.5397,-4.5397,-4.5397,-4.5397,-4.5397,-4.5397,-4.5344,-4.5203,-4.5203,-4.5123,-4.5005,-4.5096,-4.5194,-4.5203,-4.53,-4.5371,-4.5397,-4.5397,-4.5397,-4.5397,-4.6052,-4.6475,-4.6631,-4.7965,-4.9264,-5.0474,-5.0919,-5.1526,-5.2268,-5.2361,-5.2654,-5.306,-5.3164,-5.3185,-5.3185,-5.3185,-5.3185,-5.3185,-5.3185,-5.3185,-5.3185,-5.3185,-5.3185,-5.3185,-5.3185,-5.3185,-5.3185,-5.3185,-5.3185,-5.3185,-5.3185,-5.3185,-5.3185,-5.3185,-5.3185,-5.3185,-5.3185,-5.3185,-5.2766,-5.1151,-5.0802,-5.0306,-4.8636,-4.8306,-4.8306,-4.8306,-4.8306,-4.8306,-4.8306,-4.8306,-4.8306,-4.8306,-4.8306,-4.8306,-4.8306,-4.8401,-4.8476,-4.8513,-4.855,-4.8605,-4.8605,-4.8605,-4.8587,-4.8569,-4.8587,-4.8587,-4.855,-4.8587,-4.8605,-4.8605,-4.8605,-4.8605,-4.8605,-4.8735,-4.9159,-4.0096,-4.0096,-4.013,-4.0231,-4.0798,-4.1542,-4.2269,-4.3031,-4.3775,-4.4479,-4.4737,-4.4886,-4.5005,-4.514,-4.5274,-4.5371,-4.5397,-4.5397,-4.5397,-4.5397,-4.5397,-4.5397,-4.5397,-4.5344,-4.5203,-4.5203,-4.5123,-4.5005,-4.5005,-4.5086,-4.5177,-4.522,-4.5274,-4.5397,-4.5397,-4.5397,-4.5397,-4.55,-4.5897,-4.6613,-4.7458,-4.828,-4.9072,-4.9156,-5.01,-5.1725,-5.2203,-5.2431,-5.254,-5.3017,-5.3185,-5.3185,-5.3185,-5.3185,-5.3185,-5.3185,-5.3185,-5.3185,-5.3185,-5.3185,-5.3185,-5.3185,-5.3185,-5.3185,-5.3185,-5.3185,-5.3185,-5.3185,-5.3185,-5.3185,-5.3185,-5.3185,-5.3185,-5.3185,-5.3185,-5.2766,-5.1151,-5.0802,-5.0306,-4.8636,-4.8306,-4.8306,-4.8306,-4.8306,-4.8306,-4.8306,-4.8306,-4.8306,-4.8306,-4.8306,-4.8306,-4.8306,-4.8306,-4.8382,-4.8494,-4.8513,-4.8532,-4.8587,-4.8605,-4.8569,-4.8513,-4.8513,-4.8457,-4.8344,-4.8514,-4.8605,-4.8605,-4.8605,-4.8605,-4.8624,-4.9326,-4.9676,-4.0096,-4.0096,-4.0096,-4.0096,-4.0646,-4.1288,-4.161,-4.2252,-4.2878,-4.3234,-4.3356,-4.3702,-4.4688,-4.5005,-4.5113,-4.5184,-4.5184,-4.5184,-4.5184,-4.5184,-4.5184,-4.5184,-4.5184,-4.5113,-4.4978,-4.4995,-4.4913,-4.4793,-4.4858,-4.4968,-4.5086,-4.515,-4.5274,-4.5397,-4.5397,-4.5397,-4.5397,-4.5397,-4.5793,-4.6613,-4.6941,-4.7476,-4.8189,-4.8603,-4.9649,-5.1158,-5.1416,-5.1676,-5.1988,-5.254,-5.2761,-5.2783,-5.3082,-5.3185,-5.3185,-5.3185,-5.3185,-5.3185,-5.3185,-5.3185,-5.3185,-5.3185,-5.3185,-5.3185,-5.3185,-5.3185,-5.3185,-5.3185,-5.3185,-5.3185,-5.3185,-5.3185,-5.3185,-5.3185,-5.3185,-5.2766,-5.1151,-5.0802,-5.0306,-4.8636,-4.8306,-4.8306,-4.8306,-4.8306,-4.8306,-4.8306,-4.8306,-4.8306,-4.8306,-4.8306,-4.8306,-4.8306,-4.8306,-4.8325,-4.8382,-4.8382,-4.8401,-4.8439,-4.842,-4.842,-4.8382,-4.8382,-4.8363,-4.8306,-4.8401,-4.842,-4.842,-4.842,-4.8678,-4.9176,-4.9488,-5.0131,-4.0096,-4.0096,-4.0096,-4.0096,-4.0493,-4.0967,-4.117,-4.1627,-4.2066,-4.2252,-4.2286,-4.2695,-4.3939,-4.4433,-4.4746,-4.4944,-4.5005,-4.5005,-4.5005,-4.5005,-4.5005,-4.5005,-4.5005,-4.4968,-4.4803,-4.4803,-4.472,-4.4598,-4.4709,-4.4803,-4.4923,-4.5086,-4.522,-4.5327,-4.5371,-4.5397,-4.5397,-4.5397,-4.569,-4.632,-4.632,-4.6672,-4.7458,-4.8172,-4.9167,-5.0305,-5.0634,-5.1044,-5.1442,-5.1988,-5.2197,-5.2244,-5.2649,-5.289,-5.2995,-5.2995,-5.3082,-5.3185,-5.3185,-5.3185,-5.3185,-5.3185,-5.3185,-5.3185,-5.3185,-5.3185,-5.3185,-5.3185,-5.3185,-5.3185,-5.3185,-5.3185,-5.3185,-5.3185,-5.3041,-5.2509,-5.1096,-5.0472,-4.9793,-4.8545,-4.8306,-4.8306,-4.8306,-4.8306,-4.8306,-4.8306,-4.8306,-4.8306,-4.8306,-4.8306,-4.8306,-4.8306,-4.8306,-4.8306,-4.8306,-4.8306,-4.8306,-4.8306,-4.8306,-4.8306,-4.8306,-4.8306,-4.8306,-4.8306,-4.8526,-4.8526,-4.8306,-4.8526,-4.8948,-4.961,-4.9958,-5.0802,-4.0096,-4.0096,-4.0096,-4.0096,-4.013,-4.035,-4.1035,-4.1238,-4.1457,-4.2151,-4.2286,-4.232,-4.2414,-4.3148,-4.4058,-4.4875,-4.5005,-4.5005,-4.5005,-4.5005,-4.5005,-4.5005,-4.5005,-4.4968,-4.4803,-4.4803,-4.472,-4.4598,-4.4615,-4.4682,-4.4803,-4.4923,-4.5059,-4.522,-4.5327,-4.5397,-4.5397,-4.5397,-4.5414,-4.5466,-4.5466,-4.588,-4.6682,-4.7414,-4.8183,-4.8964,-5.026,-5.0803,-5.0884,-5.1398,-5.1626,-5.1626,-5.1651,-5.1988,-5.2431,-5.2431,-5.2761,-5.3185,-5.3185,-5.3185,-5.3185,-5.3185,-5.3185,-5.3185,-5.3185,-5.3185,-5.3185,-5.3185,-5.3185,-5.3185,-5.3185,-5.3185,-5.3185,-5.3185,-5.2619,-5.183,-5.0986,-4.9554,-4.8416,-4.8324,-4.8306,-4.8306,-4.8306,-4.8306,-4.8306,-4.8306,-4.8306,-4.8306,-4.8306,-4.8306,-4.8306,-4.8306,-4.8306,-4.8306,-4.8306,-4.8306,-4.8306,-4.8306,-4.8306,-4.8306,-4.8306,-4.8306,-4.8306,-4.8306,-4.9095,-4.9133,-4.8306,-4.9132,-4.9555,-4.9647,-5.1151,-5.1903,-4.0096,-4.0096,-4.0096,-4.0096,-4.0096,-4.018,-4.0434,-4.0476,-4.0587,-4.084,-4.0891,-4.1018,-4.1508,-4.2255,-4.2901,-4.3209,-4.326,-4.326,-4.326,-4.326,-4.326,-4.326,-4.326,-4.326,-4.3206,-4.3206,-4.3179,-4.3142,-4.3555,-4.3898,-4.4079,-4.4575,-4.4923,-4.5059,-4.5113,-4.5167,-4.5274,-4.5371,-4.5397,-4.5397,-4.5397,-4.5552,-4.5845,-4.6648,-4.7407,-4.8148,-4.9115,-4.9805,-5.0331,-5.0857,-5.1096,-5.1105,-5.1467,-5.1719,-5.1891,-5.1891,-5.2012,-5.2203,-5.2563,-5.2694,-5.2739,-5.3082,-5.3185,-5.3185,-5.3185,-5.3185,-5.3185,-5.3185,-5.3185,-5.3185,-5.3185,-5.3185,-5.3057,-5.2546,-5.1811,-5.1004,-5.0196,-4.9114,-4.8306,-4.8306,-4.8306,-4.8306,-4.8306,-4.8306,-4.8306,-4.8306,-4.8306,-4.8306,-4.8306,-4.8306,-4.8306,-4.8306,-4.8306,-4.8306,-4.8306,-4.8306,-4.8306,-4.8306,-4.8306,-4.8306,-4.8306,-4.8306,-4.8563,-4.9114,-4.9389,-4.9389,-4.9132,-4.9958,-5.0637,-5.1153,-5.172,-5.227,-4.0096,0.0,0.0,-4.0096,-4.0096,-4.0096,-4.0096,-4.0096,-4.0096,-4.0096,-4.0096,-4.0265,-4.073,-4.1221,-4.1711,-4.2202,-4.2286,-4.2286,-4.2286,-4.2286,-4.2286,-4.2286,-4.2286,-4.2286,-4.2286,-4.2286,-4.2286,-4.2286,-4.276,-4.3075,-4.3199,-4.4011,-4.4603,-4.5005,-4.5032,-4.5113,-4.5203,-4.5327,-4.5397,-4.5397,-4.5397,-4.5397,-4.5432,-4.6224,-4.6889,-4.7407,-4.8361,-4.924,-5.004,-5.0369,-5.0537,-5.0564,-5.0937,-5.1184,-5.1339,-5.1339,-5.1442,-5.1669,-5.2012,-5.2132,-5.2179,-5.254,-5.2783,-5.2934,-5.2934,-5.306,-5.3185,-5.3185,-5.3185,-5.3185,-5.3185,-5.3185,-5.2931,-5.1848,-5.1187,-5.0508,-4.9389,-4.871,-4.8306,-4.8306,-4.8306,-4.8306,-4.8306,-4.8306,-4.8306,-4.8306,-4.8306,-4.8306,-4.8306,-4.8306,-4.8306,-4.8306,-4.8306,-4.8306,-4.8306,-4.8306,-4.8306,-4.8306,-4.8306,-4.8306,-4.8306,-4.8581,-4.9003,-4.9592,-5.0106,-5.0343,-5.0418,-5.093,-5.1481,-5.1995,-5.227,-5.2692,0.0,0.0,0.0,-4.0096,-4.0096,-4.0096,-4.0096,-4.0096,-4.0096,-4.0096,-4.0096,-4.0096,-4.0096,-4.0096,-4.057,-4.1982,-4.2236,-4.2236,-4.2236,-4.2236,-4.2236,-4.2236,-4.2236,-4.2236,-4.2236,-4.2236,-4.2236,-4.2236,-4.2252,-4.2252,-4.2252,-4.3148,-4.4075,-4.4927,-4.5079,-4.5159,-4.5177,-4.5344,-4.5397,-4.5397,-4.5397,-4.5397,-4.5432,-4.6217,-4.6596,-4.6682,-4.8103,-4.9189,-4.9976,-4.9993,-5.0011,-5.0011,-5.0011,-5.0331,-5.0793,-5.0793,-5.1105,-5.1569,-5.1569,-5.1594,-5.1594,-5.1576,-5.1964,-5.2384,-5.2384,-5.2739,-5.3164,-5.3164,-5.3185,-5.3185,-5.3185,-5.3185,-5.2782,-5.1187,-5.0802,-5.0343,-4.8673,-4.8306,-4.8306,-4.8306,-4.8306,-4.8306,-4.8306,-4.8306,-4.8306,-4.8306,-4.8306,-4.8306,-4.8306,-4.8306,-4.8306,-4.8306,-4.8306,-4.8306,-4.8306,-4.8306,-4.8306,-4.8306,-4.8306,-4.8324,-4.8343,-4.9132,-4.9629,-4.9665,-5.1208,-5.1995,-5.2032,-5.2032,-5.2032,-5.205,-5.2839,-5.3185,-3.9566,0.0,0.0,0.0,0.0,0.0,-4.0096,-4.0096,-4.0096,-4.0096,-4.0096,-4.0096,-4.0096,-4.0096,-4.0231,-4.0654,-4.0722,-4.0722,-4.0722,-4.0722,-4.0722,-4.0722,-4.0722,-4.0722,-4.0722,-4.0722,-4.0722,0.0,-4.1187,-4.1508,-4.1508,-4.2272,-4.3044,-4.3817,-4.4014,-4.4367,-4.4913,-4.514,-4.5247,-4.5247,-4.5371,-4.5397,-4.5414,-4.5621,-4.6035,-4.6631,-4.7017,-4.7931,-4.9172,-4.9769,-5.0011,-5.0011,-5.0011,-5.008,-5.0235,-5.0235,-5.0302,-5.0509,-5.0884,-5.1026,-5.1096,-5.1475,-5.1701,-5.1799,-5.1799,-5.1939,-5.2132,-5.2518,-5.2608,-5.2717,-5.31,-5.3185,-5.2782,-5.1187,-5.0802,-5.0343,-4.8673,-4.8306,-4.8306,-4.8306,-4.8306,-4.8306,-4.8306,-4.8306,-4.8306,-4.8306,-4.8306,-4.8306,-4.8306,-4.8306,-4.8306,-4.8306,-4.8306,-4.8306,-4.8306,-4.8306,-4.8306,-4.8306,-4.8306,-4.8563,-4.9132,-4.9463,-5.0161,-5.1318,-5.1777,-5.2289,-5.2876,-5.2876,-5.2876,-5.2876,-5.3093,-5.3185,0.0,0.0,0.0,-4.0096,0.0,0.0,-4.0096,-4.0096,-4.0096,-4.0096,-4.0096,-4.0096,-4.0096,-4.0096,-4.0096,-4.0096,-4.0096,-4.0096,-4.0096,-4.0096,-4.0096,-4.0096,-4.0096,-4.0096,-4.0096,-4.0096,-4.0096,-4.0096,-4.0519,-4.0882,-4.1187,-4.161,-4.2185,-4.2929,-4.342,-4.3919,-4.4426,-4.4932,-4.5247,-4.5274,-4.5371,-4.5397,-4.5397,-4.5397,-4.5656,-4.6104,-4.6458,-4.7096,-4.7931,-4.8734,-4.9424,-5.0011,-5.0011,-5.0011,-5.0011,-5.0011,-5.0011,-5.0051,-5.0359,-5.0453,-5.0509,-5.083,-5.1079,-5.1262,-5.1262,-5.1398,-5.1669,-5.1988,-5.206,-5.2132,-5.2454,-5.2268,-5.1773,-5.0727,-5.0059,-4.9377,-4.8249,-4.7836,-4.7816,-4.821,-4.8306,-4.8306,-4.8306,-4.8306,-4.8306,-4.8306,-4.8306,-4.8306,-4.8306,-4.8306,-4.8306,-4.8306,-4.8306,-4.8306,-4.8306,-4.8306,-4.8306,-4.8306,-4.8636,-4.8943,-4.9145,-4.9896,-5.0593,-5.1306,-5.1887,-5.252,-5.3185,-5.3185,-5.3185,-5.3185,-5.3185,-5.3185,0.0,0.0,0.0,0.0,-3.9901,0.0,-3.9995,-3.9995,-4.002,-4.007,-4.0096,-4.0096,-4.0096,-4.0096,-4.0096,-4.0096,-4.0096,-4.0096,-4.0096,-4.0096,-4.0096,-4.0096,-4.0096,-4.0096,-4.0096,-4.0096,-4.0096,-4.0096,-4.0096,-4.04,-4.1035,-4.1085,-4.1424,-4.2151,-4.2996,-4.3571,-4.3858,-4.4651,-4.5161,-4.5344,-4.5397,-4.5397,-4.5397,-4.5397,-4.5397,-4.5432,-4.6155,-4.6527,-4.6665,-4.7293,-4.8441,-4.9752,-4.9838,-4.9873,-4.989,-4.9976,-5.0011,-5.0011,-5.0011,-5.0011,-5.0011,-5.0011,-5.0331,-5.0712,-5.0712,-5.1026,-5.1424,-5.1475,-5.1551,-5.1601,-5.1601,-5.0994,-5.0312,-4.9997,-4.8982,-4.7997,-4.7605,-4.7204,-4.7156,-4.7975,-4.8132,-4.8132,-4.8132,-4.8191,-4.821,-4.821,-4.8267,-4.8306,-4.8306,-4.8306,-4.8306,-4.8306,-4.8306,-4.8306,-4.8306,-4.8306,-4.8343,-4.8434,-4.9169,-4.9409,-4.8981,-5.0411,-5.0978,-5.0548,-5.17,-5.254,-5.3017,-5.3017,-5.3082,-5.3185,-5.3143,-5.3143,0.0,0.0,0.0,0.0,-3.864,0.0,-3.9242,-3.9365,-3.9497,-3.9995,-4.0096,-4.0096,-4.0096,-4.0096,-4.0096,-4.0096,-4.0096,-4.0096,-4.0096,-4.0096,-4.0096,-4.0096,-4.0096,-4.0096,-4.0096,-4.0096,-4.0096,-4.0096,-4.0096,-4.0163,-4.0316,-4.0316,-4.0646,-4.139,-4.1585,-4.2272,-4.3501,-4.3924,-4.4477,-4.5086,-4.5291,-4.5397,-4.5397,-4.5397,-4.5397,-4.5414,-4.5569,-4.5983,-4.6613,-4.6769,-4.7355,-4.8189,-4.8792,-4.9016,-4.9103,-4.9769,-5.0011,-5.0011,-5.0011,-5.0011,-5.0011,-5.0011,-5.008,-5.0166,-5.0166,-5.0235,-5.0415,-5.083,-5.1262,-5.1601,-5.1601,-5.0994,-5.024,-4.9526,-4.8715,-4.7906,-4.7205,-4.6959,-4.6954,-4.7156,-4.716,-4.716,-4.716,-4.7485,-4.7754,-4.7754,-4.8055,-4.8306,-4.8306,-4.8306,-4.8306,-4.8306,-4.8306,-4.8306,-4.8306,-4.8306,-4.86,-4.9317,-4.9519,-4.9941,-5.0669,-5.1031,-5.1254,-5.1369,-5.1629,-5.1817,-5.1915,-5.1915,-5.2361,-5.3185,-5.2761,-5.2783,0.0,0.0,0.0,-3.8306,-3.8306,0.0,0.0,-3.8974,-3.9286,-3.9592,-3.9893,-4.0096,-4.0096,-4.0096,-4.0096,-4.0096,-4.0096,-4.0096,-4.0096,-4.0096,-4.0096,-4.0096,-4.0096,-4.0096,-4.0096,-4.0096,-4.0096,-4.0096,-4.0096,-4.0096,-4.0096,-4.0096,-4.0282,-4.0629,-4.1018,-4.1754,-4.2935,-4.3574,-4.4297,-4.5113,-4.53,-4.5397,-4.5397,-4.5397,-4.5397,-4.5397,-4.5397,-4.5621,-4.5983,-4.5983,-4.6207,-4.6655,-4.781,-4.8241,-4.8293,-4.8689,-4.8855,-4.8924,-4.9286,-4.9407,-4.9476,-4.9873,-5.0011,-5.0011,-5.0011,-5.0011,-5.0051,-5.0331,-5.0575,-5.0715,-5.0311,-4.9627,-4.8914,-4.8399,-4.7474,-4.6724,-4.6578,-4.6321,-4.6144,-4.6144,-4.6144,-4.6297,-4.6817,-4.7111,-4.7248,-4.7248,-4.7442,-4.7609,-4.7609,-4.7609,-4.7609,-4.7609,-4.7609,-4.7692,-4.7935,-4.8058,-4.8577,-4.9534,-4.9859,-5.0227,-5.0789,-5.0921,-5.1058,-5.121,-5.0937,-5.1052,-5.1601,-5.1052,-5.1347,-5.2384,-5.2132,-5.2132,0.0,0.0,0.0,0.0,0.0,-3.7982,0.0,0.0,0.0,-3.9001,-3.9418,-3.9731,-3.9731,-3.985,-3.9842,-3.9614,-3.9868,-3.9995,-3.9767,-3.9961,0.0,-4.0096,-4.0096,-4.0096,-4.0096,-4.0096,-4.0096,-4.0096,-4.0096,-4.0096,-4.0096,-4.0096,-4.0096,-4.0096,-4.0679,-4.1391,-4.2234,-4.3165,-4.4048,-4.4917,-4.5222,-4.5371,-4.5371,-4.5397,-4.5397,-4.5397,-4.5397,-4.5397,-4.5397,-4.5397,-4.5397,-4.5535,-4.6931,-4.751,-4.7527,-4.7638,-4.7689,-4.7775,-4.8379,-4.8586,-4.8689,-4.9355,-4.9666,-4.9804,-4.9959,-5.0011,-5.0011,-5.0011,-4.989,-4.9631,-4.8965,-4.8137,-4.743,-4.7221,-4.6257,-4.5528,-4.5955,-4.5718,-4.5397,-4.5397,-4.5397,-4.5649,-4.6465,-4.6701,-4.6771,-4.6771,-4.684,-4.6908,-4.6908,-4.6908,-4.6908,-4.6908,-4.6908,-4.7049,-4.7442,-4.7792,-4.8443,-4.9455,-5.0063,-5.0421,-5.0464,-5.0603,-5.063,-5.063,-5.0235,-5.0443,-5.1288,-5.0425,-5.0564,-5.1594,-5.1475,-5.15,0.0,0.0,0.0,0.0,-3.6708,0.0,-3.7387,0.0,-3.7754,-3.8294,0.0,-3.8502,-3.8502,0.0,0.0,-3.7807,-3.9011,-3.9708,-3.8578,-3.9396,-4.0096,-4.0096,-4.0096,-4.0096,-4.0096,-4.0096,-4.0096,-4.0096,-4.0096,-4.0096,-4.0096,-4.0096,-4.0096,-4.0096,-4.018,-4.0603,-4.1348,-4.2234,-4.3078,-4.3878,-4.4805,-4.522,-4.5247,-4.5344,-4.5397,-4.5397,-4.5397,-4.5397,-4.5397,-4.5397,-4.5397,-4.5483,-4.6389,-4.6734,-4.6803,-4.7448,-4.7689,-4.7707,-4.7793,-4.781,-4.7827,-4.7913,-4.8396,-4.9051,-4.9786,-5.0011,-5.0011,-5.0011,-4.9493,-4.8913,-4.881,-4.7758,-4.6717,-4.6694,-4.6019,-4.5423,-4.5476,-4.545,-4.5397,-4.5397,-4.5397,-4.545,-4.5537,-4.5963,-4.6284,-4.6284,-4.6631,-4.6908,-4.6908,-4.6908,-4.6908,-4.6908,-4.6908,-4.6931,-4.6959,-4.7604,-4.8359,-4.9197,-4.9972,-5.052,-5.0735,-5.0335,-5.008,-5.008,-5.0022,-5.0051,-5.0178,-5.0051,-5.0564,-5.1594,-5.1105,-5.1158,0.0,0.0,0.0,0.0,0.0,0.0,-3.6816,0.0,-3.746,0.0,0.0,0.0,0.0,0.0,0.0,0.0,-3.8543,-3.8885,-3.833,-3.8706,-3.9322,-4.002,-4.0096,0.0,-4.0096,-4.0096,-4.0096,-4.0096,-4.0096,-4.0096,-4.0096,-4.0096,-4.0096,-4.0096,-4.0096,-4.0443,-4.1204,-4.2072,-4.2915,-4.3705,-4.4727,-4.5203,-4.5203,-4.5344,-4.5397,-4.5397,-4.53,-4.5344,-4.5397,-4.5318,-4.5344,-4.5432,-4.5759,-4.5897,-4.5931,-4.6242,-4.6362,-4.6431,-4.6879,-4.7079,-4.7148,-4.7579,-4.7896,-4.8206,-4.8579,-4.8683,-4.8683,-4.8683,-4.8413,-4.8051,-4.762,-4.7079,-4.6493,-4.6,-4.5638,-4.5397,-4.5397,-4.5397,-4.5397,-4.5397,-4.5397,-4.5397,-4.5397,-4.5589,-4.5744,-4.5744,-4.5912,-4.602,-4.602,-4.602,-4.602,-4.602,-4.602,-4.6144,-4.6483,-4.7317,-4.8201,-4.9126,-5.0107,-5.0532,-5.0341,-5.0138,-5.0011,-5.0011,-5.0011,-5.0011,-5.0011,-5.0011,-5.0235,-5.0657,-5.0425,-5.0453,-3.6414,0.0,0.0,0.0,0.0,0.0,0.0,0.0,0.0,0.0,0.0,0.0,0.0,0.0,0.0,0.0,0.0,-3.8185,-3.7838,-3.808,-3.8684,-3.9722,-3.9995,0.0,0.0,-3.9995,-4.0096,-4.0096,-4.0096,-4.0096,-4.0096,-4.0096,-4.0096,-4.0096,-4.0096,-4.0367,-4.0882,-4.1714,-4.253,-4.3328,-4.4329,-4.4881,-4.5113,-4.5264,-4.5344,-4.5344,-4.5274,-4.53,-4.5397,-4.5247,-4.5274,-4.5397,-4.5371,-4.5371,-4.5397,-4.5397,-4.5397,-4.5483,-4.6052,-4.6259,-4.6406,-4.7165,-4.7396,-4.7431,-4.762,-4.7689,-4.7689,-4.7689,-4.7534,-4.7286,-4.6751,-4.6458,-4.6104,-4.5535,-4.5397,-4.5397,-4.5397,-4.5397,-4.5397,-4.5397,-4.5397,-4.5397,-4.5397,-4.5397,-4.5397,-4.5397,-4.5397,-4.5397,-4.5397,-4.5397,-4.5397,-4.5397,-4.5397,-4.5563,-4.5955,-4.7036,-4.8194,-4.9356,-5.0144,-5.0415,-5.004,-5.0011,-5.0011,-5.0011,-5.0011,-5.0011,-5.0011,-5.0011,-5.0011,-5.0011,-5.0011,-5.0011,0.0,0.0,0.0,-3.6274,0.0,0.0,0.0,0.0,-3.6523,0.0,0.0,0.0,0.0,0.0,0.0,0.0,0.0,0.0,0.0,-3.7536,-3.8546,-3.9135,-3.9747,-3.9867,0.0,-3.9747,-4.0096,-4.0096,-4.0096,-4.0096,-4.0096,-4.0096,-4.0096,-4.0096,-4.0096,-4.0113,-4.0146,-4.0865,-4.161,-4.2364,-4.3294,-4.4123,-4.4831,-4.5086,-4.522,-4.5203,-4.5344,-4.5397,-4.5397,-4.5247,-4.5274,-4.5397,-4.5274,-4.5274,-4.5397,-4.5397,-4.5397,-4.5397,-4.5432,-4.5432,-4.5569,-4.6362,-4.6648,-4.6786,-4.7465,-4.7689,-4.7689,-4.7689,-4.72,-4.6648,-4.6613,-4.6017,-4.5432,-4.5414,-4.5397,-4.5397,-4.5397,-4.5397,-4.5397,-4.5397,-4.5397,-4.5397,-4.5397,-4.5397,-4.5397,-4.5397,-4.5397,-4.5397,-4.5397,-4.5397,-4.5397,-4.5397,-4.5397,-4.5397,-4.5423,-4.6837,-4.8355,-4.9896,-5.0005,-5.004,-5.0011,-5.0011,-5.0011,-5.0011,-5.0011,-5.0011,-5.0011,-5.0011,-5.0011,-5.0011,-5.0011,-5.0011,0.0,0.0,-3.6492,-3.6414,0.0,0.0,0.0,0.0,0.0,0.0,0.0,0.0,0.0,0.0,0.0,0.0,0.0,0.0,0.0,-3.717,-3.7621,-3.7431,-3.8657,-3.9418,0.0,-3.9747,-4.0096,-4.0096,-4.0096,-4.0096,-4.0096,-4.0096,-4.0096,-4.0096,-4.0096,-4.0096,-4.0096,-4.0832,-4.1576,-4.2303,-4.326,-4.4106,-4.4803,-4.4978,-4.5113,-4.5194,-4.514,-4.5194,-4.5274,-4.522,-4.5247,-4.5274,-4.5318,-4.5371,-4.5397,-4.5397,-4.5397,-4.5397,-4.5397,-4.5397,-4.5432,-4.5707,-4.5793,-4.5845,-4.6086,-4.6173,-4.6173,-4.6173,-4.6,-4.5793,-4.5793,-4.5604,-4.5397,-4.5397,-4.5397,-4.5397,-4.5397,-4.5397,-4.5397,-4.5397,-4.5397,-4.5397,-4.5397,-4.5397,-4.5397,-4.5397,-4.5397,-4.5397,-4.5397,-4.5397,-4.5397,-4.5397,-4.5397,-4.5397,-4.5397,-4.681,-4.8372,-4.9907,-5.0011,-5.0011,-5.0011,-5.0011,-4.9935,-4.9813,-4.9813,-4.9813,-4.9784,-4.9696,-4.9696,-4.9784,-4.9713,-4.9742,-3.6196,-3.6274,0.0,-3.6383,-3.646,0.0,-3.6492,0.0,-3.6492,0.0,0.0,0.0,0.0,0.0,0.0,0.0,0.0,0.0,0.0,-3.6831,-3.6922,-3.6554,-3.7911,-3.8892,-3.8892,-3.9242,-3.9627,-4.007,-3.9918,-3.9876,-4.007,-4.0096,-4.0096,-4.0096,-4.0096,-4.0096,-4.0096,-4.0561,-4.1305,-4.2303,-4.2918,-4.3752,-4.472,-4.4886,-4.4995,-4.5059,-4.5059,-4.5086,-4.5123,-4.5177,-4.5203,-4.522,-4.53,-4.5371,-4.5397,-4.5397,-4.5397,-4.5397,-4.5397,-4.5397,-4.5397,-4.5397,-4.5397,-4.5397,-4.5397,-4.5397,-4.5345,-4.5096,-4.519,-4.5328,-4.5096,-4.519,-4.5397,-4.5397,-4.5397,-4.5397,-4.5397,-4.5397,-4.5483,-4.5759,-4.5828,-4.5897,-4.6173,-4.6207,-4.6035,-4.5483,-4.5397,-4.5397,-4.5397,-4.5397,-4.5397,-4.5397,-4.5397,-4.5621,-4.6173,-4.7362,-4.862,-4.982,-4.9889,-4.986,-4.9801,-4.9801,-4.9652,-4.9242,-4.9499,-4.9499,-4.9242,-4.9411,-4.953,-4.9619,-4.9547,-4.95]},{"header":{"parameterUnit":"m.s-1","parameterCategory":1,"la1":30.6,"la2":29.2853,"lo1":-89.7004,"lo2":-87.6739,"dy":0.0162,"dx":0.0183,"nx":112,"ny":82,"refTime":"2023-11-04T18:00:00:Z","depth":0,"parameterNumber":3,"parameterNumberName":"V-component_of_WINDS"},"data":[0.0,0.0,0.0,0.0,0.0,0.0,0.0,0.0,0.0,0.0,0.0,0.0,0.0,0.0,0.0,0.0,0.0,0.0,0.0,0.0,0.0,0.0,0.0,0.0,0.0,0.0,0.0,0.0,0.0,0.0,0.0,0.0,0.0,0.0,0.0,0.0,0.0,0.0,0.0,0.0,0.0,0.0,0.0,0.0,0.0,0.0,0.0,0.0,0.0,0.0,0.0,0.0,0.0,0.0,0.0,0.0,0.0,0.0,0.0,0.0,0.0,0.0,0.0,0.0,0.0,0.0,0.0,0.0,0.0,0.0,0.0,0.0,0.0,0.0,0.0,0.0,0.0,0.0,0.0,0.0,0.0,0.0,0.0,0.0,0.0,0.0,0.0,0.0,0.0,0.0,0.63,0.63,0.63,0.63,0.63,0.63,0.63,0.63,0.0,0.0,0.0,0.0,0.0,0.0,0.0,0.0,0.0,0.0,0.0,0.0,0.0,0.0,0.0,0.0,0.0,0.0,0.0,0.0,0.0,0.0,0.0,0.0,0.0,0.0,0.0,0.0,0.0,0.0,0.0,0.0,0.0,0.0,0.0,0.0,0.0,0.0,0.0,0.0,0.0,0.0,0.0,0.0,0.0,0.0,0.0,0.0,0.0,0.0,0.0,0.0,0.0,0.0,0.0,0.0,0.0,0.0,0.0,0.0,0.0,0.0,0.0,0.0,0.0,0.0,0.0,0.0,0.0,0.0,0.0,0.0,0.0,0.0,0.0,0.0,0.0,0.0,0.0,0.0,0.0,0.0,0.0,0.0,0.0,0.0,0.0,0.0,0.0,0.0,0.0,0.0,0.0,0.0,0.0,0.0,0.0,0.0,0.0,0.0,0.0,0.0,0.0,0.0,0.63,0.63,0.63,0.63,0.63,0.63,0.63,0.63,0.0,0.0,0.0,0.0,0.0,0.0,0.0,0.0,0.0,0.0,0.0,0.0,0.0,0.0,0.0,0.0,0.0,0.0,0.0,0.0,0.0,0.0,0.0,0.0,0.0,0.0,0.0,0.0,0.0,0.0,0.0,0.0,0.0,0.0,0.0,0.0,0.0,0.0,0.0,0.0,0.0,0.0,0.0,0.0,0.0,0.0,0.0,0.0,0.0,0.0,0.0,0.0,0.0,0.0,0.0,0.0,0.0,0.0,0.0,0.0,0.0,0.0,0.0,0.0,0.0,0.0,0.0,0.0,0.0,0.0,0.0,0.0,0.0,0.0,0.0,0.0,0.0,0.0,0.0,0.0,0.0,0.0,0.0,0.0,0.0,0.0,0.0,0.0,0.0,0.0,0.0,0.0,0.0,0.0,0.0,0.0,0.0,0.0,0.0,0.0,0.0,0.0,0.0,0.6141,0.63,0.63,0.63,0.63,0.63,0.63,0.63,0.63,0.63,0.0,0.0,0.0,0.0,0.0,0.0,0.0,0.0,0.0,0.0,0.0,0.0,0.0,0.0,0.0,0.0,0.0,0.0,0.0,0.0,0.0,0.0,0.0,0.0,0.0,0.0,0.0,0.0,0.0,0.0,0.0,0.0,0.0,0.0,0.0,0.0,0.0,0.0,0.0,0.0,0.0,0.0,0.0,0.0,0.0,0.0,0.0,0.0,0.0,0.0,0.0,0.0,0.0,0.0,0.0,0.0,0.0,0.0,0.0,0.0,0.0,0.0,0.0,0.0,0.0,0.0,0.0,0.0,0.0,0.0,0.0,0.0,0.0,0.0,0.0,0.0,0.0,0.0,0.0,0.0,0.0,0.0,0.0,0.0,0.0,0.0,0.0,0.0,0.0,0.0,0.0,0.0,0.0,0.0,0.0,0.0,0.0,0.0,0.0,0.0,0.0,0.0,0.618,0.63,0.63,0.63,0.63,0.63,0.63,0.63,0.63,0.63,0.0,0.0,0.0,0.0,0.0,0.0,0.0,0.0,0.0,0.0,0.0,0.0,0.0,0.0,0.0,0.0,0.0,0.0,0.0,0.0,0.0,0.0,0.0,0.0,0.0,0.0,0.0,0.0,0.0,0.0,0.0,0.0,0.0,0.0,0.0,0.0,0.0,0.0,0.0,0.0,0.0,0.0,0.0,0.0,0.0,0.0,0.0,0.0,0.0,0.0,0.0,0.0,0.0,0.0,0.0,0.0,0.0,0.0,0.0,0.0,0.0,0.0,0.0,0.0,0.0,0.0,0.0,0.0,0.0,0.0,0.0,0.0,0.0,0.0,0.0,0.0,0.0,0.0,0.0,0.0,0.0,0.0,0.0,0.0,0.0,0.0,0.0,0.0,0.0,0.0,0.0,0.0,0.0,0.0,0.0,0.0,0.0,0.0,0.0,0.0,0.0,0.0,0.63,0.63,0.63,0.63,0.63,0.63,0.63,0.63,0.63,0.63,0.0,0.0,0.0,0.0,0.0,0.0,0.0,0.0,0.0,0.0,0.0,0.0,0.0,0.0,0.0,0.0,0.0,0.0,0.0,0.0,0.0,0.0,0.0,0.0,0.0,0.0,0.0,0.0,0.0,0.0,0.0,0.0,0.0,0.0,0.0,0.0,0.0,0.0,0.0,0.0,0.0,0.0,0.0,0.0,0.0,0.0,0.0,0.0,0.0,0.0,0.0,0.0,0.0,0.0,0.0,0.0,0.0,0.0,0.0,0.0,0.0,0.0,0.0,0.0,0.0,0.0,0.0,0.0,0.0,0.0,0.0,0.0,0.0,0.0,0.0,0.0,0.0,0.0,0.0,0.0,0.0,0.0,0.0,0.0,0.0,0.0,0.0,0.0,0.0,0.0,0.0,0.0,0.0,0.0,0.0,0.0,0.0,0.0,0.0,0.0,0.0,0.0,0.618,0.63,0.63,0.63,0.63,0.63,0.63,0.63,0.63,0.0,0.0,0.0,0.0,0.0,0.0,0.0,0.0,0.0,0.0,0.0,0.0,0.0,0.0,0.0,0.0,0.0,0.0,0.0,0.0,0.0,0.0,0.0,0.0,0.0,0.0,0.0,0.0,0.0,0.0,0.0,0.0,0.0,0.0,0.0,0.0,0.0,0.0,0.0,0.0,0.0,0.0,0.0,0.0,0.0,0.0,0.0,0.0,0.0,0.0,0.0,0.0,0.0,0.0,0.0,0.0,0.0,0.0,0.0,0.0,0.0,0.0,0.0,0.0,0.0,0.0,0.0,0.0,0.0,0.0,0.0,0.0,0.0,0.0,0.0,0.0,0.0,0.0,0.0,0.0,0.0,0.0,0.0,0.0,0.0,0.0,0.0,0.0,0.0,0.0,0.0,0.0,0.0,0.0,0.0,0.0,0.0,0.0,0.0,0.0,0.0,0.0,0.6022,0.618,0.63,0.63,0.63,0.63,0.63,0.63,0.63,0.63,0.0,0.0,0.0,0.0,0.0,0.0,0.0,0.0,0.0,0.0,0.0,0.0,0.0,0.0,0.0,0.0,0.0,0.0,0.0,0.0,0.0,0.0,0.0,0.0,0.0,0.0,0.0,0.0,0.0,0.0,0.0,0.0,0.0,0.0,0.0,0.0,0.0,0.0,0.0,0.0,0.0,0.0,0.0,0.0,0.0,0.0,0.0,0.0,0.0,0.0,0.0,0.0,0.0,0.0,0.0,0.0,0.0,0.0,0.0,0.0,0.0,0.0,0.0,0.0,0.0,0.0,0.0,0.0,0.0,0.0,0.0,0.0,0.0,0.0,0.0,0.0,0.0,0.0,0.0,0.0,0.0,0.0,0.0,0.0,0.0,0.0,0.0,0.0,0.0,0.0,0.0,0.0,0.0,0.0,0.0,0.0,0.0,0.0,0.0,0.0,0.0,0.0,0.6261,0.63,0.63,0.63,0.63,0.63,0.63,0.63,0.63,0.0,0.0,0.0,0.0,0.0,0.0,0.0,0.0,0.0,0.0,0.0,0.0,0.0,0.0,0.0,0.0,0.0,0.0,0.0,0.0,0.0,0.0,0.0,0.0,0.0,0.0,0.0,0.0,0.0,0.0,0.0,0.0,0.0,0.0,0.0,0.0,0.0,0.0,0.0,0.0,0.0,0.0,0.0,0.0,0.0,0.0,0.0,0.0,0.0,0.0,0.0,0.0,0.0,0.0,0.0,0.0,0.0,0.0,0.0,0.0,0.0,0.0,0.0,0.0,0.0,0.0,0.0,0.0,0.0,0.0,0.0,0.0,0.0,0.0,0.0,0.0,0.0,0.0,0.0,0.0,0.0,0.0,0.0,0.0,0.0,0.0,0.0,0.0,0.0,0.0,0.0,0.0,0.0,0.0,0.0,0.0,0.0,0.0,0.0,0.0,0.0,0.0,0.0,0.63,0.63,0.63,0.63,0.63,0.63,0.63,0.63,0.63,0.63,0.0,0.0,0.0,0.0,0.0,0.0,0.0,0.0,0.0,0.0,0.0,0.0,0.0,0.0,0.0,0.0,0.0,0.0,0.0,0.0,0.0,0.0,0.0,0.0,0.0,0.0,0.0,0.0,0.0,0.0,0.0,0.0,0.0,0.0,0.0,0.0,0.0,0.0,0.0,0.0,0.0,0.0,0.0,0.0,0.0,0.0,0.0,0.0,0.0,0.0,0.0,0.0,0.0,0.0,0.0,0.0,0.0,0.0,0.0,0.0,0.0,0.0,0.0,0.0,0.0,0.0,0.0,0.0,0.0,0.0,0.0,0.0,0.0,0.0,0.0,0.0,0.0,0.0,0.0,0.0,0.0,0.0,0.0,0.0,0.0,0.0,0.0,0.0,0.0,0.0,0.0,0.0,0.0,0.0,0.0,0.0,0.0,0.0,0.0,0.0,0.0,0.0,0.63,0.63,0.63,0.63,0.63,0.63,0.63,0.63,0.63,0.63,0.0,0.0,0.0,0.0,0.0,0.0,0.0,0.0,0.0,0.0,0.0,0.0,0.0,0.0,0.0,0.0,0.0,0.0,0.0,0.0,0.0,0.0,0.0,0.0,0.0,0.0,0.0,0.0,0.0,0.0,0.0,0.0,0.0,0.0,0.0,0.0,0.0,0.0,0.0,0.0,0.0,0.0,0.0,0.0,0.0,0.0,0.0,0.0,0.0,0.0,0.0,0.0,0.0,0.0,0.0,0.0,0.0,0.0,0.0,0.0,0.0,0.0,0.0,0.0,0.0,0.0,0.0,0.0,0.0,0.0,0.0,0.0,0.0,0.0,0.0,0.0,0.0,0.0,0.0,0.0,0.0,0.0,0.0,0.0,0.0,0.0,0.0,0.0,0.0,0.0,0.0,0.0,0.0,0.0,0.0,0.0,0.0,0.0,0.0,0.0,0.0,0.0,0.63,0.63,0.63,0.63,0.63,0.63,0.63,0.63,0.63,0.63,0.0,0.0,0.0,0.0,0.0,0.0,0.0,0.0,0.0,0.0,0.0,0.0,0.0,0.0,0.0,0.0,0.0,0.0,0.0,0.0,0.0,0.0,0.0,0.0,0.0,0.0,0.0,0.0,0.0,0.0,0.0,0.0,0.0,0.0,0.0,0.0,0.0,0.0,0.0,0.0,0.0,0.0,0.0,0.0,0.0,0.0,0.0,0.0,0.0,0.0,0.0,0.0,0.0,0.0,0.0,0.0,0.0,0.0,0.0,0.0,1.3409,1.3067,0.0,0.0,0.0,0.0,0.0,0.0,0.0,0.0,0.0,0.0,0.0,0.0,0.0,0.0,0.0,0.0,0.0,0.0,0.0,0.0,0.0,0.0,0.0,0.0,0.0,0.0,0.0,0.0,0.0,0.0,0.0,0.0,0.0,0.0,0.0,0.0,0.0,0.0,0.0,0.0,0.63,0.63,0.63,0.63,0.63,0.63,0.63,0.63,0.63,0.63,0.63,0.0,0.0,0.0,0.0,0.0,0.0,0.0,0.0,0.0,0.0,0.0,0.0,0.0,0.0,0.0,0.0,0.0,0.0,0.0,0.0,0.0,0.0,0.0,0.0,0.0,0.0,0.0,0.0,0.0,0.0,0.0,0.0,0.0,0.0,0.0,0.0,0.0,0.0,0.0,0.0,0.0,0.0,0.0,0.0,0.0,0.0,0.0,0.0,0.0,0.0,0.0,0.0,0.0,0.0,0.0,0.0,0.0,0.0,0.0,1.4153,1.3661,0.0,0.0,0.0,0.0,0.0,0.0,0.0,0.0,0.0,0.0,0.0,0.0,0.0,0.0,0.0,0.0,0.0,0.0,0.0,0.0,0.0,0.0,0.0,0.0,0.0,0.0,0.0,0.0,0.0,0.0,0.0,0.0,0.0,0.0,0.0,0.0,0.0,0.0,0.0,0.0,0.6395,0.6402,0.6429,0.6504,0.6511,0.648,0.6409,0.6402,0.6371,0.6303,0.63,0.0,0.0,0.0,0.0,0.0,0.0,0.0,0.0,0.0,0.0,0.0,0.0,0.0,0.0,0.0,0.0,0.0,0.0,0.0,0.0,0.0,0.0,0.0,0.0,0.0,0.0,0.0,0.0,0.0,0.0,0.0,0.0,0.0,0.0,0.0,0.0,0.0,0.0,0.0,0.0,0.0,0.0,0.0,0.0,0.0,0.0,0.0,0.0,0.0,0.0,0.0,0.0,0.0,1.4298,1.4298,1.4298,1.4298,1.4298,1.4298,1.4298,1.3742,1.2789,1.2789,0.0,0.0,0.0,0.0,0.0,0.0,0.0,0.0,0.0,0.0,0.0,0.0,0.0,0.0,0.0,0.0,0.0,0.0,0.0,0.0,0.0,0.0,0.7067,0.6947,0.6808,0.6678,0.6441,0.0,0.0,0.0,0.0,0.0,0.0,0.0,0.0,0.0,0.0,0.0,0.6532,0.6552,0.6559,0.6685,0.6702,0.6651,0.6562,0.6528,0.6463,0.6344,0.6313,0.63,0.0,0.0,0.0,0.0,0.0,0.0,0.0,0.0,0.0,0.0,0.0,0.0,0.0,0.0,0.0,0.0,0.0,0.0,0.0,0.0,0.0,0.0,0.0,0.0,0.0,0.0,0.0,0.0,0.0,0.0,0.0,0.0,1.4208,1.4244,0.0,0.0,0.0,0.0,0.0,0.0,0.0,0.0,0.0,0.0,0.0,0.0,0.0,1.4298,1.4298,1.4298,1.4298,1.4298,1.4298,1.4298,1.4298,1.4298,1.4298,1.4298,1.4298,0.0,1.4052,1.4052,0.0,0.0,0.0,0.0,0.0,0.0,0.0,0.0,0.0,0.0,0.0,0.0,0.0,0.0,0.0,0.0,0.0,0.0,0.0,0.0,0.0,0.0,0.8619,0.7926,0.7745,0.7521,0.6808,0.648,0.63,0.63,0.63,0.63,0.0,0.0,0.0,0.0,0.0,0.0,0.6651,0.6671,0.6678,0.6698,0.6702,0.6692,0.6671,0.6549,0.6504,0.6484,0.6368,0.63,0.63,0.6412,0.0,0.0,0.0,0.0,0.0,0.0,0.0,0.0,0.0,0.0,0.0,0.0,0.0,0.0,0.0,0.0,0.0,0.0,0.0,0.0,0.0,0.0,0.0,0.0,0.0,0.0,0.0,0.0,0.0,1.4298,1.4298,1.4298,1.4298,1.4298,0.0,0.0,0.0,0.0,0.0,0.0,0.0,0.0,0.0,1.4298,1.4298,1.4377,1.4533,1.4533,1.4606,1.4757,1.4757,1.4757,1.4757,1.4757,1.4672,1.4533,1.4533,1.4443,1.4298,1.4298,1.4226,1.4123,0.0,0.0,0.0,0.0,1.2865,1.2636,1.2115,1.1943,1.1854,1.1308,0.0,0.0,0.0,0.0,0.0,0.0,0.0,0.8324,0.8243,0.8095,0.7878,0.7539,0.7392,0.7246,0.6869,0.6661,0.6508,0.6508,0.6508,0.6508,0.6508,0.6508,0.0,0.0,0.0,0.6658,0.681,0.6827,0.6858,0.6896,0.6906,0.6915,0.6834,0.6766,0.6936,0.7367,0.7208,0.712,0.7203,0.7037,0.6756,0.0,0.0,0.0,0.0,0.0,0.0,0.0,0.0,0.0,0.0,0.0,0.0,0.0,0.0,0.0,0.0,0.0,0.0,0.0,0.0,0.0,0.0,0.0,0.0,0.0,0.0,0.0,0.0,1.4298,1.4298,1.4298,1.4298,1.4298,0.0,0.0,0.0,0.0,0.0,0.0,1.4401,1.4401,1.4437,1.4503,1.4503,1.4606,1.4817,1.4817,1.4914,1.5107,1.5107,1.5107,1.5107,1.5107,1.4998,1.4817,1.4817,1.4696,1.4491,1.4358,1.4298,1.4298,1.4298,1.4177,1.3996,1.393,1.3779,1.3604,1.3538,1.3513,1.3371,1.2672,1.2113,1.1532,1.0643,0.0,0.0,0.0,0.0,0.8281,0.8281,0.7748,0.7213,0.7213,0.7132,0.7099,0.7099,0.701,0.6885,0.6729,0.6702,0.6702,0.6702,0.6702,0.0,0.6753,0.6759,0.6814,0.692,0.694,0.698,0.7085,0.7095,0.7055,0.695,0.6906,0.7172,0.7749,0.7581,0.7549,0.7823,0.7657,0.7258,0.6606,0.0,0.0,0.0,0.0,0.0,0.0,0.0,0.0,0.0,0.0,0.0,0.0,0.0,0.0,0.0,0.0,0.0,0.0,0.0,0.0,0.0,0.0,0.0,0.0,0.0,0.0,0.0,0.0,0.0,1.4298,1.4298,0.0,0.0,0.0,0.0,1.4298,1.4298,1.4413,1.4684,1.4696,1.4811,1.5059,1.5065,1.5077,1.5089,1.5089,1.5095,1.5107,1.5107,1.5107,1.5107,1.5107,1.5101,1.5089,1.5089,1.5077,1.5028,1.4509,1.4298,1.4298,1.4298,1.4292,1.425,1.3996,1.3894,1.3851,1.3604,1.3513,1.3468,1.3423,1.2169,1.0639,1.0583,0.9241,0.0,0.0,0.7667,0.7624,0.7624,0.7624,0.7577,0.7577,0.757,0.7567,0.7567,0.756,0.7383,0.681,0.6702,0.6702,0.6702,0.0,0.6749,0.6852,0.6873,0.6927,0.7068,0.7085,0.7088,0.7095,0.7095,0.7092,0.7085,0.6964,0.6926,0.6958,0.6815,0.7029,0.7664,0.7688,0.7607,0.745,0.7446,0.0,0.0,0.0,0.0,0.0,0.0,0.0,0.0,0.0,0.0,0.0,0.0,0.0,0.0,0.0,0.0,0.0,0.0,0.0,0.0,0.0,0.0,0.0,0.0,0.0,0.0,0.0,0.0,1.4298,1.4461,0.0,1.457,1.4721,1.4817,1.4817,1.4817,1.4859,1.4962,1.4968,1.501,1.5107,1.5107,1.5191,1.536,1.536,1.5445,1.5608,1.5608,1.5608,1.5608,1.5608,1.5517,1.536,1.536,1.5264,1.5095,1.4902,1.4721,1.4552,1.437,1.4298,1.4286,1.4189,1.4159,1.4141,1.4051,1.4014,1.4014,1.4014,1.2946,1.1693,1.1693,1.0613,0.9406,0.9406,0.8987,0.852,0.852,0.8059,0.76,0.76,0.76,0.76,0.76,0.76,0.7536,0.7322,0.72,0.7132,0.7132,0.7048,0.7034,0.719,0.7214,0.7268,0.7417,0.735,0.7288,0.7288,0.72,0.7095,0.7095,0.7051,0.7283,0.789,0.7734,0.7735,0.8085,0.8494,0.8378,0.765,0.7729,0.752,0.0,0.0,0.0,0.0,0.0,0.0,0.0,0.0,0.0,0.0,0.0,0.0,0.0,0.0,0.0,0.0,0.0,0.0,0.0,0.0,0.0,0.0,0.0,0.0,0.0,1.4377,1.4437,1.4437,1.4684,1.4847,1.4847,1.501,1.5143,1.5234,1.524,1.5318,1.5493,1.5499,1.5547,1.5644,1.5644,1.5728,1.5903,1.5903,1.5994,1.6163,1.6066,1.6024,1.603,1.5934,1.5795,1.5626,1.5626,1.5529,1.5366,1.5276,1.5137,1.4956,1.4678,1.457,1.457,1.457,1.4515,1.4425,1.4328,1.4298,1.4298,1.4298,1.345,1.2448,1.2448,1.1347,1.0108,1.0108,0.9397,0.864,0.864,0.8218,0.7746,0.7746,0.7746,0.7746,0.7746,0.7746,0.7746,0.7746,0.7587,0.7448,0.7448,0.7363,0.7329,0.7434,0.7448,0.7485,0.7587,0.7512,0.7448,0.7448,0.7356,0.723,0.7221,0.7217,0.7416,0.7977,0.7871,0.7912,0.8233,0.8655,0.8541,0.7789,0.7812,0.7851,0.7902,0.0,0.0,0.0,0.0,0.0,0.0,0.0,0.0,0.0,0.0,0.0,0.0,0.0,0.0,0.0,0.0,0.0,0.0,0.0,0.0,0.0,0.0,0.0,1.4346,1.4552,1.4733,1.4739,1.4974,1.5137,1.5143,1.5155,1.5264,1.5517,1.5535,1.5759,1.6266,1.6296,1.6416,1.6688,1.67,1.67,1.67,1.67,1.67,1.67,1.6423,1.6302,1.6314,1.603,1.5903,1.5903,1.5891,1.5891,1.5867,1.5614,1.5511,1.5487,1.5215,1.5107,1.5107,1.5107,1.495,1.469,1.4364,1.4268,1.4262,1.4262,1.3522,1.2678,1.2678,1.1268,0.9657,0.9608,0.8874,0.8038,0.7988,0.7988,0.7988,0.7988,0.7988,0.7988,0.7988,0.7988,0.7988,0.7988,0.7807,0.7611,0.7607,0.7604,0.76,0.7604,0.7607,0.0,0.7611,0.7607,0.7607,0.7607,0.76,0.7539,0.7436,0.7426,0.7312,0.7112,0.7102,0.7384,0.8041,0.8075,0.8076,0.7938,0.7837,0.8051,0.8722,0.0,0.0,0.0,0.0,0.0,0.0,0.0,0.0,0.0,0.0,0.0,0.0,0.0,0.0,0.0,0.0,0.0,0.0,0.0,0.0,0.0,1.4666,1.469,1.4612,1.4829,1.5071,1.5264,1.5517,1.5759,1.5958,1.6151,1.629,1.6368,1.6368,1.6435,1.6579,1.6585,1.6622,1.67,1.67,1.67,1.67,1.67,1.67,1.67,1.6622,1.6585,1.6585,1.6302,1.6175,1.6163,1.597,1.5891,1.5885,1.5813,1.5783,1.5734,1.5282,1.5107,1.5107,1.5107,1.5065,1.4885,1.3937,1.3535,1.3435,1.3391,1.2583,1.1755,1.2484,1.1804,1.0587,0.9805,0.941,0.897,0.8187,0.7988,0.7988,0.7988,0.7988,0.7988,0.7988,0.7988,0.7988,0.7988,0.7924,0.7882,0.7773,0.7668,0.7634,0.7736,0.7753,0.0,0.7853,0.7821,0.7753,0.7753,0.7662,0.7584,0.7539,0.7536,0.7472,0.7319,0.7309,0.7331,0.7392,0.8036,0.8644,0.921,0.8959,0.8994,0.0,0.0,0.0,0.0,0.0,0.0,0.0,0.0,0.0,0.0,0.0,0.0,0.0,0.0,0.0,0.0,0.0,0.0,0.0,0.0,0.0,0.0,1.5065,1.5209,1.5209,1.5342,1.5529,1.5795,1.6066,1.6296,1.6459,1.6616,1.6748,1.6857,1.6863,1.6911,1.7026,1.7032,1.7032,1.7032,1.7032,1.7032,1.7032,1.7032,1.7032,1.7026,1.6917,1.6863,1.6857,1.6579,1.6392,1.6272,1.6121,1.5988,1.5891,1.5891,1.5891,1.5861,0.0,0.0,0.0,0.0,1.527,1.5155,1.4367,1.3712,1.3233,1.3188,1.2339,1.1461,1.2018,1.1451,1.0447,0.9776,0.9262,0.8775,0.8187,0.7988,0.7988,0.7988,0.7988,0.7988,0.7988,0.7988,0.7988,0.7988,0.7988,0.0,0.7874,0.7838,0.7814,0.7892,0.7906,0.7891,0.7978,0.7914,0.7906,0.7906,0.7834,0.7756,0.7692,0.7689,0.0,0.0,0.0,0.7302,0.7102,0.7621,0.0,0.0,0.0,0.9553,0.9918,0.9958,0.0,0.0,0.8429,0.8034,0.0,0.0,0.0,0.0,0.0,0.0,0.0,0.0,0.0,0.0,0.0,0.0,0.0,0.0,0.0,0.0,1.559,1.5922,1.6012,1.6024,1.6109,1.6344,1.6592,1.6754,1.6785,1.6791,1.6887,1.7117,1.7135,1.7237,1.7473,1.7485,0.0,0.0,0.0,1.7485,1.7485,1.7485,1.7485,1.7479,1.7249,1.7135,1.7129,1.6863,1.661,1.6374,1.6344,1.6181,1.5934,1.5934,1.5916,1.5891,1.5891,1.5891,1.5861,1.5626,1.5547,1.5511,1.5122,0.0,0.0,1.328,1.2535,1.1597,1.1475,1.0767,0.9977,0.9713,0.8965,0.8165,0.8065,0.8002,0.7988,0.7988,0.7988,0.7988,0.7988,0.7988,0.7988,0.7988,0.7988,0.7988,0.7988,0.7988,0.7988,0.7988,0.7988,0.7988,0.7988,0.7988,0.7988,0.7988,0.0,0.0,0.7848,0.7838,0.7777,0.7634,0.7482,0.7329,0.7129,0.7122,0.7446,0.8146,0.898,0.9726,1.0437,1.057,1.0616,1.057,0.9862,0.9517,0.0,0.0,0.0,0.0,0.0,0.0,0.0,0.0,0.0,0.0,0.0,0.0,0.0,0.0,0.0,1.5662,1.5825,1.6115,1.6767,1.6857,1.6875,1.693,1.6984,1.7098,1.731,1.7334,1.7352,1.7406,1.7406,1.743,1.7479,1.7485,1.7485,1.7485,1.7485,1.7485,1.7485,1.7485,1.7485,1.7485,1.743,0.0,1.74,1.7135,1.699,1.6923,1.6712,1.6459,1.6205,1.6205,1.6085,1.5891,1.5891,1.5891,1.5885,1.5831,1.5813,1.5701,1.4691,1.4112,1.3624,1.2575,1.2035,1.1733,1.1588,1.1415,0.0,1.0248,0.9733,0.9279,0.8475,0.8133,0.7988,0.7988,0.7988,0.7988,0.7988,0.7988,0.7988,0.7988,0.7988,0.7988,0.7988,0.7988,0.7988,0.7988,0.7988,0.7988,0.7988,0.7988,0.7988,0.7988,0.7988,0.7978,0.7948,0.7944,0.788,0.778,0.7634,0.7489,0.7333,0.7326,0.7699,0.8408,0.8622,0.9117,1.0019,1.0062,1.0062,1.0052,0.9671,0.9517,0.0,0.0,0.0,0.0,0.0,0.0,0.0,0.0,0.0,0.0,0.0,1.4992,1.5252,0.0,1.5674,1.6205,1.6404,1.6628,1.7038,1.7207,1.7286,1.7286,1.7286,1.734,1.7473,1.7485,1.7485,1.7485,1.7485,1.7485,1.7485,1.7485,1.7485,1.7485,1.7485,1.7485,1.7485,1.7485,1.7485,1.7485,1.7485,1.7485,1.7479,1.7346,1.7213,1.7086,1.6954,1.6742,1.6483,1.6338,1.6127,1.5891,1.5891,1.5891,1.5838,1.5244,1.5405,1.5731,1.46,1.4137,1.3933,1.3288,1.2249,1.1239,1.1089,1.0638,1.0043,0.9436,0.9202,0.9039,0.8529,0.8265,0.8153,0.8153,0.8096,0.7988,0.7988,0.7988,0.7988,0.7988,0.7988,0.7988,0.7988,0.7988,0.7988,0.7988,0.7988,0.7988,0.7988,0.7988,0.7988,0.7988,0.7988,0.7988,0.7988,0.7988,0.7924,0.7821,0.8218,0.8432,0.8317,0.831,0.8722,0.9575,0.957,0.9791,1.0234,1.0686,1.0642,1.015,1.0031,0.9866,0.0,0.0,0.0,0.0,0.0,0.0,0.0,1.4594,1.4793,1.4793,1.504,1.539,1.5813,1.5976,1.6205,1.67,1.6954,1.7111,1.7159,1.7346,1.7485,1.7485,1.7485,1.7485,1.7485,1.7485,1.7485,1.7485,1.7485,1.7485,1.7485,1.7485,1.7485,1.7485,1.7485,1.7485,1.7485,1.7485,1.7485,1.7485,1.7485,1.7485,1.7485,1.7485,1.737,1.7165,1.7117,1.6972,1.6748,1.6416,1.6157,1.5964,1.591,1.5891,1.5779,1.4869,1.4976,1.5458,1.4546,1.4223,1.4116,1.3673,1.2363,1.0916,1.0351,0.9507,0.873,0.8604,0.855,0.8526,0.8526,0.8421,0.8354,0.833,0.8174,0.8025,0.7995,0.7988,0.7988,0.7988,0.7988,0.7988,0.7988,0.7988,0.7988,0.7988,0.7988,0.7988,0.7988,0.7988,0.7988,0.7988,0.7988,0.7988,0.7988,0.7988,0.7938,0.7865,0.8672,0.9072,0.8953,0.8945,0.9299,1.0093,1.0047,1.0001,0.9996,1.0925,1.0833,0.9866,1.0051,1.0104,1.4939,1.4838,1.464,1.464,1.4637,1.4666,0.0,1.4871,1.5065,1.5065,1.5457,1.5819,1.5879,1.6284,1.6706,1.7002,1.7074,1.7171,1.7406,1.7461,1.7485,1.7485,1.7485,1.7485,1.7485,1.7485,1.7485,1.7485,1.7485,1.7485,1.7485,1.7485,1.7485,1.7485,1.7485,1.7485,1.7485,1.7485,1.7485,1.7485,1.7485,1.7485,1.7485,1.7485,1.7467,1.7424,1.7195,1.7074,1.7008,1.6489,1.6272,1.6241,1.5988,1.5891,1.5885,1.5779,1.5137,1.4385,1.4223,1.4223,1.384,1.1764,1.1596,1.1814,0.9731,0.8968,0.8854,0.8838,0.8791,0.8682,0.8682,0.857,0.8428,0.835,0.8258,0.8208,0.8019,0.7988,0.7988,0.7988,0.7988,0.7988,0.7988,0.7988,0.7988,0.7988,0.7988,0.7988,0.7988,0.7988,0.7988,0.7988,0.7988,0.7988,0.7988,0.7988,0.7982,0.7965,0.8113,0.809,0.7983,0.7976,0.7965,0.7926,0.7922,0.7922,0.7922,0.8991,0.8944,0.7926,0.8897,0.9705,1.4885,1.4902,1.4881,1.4741,1.4794,1.4944,1.4944,1.5149,1.5336,1.5336,1.5753,1.6169,1.6332,1.667,1.7014,1.728,1.7322,1.7358,1.7467,1.7485,1.7485,1.7485,1.7485,1.7485,1.7485,1.7485,1.7485,1.7485,1.7485,1.7485,1.7485,1.7485,1.7485,1.7485,1.7485,1.7485,1.7485,1.7485,1.7485,1.7485,1.7485,1.7485,1.7485,1.7485,1.7485,1.7473,1.7364,1.7231,1.7074,1.6845,1.6573,1.6284,1.6163,1.6024,1.5832,1.5137,1.46,1.411,1.3403,1.3619,1.3894,1.2254,1.206,1.2215,1.056,0.9619,0.9062,0.9062,0.8957,0.879,0.879,0.873,0.8601,0.854,0.8459,0.8353,0.8208,0.8174,0.8147,0.8008,0.7988,0.7988,0.7988,0.7988,0.7988,0.7988,0.7988,0.7988,0.7988,0.7988,0.7988,0.7988,0.7988,0.7988,0.7988,0.7988,0.8283,0.8874,0.9509,1.0107,1.0655,1.0651,1.0904,1.1487,1.0867,1.058,1.058,1.1006,1.0724,0.9721,1.0154,1.0537,1.5076,1.5143,1.5165,1.4948,1.5073,1.5215,1.5215,1.5421,1.5608,1.5608,1.603,1.6459,1.6664,1.6972,1.7261,1.7455,1.7485,1.7485,1.7485,1.7485,1.7485,1.7485,1.7485,1.7485,1.7485,1.7485,1.7485,1.7485,1.7485,1.7485,1.7485,1.7485,1.7485,1.7485,1.7485,1.7485,1.7485,1.7485,1.7485,1.7485,1.7485,1.7485,1.7485,1.7485,1.7485,1.7485,1.7485,1.7376,1.7195,1.7123,1.6815,1.6386,1.6308,1.6121,1.5785,1.4976,1.4493,1.4002,1.2797,1.296,1.3457,1.1928,1.1753,1.1868,1.0707,0.976,0.9093,0.9093,0.9018,0.8885,0.8885,0.8801,0.8764,0.872,0.8625,0.8506,0.836,0.835,0.8238,0.8126,0.8019,0.7988,0.7988,0.7988,0.7988,0.7988,0.7988,0.7988,0.7988,0.7988,0.7988,0.7988,0.7988,0.7988,0.7988,0.7988,0.8333,0.9118,0.9899,1.0779,1.1804,1.1853,1.2339,1.342,1.2684,1.229,1.229,1.2581,1.2193,1.1219,1.1463,1.1463,1.5852,1.5686,1.5511,1.5469,1.5487,1.5487,1.5487,1.5692,1.5879,1.5879,1.6308,1.6688,1.67,1.7123,1.7473,1.7485,1.7485,1.7485,1.7485,1.7485,1.7485,1.7485,1.7485,1.7485,1.7485,1.7485,1.7485,1.7485,1.7485,1.7485,1.7485,1.7485,1.7485,1.7485,1.7485,1.7485,1.7485,1.7485,1.7485,1.7485,1.7485,1.7485,1.7485,1.7485,1.7485,1.7485,1.7485,1.7479,1.7449,1.7195,1.693,1.6664,1.6386,1.6121,1.5891,1.5838,1.5137,1.4002,1.2797,1.2413,1.2091,0.9754,0.9809,1.0519,0.9323,0.8944,0.8892,0.8892,0.8888,0.8885,0.8885,0.8878,0.8841,0.8747,0.8706,0.8662,0.8509,0.8367,0.832,0.8316,0.8143,0.7988,0.7988,0.7988,0.7988,0.7988,0.7988,0.7988,0.7988,0.7988,0.7988,0.7988,0.7988,0.7988,0.7988,0.7988,0.7992,0.8038,0.8088,0.8581,0.9657,0.9706,1.0194,1.1268,1.1268,1.1268,1.1268,1.2242,1.2193,1.1219,1.2193,1.2145,1.5953,1.6112,1.6228,1.5856,1.5879,1.5976,1.5812,1.5831,1.5891,1.5891,1.6175,1.6423,1.6423,1.6718,1.702,1.7195,1.7219,1.7286,1.7455,1.7485,1.7485,1.7485,1.7485,1.7485,1.7485,1.7485,1.7485,1.7485,1.7485,1.7485,1.7485,1.7485,1.7485,1.7485,1.7726,1.7843,1.7843,1.8018,1.8129,1.8129,1.7901,1.7726,1.7485,1.7485,1.7485,1.7485,1.7485,1.7485,1.7473,1.7388,1.7092,1.6688,1.6598,1.6284,1.5891,1.5891,1.5672,1.5024,1.3068,1.2417,1.2037,0.9647,0.9772,1.0632,0.9469,0.9083,0.9083,0.9083,0.9011,0.8885,0.8885,0.8885,0.8871,0.8817,0.8807,0.8818,0.8665,0.8516,0.8384,0.834,0.8147,0.7988,0.7988,0.7988,0.7988,0.7988,0.7988,0.7988,0.7988,0.7988,0.7988,0.7988,0.7988,0.7988,0.7988,0.7988,0.8283,0.9019,0.9069,0.9558,1.0636,1.1317,1.1853,1.2193,1.2877,1.327,1.327,1.3613,1.3613,1.327,1.3613,1.3559,1.6229,1.6456,1.6613,1.6248,1.6299,1.6371,1.6105,1.6105,1.6152,1.5945,1.6205,1.6393,1.6338,1.6513,1.6754,1.6923,1.7032,1.7153,1.7322,1.7424,1.7485,1.7485,1.7485,1.7485,1.7485,1.7602,1.7602,1.7485,1.7485,1.7543,1.7667,1.7667,1.7719,1.783,1.8018,1.8142,1.8142,1.8194,1.8188,1.8071,1.7901,1.7726,1.7485,1.7485,1.7485,1.7485,1.7485,1.7485,1.7485,1.7485,1.7231,1.6833,1.6736,1.6423,1.6018,1.5928,1.5891,1.5618,1.3722,1.2743,1.2091,1.0186,0.9824,1.0077,0.93,0.9076,0.9076,0.9076,0.9011,0.8885,0.8885,0.8885,0.8885,0.8885,0.8885,0.8858,0.8815,0.8672,0.852,0.8374,0.8225,0.8106,0.7998,0.7988,0.7988,0.7988,0.7988,0.7988,0.7988,0.7988,0.7988,0.7988,0.7988,0.7988,0.7988,0.7988,0.8283,0.897,0.9019,0.9509,1.0583,1.1268,1.195,1.2678,1.3366,1.3908,1.4298,1.4298,1.4298,1.4298,1.4298,1.4298,1.6644,1.6756,1.6724,1.6719,1.673,1.663,1.6377,1.6518,1.6552,1.6045,1.6348,1.6581,0.0,1.6532,1.672,1.6676,1.6944,1.712,1.7144,1.7362,1.7525,1.7537,1.7543,1.7543,1.7543,1.7843,1.7908,1.7543,1.7537,1.7667,1.8025,1.8031,1.8142,1.8421,1.8421,1.8421,1.8421,1.82,1.7901,1.7537,1.7537,1.7543,1.7543,1.7543,1.7543,1.7543,1.7485,1.7485,1.7485,1.7485,1.7328,1.7062,1.6821,1.6537,1.6254,1.6,1.5903,1.5731,1.4648,1.3506,1.2304,1.116,0.997,0.8992,0.8992,0.8937,0.8885,0.8885,0.8885,0.8885,0.8885,0.8885,0.8885,0.8885,0.8885,0.8885,0.8885,0.8818,0.8669,0.8523,0.8374,0.8221,0.8015,0.7988,0.7988,0.7988,0.7988,0.7988,0.7988,0.7988,0.7988,0.7988,0.7988,0.7988,0.7988,0.7988,0.7988,0.7988,0.7988,0.8482,0.946,0.9558,1.0534,1.2581,1.2684,1.3221,1.4298,1.4298,1.4298,1.4298,1.4298,1.4298,1.7056,1.7204,1.7331,1.71,1.7067,1.7014,1.6683,1.6518,1.643,1.648,1.647,1.6386,1.6332,1.6532,1.6698,1.6691,1.6955,1.7191,1.7369,1.7434,1.7621,1.7824,1.7849,1.796,1.8129,1.8246,1.8246,1.8188,1.8188,1.8188,1.8305,1.8305,1.8305,1.8421,1.8648,1.8765,1.8765,1.8706,1.8473,1.8188,1.8188,1.8077,1.7849,1.7849,1.7849,1.7849,1.7602,1.7485,1.7485,1.7485,1.7328,1.7086,1.7014,1.67,1.6272,1.6223,1.6072,1.5838,1.5565,1.4702,1.3565,1.2358,1.1164,1.0241,1.0241,0.9588,0.8885,0.8885,0.8885,0.8885,0.8885,0.8885,0.8885,0.8885,0.8885,0.8885,0.8885,0.8818,0.8699,0.8659,0.8445,0.8221,0.8015,0.7988,0.7988,0.7988,0.7988,0.7988,0.7988,0.7988,0.7988,0.7988,0.7988,0.7988,0.7988,0.7988,0.7988,0.7988,0.7988,0.8137,0.8382,0.9167,1.0243,1.156,1.2339,1.3221,1.4298,1.4298,1.4298,1.4298,1.4298,1.4298,1.7353,1.7514,1.7582,1.743,1.7378,1.7246,1.6794,1.6691,1.6639,1.6413,1.6342,1.6264,1.6172,1.6343,1.6527,0.0,0.0,0.0,1.7472,1.7647,1.7829,1.8163,1.8194,1.8252,1.8363,1.8532,1.8648,1.8648,1.848,1.8473,1.859,1.8648,1.8713,1.8836,1.901,1.9062,1.8874,1.8874,1.8706,1.8421,1.8421,1.8305,1.8194,1.8194,1.8194,1.8194,1.7954,1.7895,1.7895,1.7784,1.764,1.7493,1.7198,1.6905,1.6622,1.6519,1.6308,1.606,1.606,1.5552,1.4756,1.356,1.2037,1.0726,1.0726,0.986,0.8885,0.8885,0.8885,0.8885,0.8885,0.8885,0.8885,0.8885,0.8885,0.8885,0.8885,0.8817,0.8791,0.8723,0.8472,0.8241,0.8153,0.8032,0.8137,0.8627,0.8283,0.8333,0.9266,0.897,0.8531,0.8038,0.8432,0.8726,0.8726,0.8283,0.8187,0.8676,0.8283,0.8187,0.8676,0.9266,1.0293,1.1853,1.2387,1.3221,1.4298,1.4298,1.4298,1.4298,1.4298,1.4298,1.7515,1.7582,1.7582,1.7582,1.7555,1.7409,1.6905,1.694,1.6872,1.615,1.6151,1.6227,1.6019,1.6197,1.6377,1.6377,0.0,1.7268,1.7555,1.7835,1.811,1.839,1.8454,1.848,1.8538,1.8823,1.8997,1.8997,1.8706,1.8655,1.8939,1.8997,1.912,1.9366,1.9424,1.9243,1.8997,1.8939,1.8765,1.8473,1.8473,1.8473,1.8473,1.8473,1.8473,1.8473,1.8421,1.8421,1.8363,1.8142,1.8025,1.8,1.7411,1.718,1.712,1.6839,1.6573,1.6332,1.6296,1.6133,1.5773,1.4767,1.2965,1.1109,1.0945,1.0076,0.9099,0.8937,0.8885,0.8885,0.8885,0.8885,0.8885,0.8885,0.8885,0.8885,0.8885,0.8885,0.8838,0.874,0.8506,0.8316,0.833,0.816,0.8357,0.927,0.8577,0.8726,1.0734,1.0047,0.9069,0.8287,0.9069,0.9608,0.9608,0.8874,0.8821,0.9756,0.8924,0.8825,0.9756,0.9805,1.073,1.2678,1.2678,1.3221,1.4298,1.4298,1.4298,1.4298,1.4298,1.4298,1.7569,1.7582,1.7582,1.7582,1.7454,1.7266,1.7161,1.6774,0.0,1.6567,1.6402,1.631,1.6233,1.6663,1.6961,1.6683,1.7146,1.7556,1.7581,1.7812,1.8091,0.0,1.8616,1.8939,1.9191,1.9307,1.9307,1.9307,1.9249,1.9249,1.9307,1.9307,1.9366,1.9424,1.9424,1.9366,1.9307,1.9055,1.8874,1.8816,1.8816,1.8816,1.8816,1.8816,1.8816,1.8823,1.8532,0.0,1.8421,1.8363,1.8305,1.8298,1.7975,1.7691,1.7481,1.7153,1.6857,1.6592,1.6362,1.6254,1.6175,1.5743,1.4702,1.3403,1.2417,1.1328,1.0186,0.9154,0.8885,0.8885,0.8885,0.8885,0.8885,0.8885,0.8885,0.8885,0.8885,0.8885,0.8838,0.874,0.8669,0.8557,0.8313,0.8248,0.8234,0.8254,0.8137,0.8432,0.9706,0.892,0.8528,0.9266,0.9509,0.9608,0.9608,1.0243,1.073,1.0925,1.073,1.0734,1.0925,1.0925,1.1463,1.2684,1.2678,1.3221,1.4298,1.4298,1.4298,1.4298,1.4298,1.4298,1.7582,1.7582,1.7582,1.7582,1.742,1.7159,1.7005,0.0,0.0,1.6253,1.6252,1.6314,1.6291,1.6775,1.7074,1.6755,1.7226,1.7583,1.7616,1.7972,1.8361,1.8651,1.8942,1.9243,1.9366,1.9424,1.9424,1.9424,1.9424,1.9424,1.9424,1.9424,1.9424,1.9424,1.9424,1.9424,1.9424,1.9243,1.9185,1.9185,1.9185,1.9185,1.9185,1.9185,1.9185,1.912,1.901,1.8894,1.8894,1.8706,1.8648,1.8648,1.8305,1.8106,1.7987,1.7704,1.7422,1.7108,1.6805,1.6616,1.6477,1.6356,1.5355,1.3948,1.2743,1.1596,1.0457,0.9265,0.8885,0.8885,0.8885,0.8885,0.8885,0.8885,0.8885,0.8885,0.8885,0.8885,0.8861,0.8845,0.8764,0.8638,0.8418,0.8371,0.8421,0.8801,0.8382,0.8775,1.0925,0.9801,0.9266,1.0342,1.044,1.0636,1.117,1.1219,1.1414,1.195,1.1512,1.1414,1.195,1.1999,1.249,1.3511,1.3511,1.3806,1.4298,1.4298,1.4298,1.4298,1.4298,1.4298,1.7488,1.7535,1.7569,1.7508,1.732,1.7025,1.668,1.6386,1.6112,1.5831,1.6061,1.6325,1.6325,1.6736,1.701,0.0,1.7133,1.7488,1.7488,1.8016,1.8504,1.8798,1.9092,0.0,1.9417,1.9424,1.9424,1.9424,1.9424,1.9424,1.9424,1.9424,1.9424,1.9424,1.9424,1.9424,1.9424,1.9424,1.9424,1.9424,1.9424,1.9424,1.9424,1.9424,1.9424,1.9424,1.9424,1.9424,1.9366,1.912,1.8997,1.8997,1.8648,1.8538,1.8473,1.82,1.794,1.7625,1.734,1.7011,1.6779,1.6718,1.5803,1.4538,1.3322,1.233,1.1338,0.9857,0.9419,0.9363,0.9088,0.9008,0.8977,0.8892,0.8885,0.8885,0.8885,0.8885,0.8885,0.8885,0.8842,0.871,0.8557,0.8411,0.8565,0.9199,0.8748,0.9312,1.2047,1.0974,1.044,1.1707,1.1658,1.1853,1.263,1.2193,1.2193,1.2974,1.229,1.2242,1.3022,1.3022,1.3414,1.4292,1.4298,1.4298,1.4298,1.4298,1.4298,1.4298,1.4298,1.4298,1.7239,1.7434,1.7515,1.7306,1.6967,1.6667,1.638,0.0,1.5865,1.5791,1.6061,1.6325,1.6325,1.6522,1.6723,1.6697,0.0,1.7239,1.7239,1.7709,1.8142,1.8497,0.0,0.0,1.9339,1.9424,1.9424,1.9424,1.9424,1.9424,1.9424,1.9424,1.9424,1.9424,1.9424,1.9424,1.9424,1.9424,1.9424,1.9424,1.9424,1.9424,1.9424,1.9424,1.9424,1.9424,1.9424,1.9424,0.0,1.9366,1.9366,1.9307,1.8997,1.8881,1.8816,1.848,1.8175,1.7892,1.7631,1.7355,1.7014,1.6779,1.6614,1.6287,1.5081,1.4681,1.4112,1.1727,1.1102,1.0819,0.9683,0.9235,0.91,0.8967,0.8885,0.8885,0.8885,0.8885,0.8885,0.8885,0.8871,0.8814,0.8716,0.8564,0.8467,0.8422,0.9022,0.9899,1.117,1.117,1.1804,1.3806,1.3119,1.2587,1.2678,1.3511,1.4052,1.4148,1.4052,1.4052,1.4148,1.4148,1.4202,1.4298,1.4298,1.4298,1.4298,1.4298,1.4298,1.4298,1.4298,1.4298,1.6881,1.6967,1.7027,1.6914,1.666,1.6413,1.6299,0.0,1.5784,1.5784,1.6069,1.6305,1.6305,1.6537,1.6625,1.6504,0.0,0.0,1.6881,1.7395,1.7949,1.843,1.8744,1.9038,1.9397,1.9424,1.9424,1.9424,1.9424,1.9424,1.9424,1.9424,1.9424,1.9424,1.9424,1.9424,1.9424,1.9424,1.9424,1.9424,1.9424,1.9424,1.9424,1.9424,1.9424,1.9424,1.9424,1.9424,0.0,1.9424,1.9424,1.9366,1.9243,1.9185,1.9185,1.8823,1.8648,1.846,1.801,1.7741,1.7612,1.7265,1.7171,1.6932,1.5467,1.4977,1.4462,1.2007,1.1323,1.1039,0.9722,0.9323,0.9193,0.9083,0.9547,0.9805,0.9047,0.9482,0.9754,0.9047,0.8885,0.8834,0.8737,0.9107,0.9205,0.8395,0.9576,1.073,1.117,1.1707,1.2684,1.4148,1.3318,1.2974,1.3607,1.4052,1.4298,1.4298,1.4298,1.4298,1.4298,1.4298,1.4298,1.4298,1.4298,1.4298,1.4298,1.4298,1.4298,1.4298,1.4298,1.4298,1.658,1.664,1.6687,1.66,1.6426,1.6253,0.0,0.0,1.5784,1.5784,1.6066,1.6321,1.6321,1.644,1.6513,0.0,0.0,1.6607,1.6693,1.7134,1.7682,1.829,1.8617,1.8911,1.9205,1.9319,1.9424,1.9424,1.9424,1.9424,1.9424,1.9424,1.9424,1.9424,1.9424,1.9424,1.9424,1.9424,1.9424,1.9424,1.9424,1.9424,1.9424,1.9424,1.9424,1.9424,1.9424,1.9424,0.0,1.9424,1.9424,1.9424,1.9424,1.9424,1.9366,1.912,1.8997,1.8823,1.8428,1.8142,1.7972,1.7726,1.7602,1.7289,1.6103,1.5766,1.5303,1.3163,1.2293,1.1761,1.0841,1.0509,1.0395,1.0292,1.0787,1.1067,1.0147,1.0621,1.0945,1.008,0.9919,0.9881,0.9815,1.0286,1.0416,0.9476,1.0702,1.1732,1.1668,1.2538,1.3463,1.4202,1.3613,1.3463,1.425,1.4298,1.4298,1.4298,1.4298,1.4298,1.4298,1.4298,1.4298,1.4298,1.4298,1.4298,1.4298,1.4298,1.434,1.4419,1.4419,1.4461,1.6279,1.6486,1.664,1.6346,1.6279,1.6192,1.5899,1.5784,1.5784,1.5784,1.6066,1.6321,1.6321,1.6279,1.6279,1.6321,0.0,0.0,1.6667,1.7018,1.7375,0.0,1.831,1.8611,1.8898,1.9192,1.9424,1.9424,1.9424,1.9424,1.9424,1.9424,1.9424,1.9424,1.9424,1.9424,1.9424,1.9424,1.9424,1.9424,1.9424,1.9424,1.9424,1.9424,1.9424,1.9424,1.9424,1.9424,0.0,1.9424,1.9424,1.9424,1.9424,1.9424,1.9424,1.9424,1.9178,1.8874,1.8874,1.848,1.7972,1.7972,1.7784,1.7485,1.7473,1.7473,1.7238,1.5924,1.4669,1.3608,1.3395,1.3339,1.3235,1.2875,1.2775,1.2718,1.2405,1.2363,1.2363,1.2363,1.2363,1.2363,1.2358,1.2238,1.2078,1.1822,1.2521,1.299,1.271,1.3613,1.4298,1.4298,1.4298,1.4298,1.4298,1.4298,1.4298,1.4298,1.4298,1.4298,1.4298,1.4298,1.4298,1.4298,1.4298,1.4298,1.4298,1.4298,1.4437,1.4714,1.4714,1.4853,1.5972,1.6039,1.6037,1.5992,1.5972,1.5945,1.5804,1.5784,1.5784,1.5784,1.5905,1.5972,1.5972,1.5972,1.5972,1.5972,1.5972,0.0,0.0,0.0,0.0,1.7896,1.8484,1.8905,1.9199,1.9312,1.9424,1.9424,1.9424,1.9424,1.9424,1.9424,1.9424,1.9424,1.9424,1.9424,1.9424,1.9424,1.9424,1.9424,1.9424,1.9424,1.9424,1.9424,1.9424,1.9424,1.9424,1.9424,1.9424,1.9424,1.9424,1.9424,1.9424,1.9424,1.9424,1.9424,1.9307,1.9185,1.8997,1.859,1.8252,1.8083,1.7784,1.7485,1.7485,1.7485,1.7244,1.593,1.4679,1.371,1.3639,1.3511,1.3369,1.3236,1.361,1.3769,1.2861,1.3173,1.3398,1.258,1.2417,1.2417,1.2417,1.2884,1.3026,1.2221,1.3429,1.4109,1.31,1.4077,1.4781,1.4606,1.4745,1.4696,1.4328,1.4473,1.4582,1.4582,1.4582,1.4582,1.4582,1.4401,1.4389,1.4582,1.4582,1.4672,1.4853,1.4853,1.4896,1.4986,1.4986,1.5028,1.5784,1.5784,1.5784,1.5784,1.5784,0.0,1.5784,1.5784,1.5784,1.5784,1.5784,1.5784,1.5784,1.5784,1.5784,1.5784,1.5925,1.6166,1.664,1.68,1.7208,1.811,1.8637,1.9038,1.9397,1.9424,1.9424,1.9424,1.9424,1.9424,1.9424,1.9424,1.9424,1.9424,1.9424,1.9424,1.9424,1.9424,1.9424,1.9424,1.9424,1.9424,1.9424,1.9424,1.9424,1.9424,1.9424,1.9424,0.0,1.9424,1.9424,1.9424,1.9424,1.9424,1.9424,1.9424,1.9424,1.9366,1.9185,1.8881,1.8538,1.8252,1.7843,1.7543,1.7667,1.7602,1.7303,1.6526,1.5752,1.5154,1.5154,1.5044,1.4913,1.4824,1.5093,1.5183,1.4298,1.4489,1.4595,1.3884,1.3717,1.3717,1.3717,1.419,1.4323,1.3546,1.4464,1.4895,1.3964,1.4589,1.5046,1.4883,1.501,1.4974,1.463,1.4763,1.4865,1.4865,1.4865,1.4865,1.4865,1.4696,1.4684,1.4859,1.4865,1.4944,1.5107,1.5203,1.5252,1.5258,1.5354,1.5403,0.0,1.5784,1.5784,1.5784,1.5784,1.5784,1.5784,1.5784,0.0,1.5784,1.5784,1.5784,1.5784,1.5784,1.5784,1.5784,1.6079,1.6373,1.6667,1.7001,1.7581,1.839,1.8744,1.9038,1.9397,1.9424,1.9424,1.9424,1.9424,1.9424,1.9424,1.9424,1.9424,1.9424,1.9424,1.9424,1.9424,1.9424,1.9424,1.9424,1.9424,1.9424,1.9424,1.9424,1.9424,1.9424,1.9424,1.9424,1.9424,1.9424,1.9424,1.9424,1.9424,1.9424,1.9424,1.9424,1.9424,1.9424,1.9424,1.9178,1.8816,1.848,1.8012,1.7602,1.7908,1.7726,1.7485,1.7537,1.7543,1.7485,1.7543,1.7543,1.7418,1.7177,1.6905,1.6628,1.6368,1.6091,1.5891,1.5891,1.5891,1.5891,1.5891,1.5891,1.5807,1.5565,1.5529,1.5433,1.5167,1.5155,1.5155,1.5137,1.5155,1.5161,1.5161,1.5149,1.5137,1.5137,1.5137,1.5137,1.5137,1.5119,1.5119,1.5137,1.5155,1.5161,1.5161,1.5409,1.5529,1.5529,1.5777,1.5891,1.5784,0.0,1.5784,1.5784,1.5784,1.5784,0.0,1.5784,1.5784,1.5784,1.5784,1.5784,1.5784,1.5784,1.5784,1.5784,1.6079,1.6373,1.6667,1.7361,1.7996,1.8437,1.8744,1.9038,1.9397,1.9424,1.9424,1.9424,1.9424,1.9424,1.9424,1.9424,1.9424,1.9424,1.9424,1.9424,1.9424,1.9424,1.9424,1.9424,1.9424,1.9424,1.9424,1.9424,1.9424,1.9424,1.9424,1.9424,1.9424,1.9424,1.9424,1.9424,1.9424,1.9424,1.9424,1.9424,1.9424,1.9424,1.9424,1.9178,1.8823,1.8252,1.8025,1.7849,1.7667,1.7543,1.7602,1.8064,1.7837,1.7543,1.7849,1.7667,1.7467,1.7406,1.7038,1.6682,1.6616,1.6229,1.5891,1.5891,1.5891,1.5891,1.5891,1.5891,1.5867,1.5807,1.5801,1.5704,1.5439,1.5584,1.5626,1.5427,1.559,1.5704,1.5704,1.5523,1.5409,1.5409,1.5409,1.5409,1.5409,1.5215,1.5203,1.5403,1.5602,1.5704,1.5704,1.5771,1.5801,1.5801,1.5861,1.5891,1.592,1.5784,1.5784,1.5784,1.5784,1.5784,1.5784,1.5784,1.5784,1.5784,1.5784,1.5784,1.5784,1.5784,1.5872,1.6012,1.6279,1.6667,1.7241,1.7856,1.8357,1.8651,1.8951,1.9192,1.9352,1.9424,1.9424,1.9424,1.9424,1.9424,1.9424,1.9424,1.9424,1.9424,1.9424,1.9424,1.9424,1.9424,1.9424,1.9424,1.9424,1.9424,1.9424,1.9424,1.9424,1.9424,1.9424,1.9424,1.9424,1.9424,1.9424,1.9424,1.9424,1.9424,1.9424,1.9424,1.9424,1.9424,1.9424,1.9178,1.8823,1.8369,1.8083,1.7972,1.7954,1.7843,1.7784,1.8135,1.8077,1.7954,1.8135,1.8077,1.7895,1.7784,1.743,1.7036,1.6756,1.6387,1.6051,1.5945,1.5891,1.5891,1.5891,1.5891,1.5891,1.5891,1.5891,1.5837,1.5698,1.5801,1.5831,1.5692,1.5807,1.5891,1.5891,1.5759,1.568,1.568,1.568,1.568,1.568,1.5541,1.5535,1.5674,1.5819,1.5891,1.5891,1.5891,1.5891,1.5891,1.5891,1.5891,1.648,1.6244,1.6197,1.5879,1.5784,1.5784,1.5784,0.0,0.0,1.5784,1.5784,1.5784,1.5784,1.5784,1.5925,1.6274,1.6553,1.7074,1.7876,1.8303,1.8597,1.8885,1.9185,1.9424,1.9424,1.9424,1.9424,1.9424,1.9424,1.9424,1.9424,1.9424,1.9424,1.9424,1.9424,1.9424,1.9424,1.9424,1.9424,1.9424,1.9424,1.9424,1.9424,1.9424,1.9424,1.9424,1.9424,0.0,1.9424,1.9424,1.9424,1.9424,1.9424,1.9424,1.9424,1.9424,1.9424,1.9424,1.9424,1.9185,1.8939,1.859,1.8311,1.8083,1.8305,1.8252,1.8083,1.8142,1.8252,1.8421,1.8473,1.8415,1.8363,1.8142,1.783,1.7483,1.6924,1.6605,1.6264,1.5998,1.5945,1.5945,1.5891,1.5891,1.5891,1.5891,1.5891,1.5891,1.5891,1.5891,1.5891,1.5891,1.5891,1.5891,1.5891,1.5891,1.5891,1.5891,1.5891,1.5891,1.5891,1.5891,1.5891,1.5891,1.5891,1.5891,1.5891,1.5891,1.5891,1.5891,1.5891,1.5891,1.8419,1.8326,1.7909,1.6251,1.5784,1.5784,1.5784,0.0,0.0,0.0,1.5784,1.5784,1.5784,1.5784,1.5925,1.6274,1.6777,1.7308,1.7902,1.8303,1.8597,1.8885,1.9185,1.9424,1.9424,1.9424,1.9424,1.9424,1.9424,1.9424,1.9424,1.9424,1.9424,1.9424,1.9424,1.9424,1.9424,1.9424,1.9424,1.9424,1.9424,1.9424,1.9424,1.9424,1.9424,1.9424,0.0,1.9424,1.9424,1.9424,1.9424,1.9424,1.9424,1.9424,1.9424,1.9424,1.9424,1.9424,1.9424,1.9366,1.9243,1.8939,1.859,1.8363,1.8363,1.8363,1.8421,1.8706,1.859,1.8473,1.8765,1.859,1.8363,1.8363,1.7945,1.7595,1.7483,1.7034,1.6577,1.6271,1.6217,1.6164,1.5945,1.5891,1.5891,1.5891,1.5891,1.5891,1.5891,1.5891,1.5891,1.5891,1.5891,1.5891,1.5891,1.5891,1.5891,1.5891,1.5891,1.5891,1.5891,1.5891,1.5891,1.5891,1.5891,1.5891,1.5891,1.5891,1.5891,1.5891,1.5891,1.5891,1.9185,1.8964,1.8688,1.7677,1.699,1.6629,1.6629,1.6204,1.5784,0.0,1.5784,1.5784,1.5784,1.5965,1.6219,1.6723,1.7152,1.7595,1.8203,1.894,1.9639,2.0118,2.0858,2.1345,2.1345,2.1345,2.1345,2.1345,2.0723,2.0385,2.0385,1.9764,1.9424,1.9424,1.9424,1.9424,1.9424,1.9424,1.9424,1.9424,1.9424,1.9424,1.9424,1.9424,1.9424,1.9424,0.0,1.9424,1.9424,1.9424,1.9424,1.9424,1.9424,1.9424,1.9424,1.9424,1.9424,1.9424,1.9424,1.9424,1.9366,1.8997,1.8823,1.8648,1.8648,1.8648,1.8765,1.9062,1.9068,1.901,1.912,1.9068,1.8855,1.8513,1.8227,1.7945,1.7453,1.7149,1.6902,1.6583,1.6371,1.6271,1.6164,1.5998,1.5891,1.5891,1.5891,1.5891,1.5891,1.5891,1.5891,1.5891,1.5891,1.5891,1.5891,1.5891,1.5891,1.5891,1.5891,1.5891,1.5891,1.5891,1.5891,1.5891,1.5891,1.5891,1.5891,1.5891,1.5891,1.5891,1.5891,1.5891,2.0096,1.9778,1.9741,1.9521,1.8565,1.7652,1.7652,1.7037,1.648,1.648,1.6576,1.6585,1.6306,1.6378,1.6726,1.7476,1.7798,1.8261,1.9153,2.0099,2.0883,2.1548,2.2418,2.2974,2.2974,2.2974,2.2974,2.2974,2.2135,2.1623,2.1623,2.0723,2.0104,1.9822,1.9822,1.9707,1.9424,1.9424,1.9424,1.9424,1.9424,1.9424,1.9424,1.9424,1.9424,1.9424,1.9424,1.9424,1.9424,1.9424,1.9424,1.9424,1.9424,1.9424,1.9424,1.9424,1.9424,1.9424,1.9424,1.9424,1.9366,1.912,1.8939,1.8939,1.8997,1.8939,1.8997,1.9307,1.9424,1.9424,1.9424,1.9424,1.9248,1.8779,1.8576,1.8313,1.7595,1.7373,1.7226,1.6895,1.6636,1.6483,1.643,1.6211,1.6045,1.5998,1.5998,1.5945,1.5891,1.5891,1.5891,1.5891,1.5891,1.5891,1.5891,1.5891,1.5891,1.5891,1.5891,1.5891,1.5891,1.5891,1.5891,1.5891,1.5891,1.5891,1.5891,1.5891,1.5891,1.5891,1.5891,1.5891,2.2043,2.1865,2.182,2.1553,2.0076,1.8696,1.8696,1.865,1.8557,1.8557,1.8902,1.8846,1.7827,1.7349,1.7503,1.8499,1.892,1.971,2.1432,2.1749,2.2063,2.2783,2.2974,2.2974,2.2974,2.2974,2.2974,2.2974,2.2926,2.2869,2.2869,2.2805,2.2248,2.1117,2.106,2.0558,1.9424,1.9424,1.9424,1.9424,1.9424,1.9424,1.9424,1.9424,1.9424,1.9424,1.9424,1.9424,1.9424,1.9424,1.9424,1.9424,1.9424,1.9424,1.9424,1.9424,1.9424,1.9424,1.9424,1.9424,1.9424,1.9366,1.912,1.8939,1.9243,1.912,1.8997,1.9307,1.9424,1.9424,1.9424,1.9424,1.9366,1.9339,1.8898,1.8484,1.8408,1.7942,1.7483,1.7226,1.7173,1.7014,1.673,1.6677,1.6577,1.6324,1.6271,1.6164,1.5945,1.5891,1.5891,1.5891,1.5891,1.5891,1.5891,1.5891,1.5891,1.5891,1.5891,1.5891,1.5891,1.5891,1.5891,1.5891,1.5891,1.5891,1.5891,1.5891,1.5891,1.5891,1.5891,1.5891,2.2627,2.2539,2.2485,2.222,2.149,2.0673,1.9886,1.9247,1.8666,1.8236,1.8839,1.9201,1.8518,1.8842,1.9173,1.9067,1.9715,2.0527,2.1415,2.2413,2.3223,2.3686,2.4633,2.5238,2.5238,2.5238,2.5238,2.5238,2.4327,2.3753,2.3753,2.3028,2.2418,2.1973,2.1462,2.101,2.05,1.9764,1.9424,1.9424,1.9424,1.9424,1.9424,1.9424,1.9424,1.9424,1.9424,1.9424,1.9424,1.9424,1.9424,1.9424,1.9424,1.9424,1.9424,1.9424,1.9424,1.9424,1.9424,1.9424,1.9424,1.9424,1.9307,1.9243,1.9366,1.9307,1.9243,1.9366,1.9424,1.9424,1.9424,1.9424,1.9377,1.9132,1.8784,1.8437,1.8257,1.7883,1.7582,1.7483,1.7331,1.7179,1.7008,1.6842,1.6683,1.6577,1.643,1.6271,1.6158,1.5998,1.5891,1.5891,1.5891,1.5891,1.5891,1.5891,1.5891,1.5891,1.5891,1.5891,1.5891,1.5891,1.5891,1.5891,1.5891,1.5891,1.5891,1.5891,1.5891,1.5891,1.5891,1.5891,2.2838,2.2803,2.2759,2.2485,2.2309,2.1991,2.1229,2.0474,1.9802,1.9463,1.9806,2.0152,2.0015,2.0276,2.0498,2.0274,2.0877,2.1628,2.2299,2.3349,2.4184,2.4526,2.5532,2.6206,2.6206,2.6206,2.6206,2.6206,2.5219,2.4569,2.4569,2.3801,2.3145,2.282,2.2347,2.1966,2.1579,2.0894,2.0328,1.9989,1.9989,1.9764,1.9424,1.9424,1.9424,1.9424,1.9424,1.9424,1.9424,1.9424,1.9424,1.9424,1.9424,1.9424,1.9424,1.9424,1.9424,1.9424,1.9424,1.9424,1.9424,1.9424,1.9424,1.9424,1.9424,1.9424,1.9424,1.9424,1.9424,1.9424,1.9424,1.9424,1.9319,1.9112,1.8771,1.8437,1.823,1.7869,1.7582,1.7582,1.743,1.7331,1.7331,1.716,1.6948,1.6895,1.6696,1.6537,1.6424,1.6264,1.6099,1.6051,1.5945,1.5891,1.5891,1.5891,1.5891,1.5891,1.5891,1.5891,1.5891,1.5891,1.5891,1.5891,1.5891,1.5891,1.5891,1.5891,1.5891,1.5891,1.5891,1.5891,2.2838,2.2803,2.2759,2.2485,2.2397,2.2466,2.2654,2.251,2.24,2.2821,2.2381,2.2015,2.2458,2.1658,2.1293,2.2316,2.2526,2.3077,2.4559,2.4785,2.4931,2.5368,2.5424,2.5424,2.5424,2.5424,2.5424,2.5424,2.5414,2.5362,2.5362,2.5362,2.4823,2.3639,2.3999,2.3637,2.2434,2.2791,2.241,2.1231,2.1231,2.0558,1.9424,1.9424,1.9424,1.9424,1.9424,1.9424,1.9424,1.9424,1.9424,1.9424,1.9424,1.9424,1.9424,1.9424,1.9424,1.9424,1.9424,1.9424,1.9424,1.9424,1.9424,1.9424,1.9424,1.9424,1.9424,1.9424,1.9424,1.9424,1.9424,1.9424,1.9424,1.9424,1.8918,1.849,1.849,1.8009,1.7582,1.7582,1.7582,1.7582,1.7582,1.7582,1.7536,1.7226,1.7179,1.7067,1.673,1.6677,1.6577,1.6324,1.6051,1.5891,1.5891,1.5891,1.5891,1.5891,1.5891,1.5891,1.5891,1.5891,1.5891,1.5891,1.5891,1.5891,1.5891,1.5891,1.5891,1.5891,1.5891,1.5891,2.3013,2.3013,2.3013,2.2916,2.3015,2.3207,2.3526,2.3082,2.2714,2.3226,2.2788,2.2339,2.2459,2.2878,2.3079,2.2577,2.3188,2.3841,2.4317,2.4643,2.4821,2.4941,2.5249,2.5424,2.5424,2.5424,2.5424,2.5424,2.5115,2.4959,2.4959,2.4959,2.4796,2.4479,2.3991,2.3716,2.3699,2.2931,2.2553,2.2474,2.2474,2.1402,1.9424,1.9424,1.9424,1.9424,1.9424,1.9424,1.9424,1.9424,1.9424,1.9424,1.9424,1.9424,1.9424,1.9424,1.9424,1.9424,1.9424,1.9424,1.9424,1.9424,1.9424,1.9424,1.9424,1.9424,1.9424,1.9424,1.9424,1.9424,1.9424,1.9424,1.9424,1.9424,1.8918,1.849,1.849,1.8009,1.7582,1.7582,1.7582,1.7582,1.7582,1.7582,1.7582,1.7483,1.7331,1.7067,1.673,1.6677,1.6577,1.6324,1.6217,1.6105,1.5945,1.5891,1.5891,1.5891,1.5891,1.5891,1.5891,1.5891,1.5891,1.5891,1.5891,1.5891,1.5891,1.5891,1.5891,1.5891,1.5891,1.5891,2.3091,2.3091,2.3091,2.3091,2.3334,2.3673,2.4169,2.3815,2.3474,2.3733,2.3476,2.3188,2.3188,2.3746,2.4003,2.3288,2.3746,2.4202,2.4202,2.4422,2.4578,2.4578,2.4799,2.4937,2.4937,2.4937,2.4937,2.4937,2.4716,2.4578,2.4578,2.4578,2.4578,2.4578,2.4237,2.4175,2.4457,2.405,2.3699,2.3491,2.3638,2.2692,2.0838,2.0328,1.988,1.9424,1.9424,1.9424,1.9424,1.9424,1.9424,1.9424,1.9424,1.9424,1.9424,1.9424,1.9424,1.9424,1.9424,1.9424,1.9424,1.9424,1.9424,1.9424,1.9424,1.9424,1.9424,1.9424,1.9424,1.9424,1.9424,1.9424,1.9424,1.9424,1.9005,1.8631,1.8517,1.811,1.7729,1.7609,1.7582,1.7582,1.7582,1.7582,1.7582,1.7582,1.7483,1.7272,1.7107,1.6948,1.6849,1.6696,1.643,1.6217,1.6051,1.5945,1.5891,1.5891,1.5891,1.5891,1.5891,1.5891,1.5891,1.5891,1.5891,1.5891,1.5891,1.5891,1.5891,1.5891,1.5891,1.5891,2.3091,2.3091,2.3091,2.3091,2.3496,2.4017,2.4572,2.4638,2.4538,2.4301,2.4251,2.4251,2.4251,2.4202,2.4202,2.4202,2.4202,2.4202,2.4202,2.4202,2.4202,2.4202,2.4202,2.4202,2.4202,2.4202,2.4202,2.4202,2.4202,2.4202,2.4202,2.4202,2.4202,2.4202,2.4578,2.4748,2.4785,2.5543,2.5388,2.4367,2.472,2.43,2.3095,2.1794,2.0551,1.9424,1.9424,1.9424,1.9424,1.9424,1.9424,1.9424,1.9424,1.9424,1.9424,1.9424,1.9424,1.9424,1.9424,1.9424,1.9424,1.9424,1.9424,1.9424,1.9424,1.9424,1.9424,1.9424,1.9424,1.9424,1.9424,1.9424,1.9424,1.9424,1.9138,1.8844,1.8551,1.8257,1.7902,1.7642,1.7582,1.7582,1.7582,1.7582,1.7582,1.7582,1.7582,1.7582,1.7582,1.7384,1.7232,1.7179,1.6696,1.6377,1.6324,1.6057,1.5945,1.5891,1.5891,1.5891,1.5945,1.5891,1.5891,1.5891,1.5891,1.5891,1.5891,1.5891,1.5891,1.5891,1.5891,1.5891,2.3091,2.3091,2.3091,2.3091,2.3666,2.4331,2.464,2.4938,2.5088,2.4784,2.4587,2.444,2.444,2.4301,2.4202,2.4202,2.4202,2.4202,2.4202,2.4202,2.4202,2.4202,2.4202,2.4202,2.4202,2.4202,2.4202,2.4202,2.4202,2.4202,2.4202,2.4202,2.4202,2.4202,2.4293,2.4496,2.4776,2.495,2.524,2.562,2.572,2.526,2.4326,2.2191,2.0551,1.9424,1.9424,1.9424,1.9424,1.9424,1.9424,1.9424,1.9424,1.9424,1.9424,1.9424,1.9424,1.9424,1.9424,1.9424,1.9424,1.9424,1.9424,1.9424,1.9424,1.9424,1.9424,1.9424,1.9424,1.9424,1.9424,1.9424,1.9424,1.9424,1.9138,1.8844,1.8551,1.8257,1.7902,1.7642,1.7582,1.7582,1.7582,1.7582,1.7582,1.7582,1.7582,1.7582,1.7582,1.7536,1.743,1.7232,1.7073,1.6802,1.6324,1.6271,1.6105,1.5891,1.5891,1.5998,1.6217,1.5998,1.5891,1.5891,1.5891,1.5891,1.5891,1.5891,1.5891,1.5891,1.5891,1.5998,2.3091,2.3091,2.314,2.3398,2.3935,2.4485,2.4839,2.5179,2.543,2.5333,2.4883,2.448,2.448,2.4341,2.4202,2.4202,2.4202,2.4202,2.4202,2.4202,2.4202,2.4202,2.4202,2.4251,2.4341,2.4341,2.4399,2.4548,2.4449,2.4341,2.4341,2.4251,2.4202,2.4202,2.4202,2.4312,2.4532,2.4684,2.4986,2.5451,2.5828,2.5568,2.4723,2.2918,2.1402,2.027,2.027,1.9931,1.9424,1.9424,1.9424,1.9424,1.9424,1.9424,1.9424,1.9424,1.9424,1.9424,1.9424,1.9424,1.9424,1.9424,1.9424,1.9424,1.9424,1.9424,1.9424,1.9424,1.9424,1.9424,1.9424,1.9424,1.9424,1.9424,1.9252,1.9018,1.8584,1.837,1.8123,1.7669,1.7582,1.7582,1.7582,1.7582,1.7582,1.7582,1.7582,1.7582,1.7582,1.7582,1.7536,1.7437,1.7279,1.7067,1.6755,1.6583,1.6418,1.6311,1.6258,1.6365,1.6477,1.6365,1.6258,1.6258,1.6258,1.6258,1.6258,1.6258,1.6258,1.6258,1.6258,1.6433,2.3091,2.3091,2.3179,2.3584,2.3994,2.4424,2.4853,2.5303,2.5644,2.5674,2.5137,2.4637,2.4578,2.4399,2.4251,2.4202,2.4202,2.4202,2.4202,2.4202,2.4202,2.4202,2.4202,2.4301,2.448,2.448,2.4627,2.4883,2.4677,2.4538,2.448,2.4341,2.4251,2.4202,2.4202,2.4202,2.4202,2.4551,2.4711,2.4794,2.5571,2.5577,2.496,2.3947,2.2806,2.1517,2.1288,2.0608,1.9707,1.9482,1.9424,1.9424,1.9424,1.9424,1.9424,1.9424,1.9424,1.9424,1.9424,1.9424,1.9424,1.9424,1.9424,1.9424,1.9424,1.9424,1.9424,1.9424,1.9424,1.9424,1.9424,1.9424,1.9424,1.9424,1.9424,1.9205,1.8617,1.849,1.831,1.7702,1.7582,1.7582,1.7582,1.7582,1.7582,1.7582,1.7582,1.7582,1.7582,1.7582,1.7582,1.7582,1.7378,1.7226,1.7179,1.6955,1.6736,1.6677,1.6677,1.673,1.6783,1.6789,1.6789,1.6836,1.673,1.6677,1.6677,1.6677,1.6677,1.6677,1.6781,1.6987,2.3091,2.3091,2.311,2.3169,2.3555,2.3984,2.4404,2.4844,2.5273,2.5615,2.544,2.5137,2.4883,2.4637,2.439,2.4251,2.4202,2.4202,2.4202,2.4202,2.4202,2.4202,2.4202,2.4301,2.448,2.448,2.4627,2.4883,2.4883,2.4735,2.4529,2.4489,2.439,2.4202,2.4202,2.4202,2.4202,2.4257,2.4468,2.4785,2.5234,2.5603,2.5818,2.5657,2.4571,2.2692,2.1623,2.1117,2.0895,1.9822,1.9424,1.9424,1.9424,1.9424,1.9424,1.9424,1.9424,1.9424,1.9424,1.9424,1.9424,1.9424,1.9424,1.9424,1.9424,1.9424,1.9424,1.9424,1.9424,1.9424,1.9424,1.9424,1.9424,1.9424,1.9424,1.9205,1.8617,1.849,1.831,1.7702,1.7582,1.7582,1.7582,1.7582,1.7582,1.7582,1.7582,1.7582,1.7582,1.7582,1.7582,1.7582,1.7582,1.743,1.7232,1.7179,1.7008,1.673,1.6677,1.6842,1.712,1.712,1.7219,1.7477,1.6942,1.6677,1.6677,1.6677,1.6677,1.6683,1.6984,1.7287,2.3091,2.3091,2.3091,2.3091,2.3467,2.3838,2.4023,2.4394,2.4756,2.4961,2.4905,2.4851,2.5091,2.4883,2.4686,2.4597,2.4597,2.4597,2.4597,2.4597,2.4597,2.4597,2.4597,2.4686,2.4932,2.4941,2.5088,2.5342,2.5186,2.499,2.4735,2.4578,2.439,2.4202,2.4202,2.4202,2.4202,2.4202,2.4413,2.4785,2.4959,2.5243,2.569,2.5911,2.5297,2.3991,2.3432,2.2805,2.2135,2.0895,2.0385,2.0328,1.9649,1.9424,1.9424,1.9424,1.9424,1.9424,1.9424,1.9424,1.9424,1.9424,1.9424,1.9424,1.9424,1.9424,1.9424,1.9424,1.9424,1.9424,1.9424,1.9424,1.9424,1.9424,1.9424,1.9205,1.8617,1.849,1.831,1.7702,1.7582,1.7582,1.7582,1.7582,1.7582,1.7582,1.7582,1.7582,1.7582,1.7582,1.7582,1.7582,1.7582,1.7529,1.743,1.743,1.7378,1.7213,1.7206,1.7265,1.743,1.743,1.7483,1.7582,1.7318,1.7206,1.7206,1.7206,1.7298,1.7414,1.7585,1.7875,2.3091,2.3091,2.3091,2.3091,2.3379,2.3652,2.3769,2.4033,2.4287,2.4394,2.4414,2.4526,2.4986,2.4947,2.4867,2.4913,2.4883,2.4883,2.4883,2.4883,2.4883,2.4883,2.4883,2.499,2.5284,2.5284,2.543,2.5684,2.5489,2.5284,2.503,2.4735,2.4489,2.4291,2.4251,2.4202,2.4202,2.4202,2.4358,2.4629,2.4629,2.4882,2.5234,2.5681,2.5595,2.5081,2.4901,2.4278,2.3376,2.2135,2.1687,2.1574,2.0673,2.0104,1.988,1.988,1.9649,1.9424,1.9424,1.9424,1.9424,1.9424,1.9424,1.9424,1.9424,1.9424,1.9424,1.9424,1.9424,1.9424,1.9424,1.9424,1.9424,1.9424,1.9305,1.9112,1.8597,1.837,1.8123,1.7669,1.7582,1.7582,1.7582,1.7582,1.7582,1.7582,1.7582,1.7582,1.7582,1.7582,1.7582,1.7582,1.7582,1.7582,1.7582,1.7582,1.7582,1.7582,1.7582,1.7582,1.7582,1.7582,1.7582,1.7582,1.7662,1.7662,1.7582,1.7662,1.7816,1.7995,1.8183,1.849,2.3091,2.3091,2.3091,2.3091,2.311,2.3237,2.3691,2.3809,2.3935,2.4336,2.4414,2.4434,2.4426,2.4599,2.4737,2.4875,2.4883,2.4883,2.4883,2.4883,2.4883,2.4883,2.4883,2.499,2.5284,2.5284,2.543,2.5684,2.5693,2.5538,2.5284,2.503,2.4784,2.4489,2.4291,2.4202,2.4202,2.4202,2.4211,2.4238,2.4238,2.4459,2.4821,2.5277,2.5619,2.5898,2.5127,2.4778,2.4612,2.3424,2.2918,2.2918,2.2862,2.2135,2.1117,2.1117,2.0385,1.9424,1.9424,1.9424,1.9424,1.9424,1.9424,1.9424,1.9424,1.9424,1.9424,1.9424,1.9424,1.9424,1.9424,1.9424,1.9424,1.9424,1.9152,1.8865,1.8557,1.8036,1.7622,1.7589,1.7582,1.7582,1.7582,1.7582,1.7582,1.7582,1.7582,1.7582,1.7582,1.7582,1.7582,1.7582,1.7582,1.7582,1.7582,1.7582,1.7582,1.7582,1.7582,1.7582,1.7582,1.7582,1.7582,1.7582,1.7869,1.7822,1.7582,1.7883,1.7975,1.8009,1.8617,1.8891,2.3091,2.3091,2.3091,2.3091,2.3091,2.314,2.3286,2.3369,2.3374,2.352,2.3549,2.3682,2.3965,2.4273,2.452,2.4571,2.46,2.46,2.46,2.46,2.46,2.46,2.46,2.46,2.4694,2.4694,2.4742,2.4845,2.5146,2.5217,2.4939,2.5091,2.503,2.4784,2.4686,2.4587,2.439,2.4251,2.4202,2.4202,2.4202,2.4284,2.444,2.4803,2.5207,2.5601,2.5567,2.572,2.5852,2.4667,2.4167,2.4103,2.332,2.2757,2.2361,2.2361,2.2078,2.1623,2.0838,2.0558,2.0443,1.9649,1.9424,1.9424,1.9424,1.9424,1.9424,1.9424,1.9424,1.9424,1.9424,1.9424,1.9377,1.9125,1.8858,1.8564,1.827,1.7876,1.7582,1.7582,1.7582,1.7582,1.7582,1.7582,1.7582,1.7582,1.7582,1.7582,1.7582,1.7582,1.7582,1.7582,1.7582,1.7582,1.7582,1.7582,1.7582,1.7582,1.7582,1.7582,1.7582,1.7582,1.7675,1.7876,1.7976,1.7976,1.7883,1.8183,1.843,1.8555,1.8824,1.9025,2.3091,0.0,0.0,2.3091,2.3091,2.3091,2.3091,2.3091,2.3091,2.3091,2.3091,2.3188,2.3516,2.3799,2.4082,2.4365,2.4414,2.4414,2.4414,2.4414,2.4414,2.4414,2.4414,2.4414,2.4414,2.4414,2.4414,2.4414,2.4687,2.4806,2.4628,2.49,2.5043,2.4883,2.4833,2.4686,2.448,2.4291,2.4202,2.4202,2.4202,2.4202,2.422,2.4643,2.4931,2.5207,2.5782,2.6251,2.6537,2.5734,2.5404,2.5348,2.4501,2.3935,2.36,2.36,2.3376,2.2869,2.2078,2.1794,2.168,2.0895,2.0328,1.9989,1.9989,1.9707,1.9424,1.9424,1.9424,1.9424,1.9424,1.9424,1.9265,1.8871,1.8631,1.8384,1.7976,1.7729,1.7582,1.7582,1.7582,1.7582,1.7582,1.7582,1.7582,1.7582,1.7582,1.7582,1.7582,1.7582,1.7582,1.7582,1.7582,1.7582,1.7582,1.7582,1.7582,1.7582,1.7582,1.7582,1.7582,1.7682,1.7836,1.7989,1.8175,1.8323,1.8288,1.8537,1.8738,1.8925,1.9025,1.9178,0.0,0.0,0.0,2.3091,2.3091,2.3091,2.3091,2.3091,2.3091,2.3091,2.3091,2.3091,2.3091,2.3091,2.3364,2.4238,2.4385,2.4385,2.4385,2.4385,2.4385,2.4385,2.4385,2.4385,2.4385,2.4385,2.4385,2.4385,2.4394,2.4394,2.4394,2.4599,2.4746,2.4903,2.4667,2.452,2.4529,2.4301,2.4202,2.4202,2.4202,2.4202,2.422,2.4574,2.4776,2.4821,2.5644,2.6223,2.6573,2.6582,2.6591,2.6591,2.6591,2.5852,2.4842,2.4842,2.4103,2.3095,2.3095,2.3038,2.3038,2.303,2.2191,2.1231,2.1231,2.0443,1.9482,1.9482,1.9424,1.9424,1.9424,1.9424,1.9276,1.8631,1.849,1.8323,1.7716,1.7582,1.7582,1.7582,1.7582,1.7582,1.7582,1.7582,1.7582,1.7582,1.7582,1.7582,1.7582,1.7582,1.7582,1.7582,1.7582,1.7582,1.7582,1.7582,1.7582,1.7582,1.7582,1.7589,1.7595,1.7883,1.8002,1.8015,1.8575,1.8925,1.8938,1.8938,1.8938,1.8945,1.9232,1.9424,2.395,0.0,0.0,0.0,0.0,0.0,2.3091,2.3091,2.3091,2.3091,2.3091,2.3091,2.3091,2.3091,2.3169,2.3413,2.3452,2.3452,2.3452,2.3452,2.3452,2.3452,2.3452,2.3452,2.3452,2.3452,2.3452,0.0,2.3779,2.3965,2.3965,2.4283,2.4664,2.5043,2.4775,2.4783,2.5088,2.4637,2.444,2.444,2.4251,2.4202,2.4211,2.4321,2.4542,2.4794,2.5065,2.5552,2.6214,2.6463,2.6591,2.6591,2.6591,2.6418,2.6081,2.6081,2.5907,2.5459,2.4612,2.427,2.4167,2.3255,2.2749,2.2523,2.2523,2.2248,2.1794,2.0952,2.0723,2.05,1.9655,1.9424,1.9276,1.8631,1.849,1.8323,1.7716,1.7582,1.7582,1.7582,1.7582,1.7582,1.7582,1.7582,1.7582,1.7582,1.7582,1.7582,1.7582,1.7582,1.7582,1.7582,1.7582,1.7582,1.7582,1.7582,1.7582,1.7582,1.7582,1.7675,1.7883,1.7942,1.8195,1.8615,1.8781,1.9032,1.9245,1.9245,1.9245,1.9245,1.939,1.9424,0.0,0.0,0.0,2.3091,0.0,0.0,2.3091,2.3091,2.3091,2.3091,2.3091,2.3091,2.3091,2.3091,2.3091,2.3091,2.3091,2.3091,2.3091,2.3091,2.3091,2.3091,2.3091,2.3091,2.3091,2.3091,2.3091,2.3091,2.3335,2.3603,2.3779,2.4023,2.4355,2.4785,2.4754,2.4785,2.488,2.4651,2.444,2.439,2.4251,2.4202,2.4202,2.4202,2.4339,2.4578,2.4702,2.5041,2.5552,2.5913,2.6279,2.6591,2.6591,2.6591,2.6591,2.6591,2.6591,2.6473,2.5798,2.5569,2.5459,2.4723,2.4158,2.3768,2.3768,2.3424,2.2869,2.2135,2.1964,2.1794,2.106,2.0787,2.0394,1.9472,1.9467,1.9388,1.8461,1.8662,1.8715,1.7786,1.7582,1.7582,1.7582,1.7582,1.7582,1.7582,1.7582,1.7582,1.7582,1.7582,1.7582,1.7582,1.7582,1.7582,1.7582,1.7582,1.7582,1.7582,1.7702,1.8056,1.8742,1.8966,1.9548,2.0404,2.0047,1.9702,1.9424,1.9424,1.9424,1.9424,1.9424,1.9424,0.0,0.0,0.0,0.0,2.3387,0.0,2.3266,2.3266,2.3222,2.3135,2.3091,2.3091,2.3091,2.3091,2.3091,2.3091,2.3091,2.3091,2.3091,2.3091,2.3091,2.3091,2.3091,2.3091,2.3091,2.3091,2.3091,2.3091,2.3091,2.3266,2.3691,2.3721,2.3916,2.4336,2.4512,2.4526,2.4374,2.4433,2.4393,2.4301,2.4202,2.4202,2.4202,2.4202,2.4202,2.422,2.4606,2.4739,2.4812,2.5212,2.5757,2.6454,2.6499,2.6518,2.6527,2.6573,2.6591,2.6591,2.6591,2.6591,2.6591,2.6591,2.5852,2.5008,2.5008,2.427,2.3368,2.3255,2.3087,2.2974,2.2974,2.2704,2.2073,2.0773,2.0918,2.0932,1.9658,2.0158,2.0321,1.8356,1.7996,1.7996,1.7996,1.7838,1.7786,1.7786,1.7687,1.7582,1.7582,1.7582,1.7582,1.7582,1.7582,1.7582,1.7582,1.7582,1.7595,1.7629,1.7896,1.8596,1.9852,2.0432,2.1312,2.2506,2.1812,2.0895,1.9822,1.9822,1.9649,1.9424,1.954,1.954,0.0,0.0,0.0,0.0,2.5274,0.0,2.4402,2.4241,2.4026,2.3266,2.3091,2.3091,2.3091,2.3091,2.3091,2.3091,2.3091,2.3091,2.3091,2.3091,2.3091,2.3091,2.3091,2.3091,2.3091,2.3091,2.3091,2.3091,2.3091,2.313,2.3218,2.3218,2.3467,2.3896,2.3949,2.4283,2.4926,2.4536,2.4464,2.4735,2.4399,2.4202,2.4202,2.4202,2.4202,2.4211,2.4293,2.4514,2.4785,2.4867,2.5179,2.569,2.6012,2.6131,2.6177,2.6463,2.6591,2.6591,2.6591,2.6591,2.6591,2.6591,2.6418,2.6254,2.6254,2.6081,2.5688,2.4723,2.3768,2.2974,2.2974,2.2704,2.2237,2.1727,2.1435,2.1141,2.0648,2.0723,2.0783,2.0321,2.0261,2.0261,2.0261,1.9487,1.8871,1.8871,1.8146,1.7582,1.7582,1.7582,1.7582,1.7582,1.7582,1.7582,1.7582,1.7582,1.7689,1.7889,1.7962,1.8734,2.0472,2.0618,2.1361,2.2871,2.2717,2.2531,2.2305,2.2305,2.1288,1.9424,2.0385,2.0328,0.0,0.0,0.0,2.5777,2.5777,0.0,0.0,2.4829,2.437,2.3907,2.344,2.3091,2.3091,2.3091,2.3091,2.3091,2.3091,2.3091,2.3091,2.3091,2.3091,2.3091,2.3091,2.3091,2.3091,2.3091,2.3091,2.3091,2.3091,2.3091,2.3091,2.3091,2.3198,2.3457,2.3682,2.4046,2.4539,2.4402,2.4428,2.4686,2.4341,2.4202,2.4202,2.4202,2.4202,2.4202,2.4202,2.4321,2.4514,2.4514,2.4633,2.4872,2.5488,2.5718,2.5745,2.5957,2.5977,2.6013,2.6206,2.627,2.6307,2.6518,2.6591,2.6591,2.6591,2.6591,2.6473,2.5852,2.5284,2.4735,2.4538,2.4205,2.3659,2.2698,2.2644,2.2537,2.1843,2.2156,2.2568,2.2568,2.2568,2.2207,2.1089,2.0423,2.0055,2.0055,1.9591,1.9235,1.9235,1.9235,1.9235,1.9235,1.9235,1.9027,1.8461,1.9112,1.9074,1.809,1.9389,2.0676,2.1559,2.2339,2.3134,2.388,2.4501,2.4214,2.2974,2.4214,2.3536,2.1231,2.1794,2.1794,0.0,0.0,0.0,0.0,0.0,2.6287,0.0,0.0,0.0,2.4787,2.4155,2.3637,2.3637,2.3474,2.341,2.3451,2.325,2.3149,2.3191,2.3129,0.0,2.3091,2.3091,2.3091,2.3091,2.3091,2.3091,2.3091,2.3091,2.3091,2.3091,2.3091,2.3091,2.3091,2.3486,2.3777,2.3955,2.4173,2.4353,2.4515,2.4362,2.4251,2.4251,2.4202,2.4202,2.4202,2.4202,2.4202,2.4202,2.4202,2.4202,2.4275,2.5019,2.5262,2.5271,2.5396,2.5424,2.547,2.5791,2.5901,2.5957,2.6243,2.6408,2.6481,2.6564,2.6591,2.6591,2.6591,2.6527,2.6389,2.6104,2.5663,2.4954,2.3737,2.3824,2.3954,2.3038,2.3546,2.4202,2.4202,2.4202,2.3637,2.1853,2.1344,2.1191,2.1191,2.1038,2.0885,2.0885,2.0885,2.0885,2.0885,2.0885,2.0518,1.9591,2.0719,2.0688,1.886,2.1122,2.2647,2.2931,2.434,2.5174,2.5174,2.6081,2.5633,2.3712,2.5624,2.5348,2.3038,2.3255,2.3199,0.0,0.0,0.0,0.0,2.8167,0.0,2.7226,0.0,2.6682,2.583,0.0,2.5484,2.5484,0.0,0.0,2.4728,2.3847,2.3215,2.3583,2.3322,2.3091,2.3091,2.3091,2.3091,2.3091,2.3091,2.3091,2.3091,2.3091,2.3091,2.3091,2.3091,2.3091,2.3091,2.314,2.3383,2.3812,2.3955,2.4248,2.4699,2.4517,2.4489,2.444,2.4301,2.4202,2.4202,2.4202,2.4202,2.4202,2.4202,2.4202,2.4248,2.4666,2.4849,2.4886,2.5295,2.5424,2.5433,2.5479,2.5488,2.5497,2.5543,2.58,2.6149,2.6472,2.6591,2.6591,2.6591,2.6316,2.6076,2.6021,2.546,2.484,2.4632,2.4404,2.4152,2.4053,2.4102,2.4202,2.4202,2.4202,2.4102,2.3895,2.2979,2.2325,2.2325,2.1497,2.0885,2.0885,2.0885,2.0885,2.0885,2.0885,2.0834,2.0723,2.1195,2.1468,2.1455,2.2119,2.309,2.4471,2.5716,2.6418,2.6418,2.6527,2.6473,2.619,2.6473,2.5348,2.3038,2.4103,2.3991,0.0,0.0,0.0,0.0,0.0,0.0,2.8059,0.0,2.7092,0.0,0.0,0.0,0.0,0.0,0.0,0.0,2.503,2.4713,2.4892,2.4777,2.4274,2.3222,2.3091,0.0,2.3091,2.3091,2.3091,2.3091,2.3091,2.3091,2.3091,2.3091,2.3091,2.3091,2.3091,2.335,2.3789,2.3924,2.4218,2.4727,2.4538,2.448,2.448,2.4301,2.4202,2.4202,2.4341,2.4301,2.4202,2.435,2.4301,2.422,2.4395,2.4468,2.4486,2.4652,2.4716,2.4753,2.4992,2.5032,2.5069,2.5298,2.5534,2.5699,2.583,2.5885,2.5885,2.5885,2.581,2.5617,2.5387,2.5032,2.4721,2.4523,2.433,2.4202,2.4202,2.4202,2.4202,2.4202,2.4202,2.4202,2.4202,2.3795,2.3497,2.3497,2.3079,2.282,2.282,2.282,2.282,2.282,2.282,2.2568,2.1861,2.3014,2.325,2.2001,2.31,2.4442,2.5789,2.6309,2.6591,2.6591,2.6591,2.6591,2.6591,2.6591,2.6081,2.5119,2.5624,2.5569,2.8578,0.0,0.0,0.0,0.0,0.0,0.0,0.0,0.0,0.0,0.0,0.0,0.0,0.0,0.0,0.0,0.0,2.5817,2.5945,2.5867,2.5242,2.3691,2.3266,0.0,0.0,2.3266,2.3091,2.3091,2.3091,2.3091,2.3091,2.3091,2.3091,2.3091,2.3091,2.3247,2.3603,2.3842,2.4185,2.4639,2.4572,2.4622,2.4686,2.4449,2.4301,2.4301,2.439,2.4341,2.4202,2.444,2.439,2.4202,2.4251,2.4251,2.4202,2.4202,2.4202,2.4248,2.4551,2.4661,2.4675,2.5078,2.5267,2.5286,2.5387,2.5424,2.5424,2.5424,2.5341,2.5142,2.4858,2.4702,2.4578,2.4275,2.4202,2.4202,2.4202,2.4202,2.4202,2.4202,2.4202,2.4202,2.4202,2.4202,2.4202,2.4202,2.4202,2.4202,2.4202,2.4202,2.4202,2.4202,2.4202,2.3845,2.3038,2.4485,2.4755,2.3278,2.4525,2.5688,2.6537,2.6591,2.6591,2.6591,2.6591,2.6591,2.6591,2.6591,2.6591,2.6591,2.6591,2.6591,0.0,0.0,0.0,2.8724,0.0,0.0,0.0,0.0,2.8471,0.0,0.0,0.0,0.0,0.0,0.0,0.0,0.0,0.0,0.0,2.6039,2.5453,2.4573,2.3647,2.3484,0.0,2.3647,2.3091,2.3091,2.3091,2.3091,2.3091,2.3091,2.3091,2.3091,2.3091,2.3101,2.312,2.3594,2.4023,2.4397,2.4619,2.49,2.5235,2.4735,2.4489,2.448,2.4301,2.4202,2.4202,2.444,2.439,2.4202,2.439,2.439,2.4202,2.4202,2.4202,2.4202,2.422,2.422,2.4293,2.4716,2.4803,2.4876,2.5304,2.5424,2.5424,2.5424,2.5096,2.4803,2.4785,2.4532,2.422,2.4211,2.4202,2.4202,2.4202,2.4202,2.4202,2.4202,2.4202,2.4202,2.4202,2.4202,2.4202,2.4202,2.4202,2.4202,2.4202,2.4202,2.4202,2.4202,2.4202,2.4202,2.4152,2.4904,2.5711,2.6391,2.6518,2.6537,2.6591,2.6591,2.6591,2.6591,2.6591,2.6591,2.6591,2.6591,2.6591,2.6591,2.6591,2.6591,0.0,0.0,2.851,2.8578,0.0,0.0,0.0,0.0,0.0,0.0,0.0,0.0,0.0,0.0,0.0,0.0,0.0,0.0,0.0,2.7192,2.6835,2.7133,2.5284,2.4155,0.0,2.3647,2.3091,2.3091,2.3091,2.3091,2.3091,2.3091,2.3091,2.3091,2.3091,2.3091,2.3091,2.3574,2.4004,2.4424,2.46,2.489,2.5284,2.4932,2.4686,2.4538,2.4637,2.4538,2.439,2.4489,2.444,2.439,2.435,2.4251,2.4202,2.4202,2.4202,2.4202,2.4202,2.4202,2.422,2.4367,2.4413,2.444,2.4569,2.4615,2.4615,2.4615,2.4523,2.4413,2.4413,2.4312,2.4202,2.4202,2.4202,2.4202,2.4202,2.4202,2.4202,2.4202,2.4202,2.4202,2.4202,2.4202,2.4202,2.4202,2.4202,2.4202,2.4202,2.4202,2.4202,2.4202,2.4202,2.4202,2.4202,2.4955,2.572,2.6536,2.6591,2.6591,2.6591,2.6591,2.6691,2.6836,2.6836,2.6836,2.689,2.7053,2.7053,2.689,2.7062,2.7008,2.8791,2.8724,0.0,2.8618,2.855,0.0,2.851,0.0,2.851,0.0,0.0,0.0,0.0,0.0,0.0,0.0,0.0,0.0,0.0,2.8007,2.7886,2.8431,2.6423,2.4956,2.4956,2.4402,2.381,2.3135,2.3396,2.343,2.3135,2.3091,2.3091,2.3091,2.3091,2.3091,2.3091,2.3418,2.3848,2.4424,2.453,2.488,2.543,2.5137,2.4941,2.4784,2.4784,2.4735,2.4627,2.4529,2.448,2.4489,2.4341,2.4251,2.4202,2.4202,2.4202,2.4202,2.4202,2.4202,2.4202,2.4202,2.4202,2.4202,2.4202,2.4202,2.4174,2.3978,2.4091,2.4165,2.3978,2.4091,2.4202,2.4202,2.4202,2.4202,2.4202,2.4202,2.4248,2.4395,2.4431,2.4468,2.4615,2.4633,2.4542,2.4248,2.4202,2.4202,2.4202,2.4202,2.4202,2.4202,2.4202,2.4321,2.4615,2.5249,2.592,2.6699,2.6736,2.6791,2.6899,2.6899,2.6888,2.6945,2.7086,2.7086,2.6945,2.7248,2.7314,2.7152,2.7323,2.7368]}]]